[[{"header":{"parameterUnit":"m.s-1","parameterCategory":1,"la1":30.6,"la2":29.2853,"lo1":-89.7004,"lo2":-87.6739,"dy":0.0162,"dx":0.0183,"nx":112,"ny":82,"refTime":"2023-04-29T12:00:00:Z","depth":0,"parameterNumber":2,"parameterNumberName":"U-component_of_WINDS"},"data":[0.0,0.0,0.0,0.0,0.0,0.0,0.0,0.0,0.0,0.0,0.0,0.0,0.0,0.0,0.0,0.0,0.0,0.0,0.0,0.0,0.0,0.0,0.0,0.0,0.0,0.0,0.0,0.0,0.0,0.0,0.0,0.0,0.0,0.0,0.0,0.0,0.0,0.0,0.0,0.0,0.0,0.0,0.0,0.0,0.0,0.0,0.0,0.0,0.0,0.0,0.0,0.0,0.0,0.0,0.0,0.0,0.0,0.0,0.0,0.0,0.0,0.0,0.0,0.0,0.0,0.0,0.0,0.0,0.0,0.0,0.0,0.0,0.0,0.0,0.0,0.0,0.0,0.0,0.0,0.0,0.0,0.0,0.0,0.0,0.0,0.0,0.0,0.0,0.0,0.0,-2.3595,-2.3595,-2.3595,-2.3595,-2.3595,-2.3595,-2.3595,-2.3595,0.0,0.0,0.0,0.0,0.0,0.0,0.0,0.0,0.0,0.0,0.0,0.0,0.0,0.0,0.0,0.0,0.0,0.0,0.0,0.0,0.0,0.0,0.0,0.0,0.0,0.0,0.0,0.0,0.0,0.0,0.0,0.0,0.0,0.0,0.0,0.0,0.0,0.0,0.0,0.0,0.0,0.0,0.0,0.0,0.0,0.0,0.0,0.0,0.0,0.0,0.0,0.0,0.0,0.0,0.0,0.0,0.0,0.0,0.0,0.0,0.0,0.0,0.0,0.0,0.0,0.0,0.0,0.0,0.0,0.0,0.0,0.0,0.0,0.0,0.0,0.0,0.0,0.0,0.0,0.0,0.0,0.0,0.0,0.0,0.0,0.0,0.0,0.0,0.0,0.0,0.0,0.0,0.0,0.0,0.0,0.0,0.0,0.0,0.0,0.0,0.0,0.0,0.0,0.0,-2.3595,-2.3595,-2.3595,-2.3595,-2.3595,-2.3595,-2.3595,-2.3595,0.0,0.0,0.0,0.0,0.0,0.0,0.0,0.0,0.0,0.0,0.0,0.0,0.0,0.0,0.0,0.0,0.0,0.0,0.0,0.0,0.0,0.0,0.0,0.0,0.0,0.0,0.0,0.0,0.0,0.0,0.0,0.0,0.0,0.0,0.0,0.0,0.0,0.0,0.0,0.0,0.0,0.0,0.0,0.0,0.0,0.0,0.0,0.0,0.0,0.0,0.0,0.0,0.0,0.0,0.0,0.0,0.0,0.0,0.0,0.0,0.0,0.0,0.0,0.0,0.0,0.0,0.0,0.0,0.0,0.0,0.0,0.0,0.0,0.0,0.0,0.0,0.0,0.0,0.0,0.0,0.0,0.0,0.0,0.0,0.0,0.0,0.0,0.0,0.0,0.0,0.0,0.0,0.0,0.0,0.0,0.0,0.0,0.0,0.0,0.0,0.0,0.0,0.0,-2.3098,-2.2972,-2.2606,-2.2583,-2.2733,-2.3076,-2.3098,-2.3246,-2.3573,-2.3595,0.0,0.0,0.0,0.0,0.0,0.0,0.0,0.0,0.0,0.0,0.0,0.0,0.0,0.0,0.0,0.0,0.0,0.0,0.0,0.0,0.0,0.0,0.0,0.0,0.0,0.0,0.0,0.0,0.0,0.0,0.0,0.0,0.0,0.0,0.0,0.0,0.0,0.0,0.0,0.0,0.0,0.0,0.0,0.0,0.0,0.0,0.0,0.0,0.0,0.0,0.0,0.0,0.0,0.0,0.0,0.0,0.0,0.0,0.0,0.0,0.0,0.0,0.0,0.0,0.0,0.0,0.0,0.0,0.0,0.0,0.0,0.0,0.0,0.0,0.0,0.0,0.0,0.0,0.0,0.0,0.0,0.0,0.0,0.0,0.0,0.0,0.0,0.0,0.0,0.0,0.0,0.0,0.0,0.0,0.0,0.0,0.0,0.0,0.0,0.0,0.0,0.0,-2.292,-2.2725,-2.2202,-2.2156,-2.2354,-2.2875,-2.2785,-2.2965,-2.3551,-2.3465,0.0,0.0,0.0,0.0,0.0,0.0,0.0,0.0,0.0,0.0,0.0,0.0,0.0,0.0,0.0,0.0,0.0,0.0,0.0,0.0,0.0,0.0,0.0,0.0,0.0,0.0,0.0,0.0,0.0,0.0,0.0,0.0,0.0,0.0,0.0,0.0,0.0,0.0,0.0,0.0,0.0,0.0,0.0,0.0,0.0,0.0,0.0,0.0,0.0,0.0,0.0,0.0,0.0,0.0,0.0,0.0,0.0,0.0,0.0,0.0,0.0,0.0,0.0,0.0,0.0,0.0,0.0,0.0,0.0,0.0,0.0,0.0,0.0,0.0,0.0,0.0,0.0,0.0,0.0,0.0,0.0,0.0,0.0,0.0,0.0,0.0,0.0,0.0,0.0,0.0,0.0,0.0,0.0,0.0,0.0,0.0,0.0,0.0,0.0,0.0,0.0,0.0,-2.353,-2.3508,-2.3471,-2.3471,-2.3486,-2.353,-2.3009,-2.2965,-2.3551,-2.3076,0.0,0.0,0.0,0.0,0.0,0.0,0.0,0.0,0.0,0.0,0.0,0.0,0.0,0.0,0.0,0.0,0.0,0.0,0.0,0.0,0.0,0.0,0.0,0.0,0.0,0.0,0.0,0.0,0.0,0.0,0.0,0.0,0.0,0.0,0.0,0.0,0.0,0.0,0.0,0.0,0.0,0.0,0.0,0.0,0.0,0.0,0.0,0.0,0.0,0.0,0.0,0.0,0.0,0.0,0.0,0.0,0.0,0.0,0.0,0.0,0.0,0.0,0.0,0.0,0.0,0.0,0.0,0.0,0.0,0.0,0.0,0.0,0.0,0.0,0.0,0.0,0.0,0.0,0.0,0.0,0.0,0.0,0.0,0.0,0.0,0.0,0.0,0.0,0.0,0.0,0.0,0.0,0.0,0.0,0.0,0.0,0.0,0.0,0.0,0.0,0.0,0.0,-2.2409,-2.2109,-2.1315,-2.1232,-2.14,-2.1819,-2.1657,-2.1964,-2.2965,0.0,0.0,0.0,0.0,0.0,0.0,0.0,0.0,0.0,0.0,0.0,0.0,0.0,0.0,0.0,0.0,0.0,0.0,0.0,0.0,0.0,0.0,0.0,0.0,0.0,0.0,0.0,0.0,0.0,0.0,0.0,0.0,0.0,0.0,0.0,0.0,0.0,0.0,0.0,0.0,0.0,0.0,0.0,0.0,0.0,0.0,0.0,0.0,0.0,0.0,0.0,0.0,0.0,0.0,0.0,0.0,0.0,0.0,0.0,0.0,0.0,0.0,0.0,0.0,0.0,0.0,0.0,0.0,0.0,0.0,0.0,0.0,0.0,0.0,0.0,0.0,0.0,0.0,0.0,0.0,0.0,0.0,0.0,0.0,0.0,0.0,0.0,0.0,0.0,0.0,0.0,0.0,0.0,0.0,0.0,0.0,0.0,0.0,0.0,0.0,0.0,0.0,-2.2696,-2.258,-2.2168,-2.1068,-2.0953,-2.113,-2.1618,-2.1482,-2.1825,-2.2912,0.0,0.0,0.0,0.0,0.0,0.0,0.0,0.0,0.0,0.0,0.0,0.0,0.0,0.0,0.0,0.0,0.0,0.0,0.0,0.0,0.0,0.0,0.0,0.0,0.0,0.0,0.0,0.0,0.0,0.0,0.0,0.0,0.0,0.0,0.0,0.0,0.0,0.0,0.0,0.0,0.0,0.0,0.0,0.0,0.0,0.0,0.0,0.0,0.0,0.0,0.0,0.0,0.0,0.0,0.0,0.0,0.0,0.0,0.0,0.0,0.0,0.0,0.0,0.0,0.0,0.0,0.0,0.0,0.0,0.0,0.0,0.0,0.0,0.0,0.0,0.0,0.0,0.0,0.0,0.0,0.0,0.0,0.0,0.0,0.0,0.0,0.0,0.0,0.0,0.0,0.0,0.0,0.0,0.0,0.0,0.0,0.0,0.0,0.0,0.0,0.0,0.0,-2.4494,-2.4507,-2.422,-2.347,-2.3393,-2.3439,-2.3474,-2.2934,-2.2884,0.0,0.0,0.0,0.0,0.0,0.0,0.0,0.0,0.0,0.0,0.0,0.0,0.0,0.0,0.0,0.0,0.0,0.0,0.0,0.0,0.0,0.0,0.0,0.0,0.0,0.0,0.0,0.0,0.0,0.0,0.0,0.0,0.0,0.0,0.0,0.0,0.0,0.0,0.0,0.0,0.0,0.0,0.0,0.0,0.0,0.0,0.0,0.0,0.0,0.0,0.0,0.0,0.0,0.0,0.0,0.0,0.0,0.0,0.0,0.0,0.0,0.0,0.0,0.0,0.0,0.0,0.0,0.0,0.0,0.0,0.0,0.0,0.0,0.0,0.0,0.0,0.0,0.0,0.0,0.0,0.0,0.0,0.0,0.0,0.0,0.0,0.0,0.0,0.0,0.0,0.0,0.0,0.0,0.0,0.0,0.0,0.0,0.0,0.0,0.0,0.0,0.0,0.0,-2.3918,-2.387,-2.36,-2.291,-2.3289,-2.3401,-2.2914,-2.2707,-2.2884,-2.3547,0.0,0.0,0.0,0.0,0.0,0.0,0.0,0.0,0.0,0.0,0.0,0.0,0.0,0.0,0.0,0.0,0.0,0.0,0.0,0.0,0.0,0.0,0.0,0.0,0.0,0.0,0.0,0.0,0.0,0.0,0.0,0.0,0.0,0.0,0.0,0.0,0.0,0.0,0.0,0.0,0.0,0.0,0.0,0.0,0.0,0.0,0.0,0.0,0.0,0.0,0.0,0.0,0.0,0.0,0.0,0.0,0.0,0.0,0.0,0.0,0.0,0.0,0.0,0.0,0.0,0.0,0.0,0.0,0.0,0.0,0.0,0.0,0.0,0.0,0.0,0.0,0.0,0.0,0.0,0.0,0.0,0.0,0.0,0.0,0.0,0.0,0.0,0.0,0.0,0.0,0.0,0.0,0.0,0.0,0.0,0.0,0.0,0.0,0.0,0.0,0.0,0.0,-2.4358,-2.4054,-2.3594,-2.2875,-2.321,-2.3296,-2.2908,-2.3152,-2.3509,-2.3935,0.0,0.0,0.0,0.0,0.0,0.0,0.0,0.0,0.0,0.0,0.0,0.0,0.0,0.0,0.0,0.0,0.0,0.0,0.0,0.0,0.0,0.0,0.0,0.0,0.0,0.0,0.0,0.0,0.0,0.0,0.0,0.0,0.0,0.0,0.0,0.0,0.0,0.0,0.0,0.0,0.0,0.0,0.0,0.0,0.0,0.0,0.0,0.0,0.0,0.0,0.0,0.0,0.0,0.0,0.0,0.0,0.0,0.0,0.0,0.0,0.0,0.0,0.0,0.0,0.0,0.0,0.0,0.0,0.0,0.0,0.0,0.0,0.0,0.0,0.0,0.0,0.0,0.0,0.0,0.0,0.0,0.0,0.0,0.0,0.0,0.0,0.0,0.0,0.0,0.0,0.0,0.0,0.0,0.0,0.0,0.0,0.0,0.0,0.0,0.0,0.0,0.0,-2.5521,-2.4879,-2.4105,-2.3382,-2.3305,-2.3372,-2.3486,-2.4055,-2.4439,-2.4583,0.0,0.0,0.0,0.0,0.0,0.0,0.0,0.0,0.0,0.0,0.0,0.0,0.0,0.0,0.0,0.0,0.0,0.0,0.0,0.0,0.0,0.0,0.0,0.0,0.0,0.0,0.0,0.0,0.0,0.0,0.0,0.0,0.0,0.0,0.0,0.0,0.0,0.0,0.0,0.0,0.0,0.0,0.0,0.0,0.0,0.0,0.0,0.0,0.0,0.0,0.0,0.0,0.0,0.0,0.0,0.0,0.0,0.0,0.0,0.0,-2.6063,-2.5516,0.0,0.0,0.0,0.0,0.0,0.0,0.0,0.0,0.0,0.0,0.0,0.0,0.0,0.0,0.0,0.0,0.0,0.0,0.0,0.0,0.0,0.0,0.0,0.0,0.0,0.0,0.0,0.0,0.0,0.0,0.0,0.0,0.0,0.0,0.0,0.0,0.0,0.0,0.0,0.0,-2.6269,-2.5618,-2.5091,-2.4922,-2.4922,-2.4924,-2.4956,-2.4564,-2.4567,-2.5174,-2.4326,0.0,0.0,0.0,0.0,0.0,0.0,0.0,0.0,0.0,0.0,0.0,0.0,0.0,0.0,0.0,0.0,0.0,0.0,0.0,0.0,0.0,0.0,0.0,0.0,0.0,0.0,0.0,0.0,0.0,0.0,0.0,0.0,0.0,0.0,0.0,0.0,0.0,0.0,0.0,0.0,0.0,0.0,0.0,0.0,0.0,0.0,0.0,0.0,0.0,0.0,0.0,0.0,0.0,0.0,0.0,0.0,0.0,0.0,0.0,-2.6866,-2.6378,0.0,0.0,0.0,0.0,0.0,0.0,0.0,0.0,0.0,0.0,0.0,0.0,0.0,0.0,0.0,0.0,0.0,0.0,0.0,0.0,0.0,0.0,0.0,0.0,0.0,0.0,0.0,0.0,0.0,0.0,0.0,0.0,0.0,0.0,0.0,0.0,0.0,0.0,0.0,0.0,-2.651,-2.5864,-2.5398,-2.5398,-2.5063,-2.4879,-2.4879,-2.4509,-2.4595,-2.5342,-2.5067,0.0,0.0,0.0,0.0,0.0,0.0,0.0,0.0,0.0,0.0,0.0,0.0,0.0,0.0,0.0,0.0,0.0,0.0,0.0,0.0,0.0,0.0,0.0,0.0,0.0,0.0,0.0,0.0,0.0,0.0,0.0,0.0,0.0,0.0,0.0,0.0,0.0,0.0,0.0,0.0,0.0,0.0,0.0,0.0,0.0,0.0,0.0,0.0,0.0,0.0,0.0,0.0,0.0,-2.7956,-2.7779,-2.7779,-2.7899,-2.7944,-2.7944,-2.7944,-2.751,-2.6752,-2.6752,0.0,0.0,0.0,0.0,0.0,0.0,0.0,0.0,0.0,0.0,0.0,0.0,0.0,0.0,0.0,0.0,0.0,0.0,0.0,0.0,0.0,0.0,-2.6752,-2.6752,-2.721,-2.73,-2.6183,0.0,0.0,0.0,0.0,0.0,0.0,0.0,0.0,0.0,0.0,0.0,-2.651,-2.5864,-2.5342,-2.5231,-2.4538,-2.4205,-2.4452,-2.4379,-2.4595,-2.5342,-2.5837,-2.5934,0.0,0.0,0.0,0.0,0.0,0.0,0.0,0.0,0.0,0.0,0.0,0.0,0.0,0.0,0.0,0.0,0.0,0.0,0.0,0.0,0.0,0.0,0.0,0.0,0.0,0.0,0.0,0.0,0.0,0.0,0.0,0.0,-2.8213,-2.7162,0.0,0.0,0.0,0.0,0.0,0.0,0.0,0.0,0.0,0.0,0.0,0.0,0.0,-2.7699,-2.7699,-2.7715,-2.771,-2.7725,-2.8225,-2.8472,-2.8487,-2.9082,-2.9352,-2.9352,-2.9352,0.0,-2.7465,-2.7465,0.0,0.0,0.0,0.0,0.0,0.0,0.0,0.0,0.0,0.0,0.0,0.0,0.0,0.0,0.0,0.0,0.0,0.0,0.0,0.0,0.0,0.0,-2.7465,-2.7465,-2.754,-2.754,-2.7375,-2.7345,-2.7345,-2.7345,-2.7405,-2.7465,0.0,0.0,0.0,0.0,0.0,0.0,-2.659,-2.5864,-2.5147,-2.4509,-2.3738,-2.3783,-2.5147,-2.4681,-2.4595,-2.5342,-2.4908,-2.4839,-2.5384,-2.552,0.0,0.0,0.0,0.0,0.0,0.0,0.0,0.0,0.0,0.0,0.0,0.0,0.0,0.0,0.0,0.0,0.0,0.0,0.0,0.0,0.0,0.0,0.0,0.0,0.0,0.0,0.0,0.0,0.0,-2.8592,-2.8682,-2.7862,-2.8496,-2.9053,0.0,0.0,0.0,0.0,0.0,0.0,0.0,0.0,0.0,-2.9045,-2.8485,-2.8349,-2.8723,-2.8723,-2.8723,-2.8738,-2.9037,-2.9146,-2.916,-2.9472,-2.9606,-2.9606,-2.9606,-2.9277,-2.8693,-2.8334,-2.8143,-2.8113,0.0,0.0,0.0,0.0,-2.76,-2.7555,-2.727,-2.7165,-2.7121,-2.6811,0.0,0.0,0.0,0.0,0.0,0.0,0.0,-2.76,-2.76,-2.76,-2.7705,-2.8053,-2.8143,-2.8274,-2.8648,-2.8723,-2.8498,-2.775,-2.76,-2.772,-2.8109,-2.8143,0.0,0.0,0.0,-2.8618,-2.8284,-2.7973,-2.7631,-2.7298,-2.655,-2.6212,-2.6551,-2.5497,-2.5147,-2.5974,-2.5315,-2.5259,-2.5987,-2.6416,-2.6602,0.0,0.0,0.0,0.0,0.0,0.0,0.0,0.0,0.0,0.0,0.0,0.0,0.0,0.0,0.0,0.0,0.0,0.0,0.0,0.0,0.0,0.0,0.0,0.0,0.0,0.0,0.0,0.0,-2.8948,-2.914,-2.8562,-2.8853,-2.9376,0.0,0.0,0.0,0.0,0.0,0.0,-2.9427,-2.917,-2.9172,-2.9521,-2.9094,-2.9086,-2.9606,-2.9606,-2.9606,-2.9606,-2.9771,-2.9846,-2.9846,-2.9998,-3.0088,-3.0088,-3.0088,-3.0088,-3.0013,-2.919,-2.8846,-2.8801,-2.8319,-2.8109,-2.8109,-2.8109,-2.8109,-2.8109,-2.8109,-2.8109,-2.8109,-2.8109,-2.8109,-2.8109,-2.8109,0.0,0.0,0.0,0.0,-2.8109,-2.8109,-2.8109,-2.8244,-2.8727,-2.8846,-2.8981,-2.9502,-2.9606,-2.9307,-2.8304,-2.8109,-2.8274,-2.8771,-2.8846,0.0,-2.9532,-2.9606,-2.9525,-2.9332,-2.929,-2.9208,-2.9028,-2.8467,-2.8011,-2.7733,-2.6662,-2.6295,-2.6946,-2.6325,-2.6186,-2.6728,-2.7122,-2.7152,-2.6774,0.0,0.0,0.0,0.0,0.0,0.0,0.0,0.0,0.0,0.0,0.0,0.0,0.0,0.0,0.0,0.0,0.0,0.0,0.0,0.0,0.0,0.0,0.0,0.0,0.0,0.0,0.0,0.0,0.0,-2.9406,-2.9361,0.0,0.0,0.0,0.0,-3.0251,-3.0325,-3.0093,-2.9521,-3.0066,-3.0144,-2.96,-2.9562,-2.9577,-2.9606,-2.9606,-2.9606,-2.9621,-3.0178,-3.0447,-3.0477,-3.1107,-3.1406,-3.1406,-3.1406,-3.1406,-3.1316,-3.0058,-2.9562,-2.9562,-2.9517,-2.9502,-2.9502,-2.9502,-2.9502,-2.9502,-2.9502,-2.9502,-2.9502,-2.9502,-2.9502,-2.9502,-2.9502,-2.9502,0.0,0.0,-2.9502,-2.9502,-2.9502,-2.9502,-2.9517,-2.9547,-2.9562,-2.9577,-2.9592,-2.9606,-2.9592,-2.9517,-2.9502,-2.9517,-2.9547,0.0,-2.9577,-2.9606,-2.9606,-2.9317,-2.8551,-2.8452,-2.8183,-2.7476,-2.7388,-2.7636,-2.8296,-2.8281,-2.8253,-2.8309,-2.7748,-2.7403,-2.7458,-2.6881,-2.6878,-2.7534,-2.7555,0.0,0.0,0.0,0.0,0.0,0.0,0.0,0.0,0.0,0.0,0.0,0.0,0.0,0.0,0.0,0.0,0.0,0.0,0.0,0.0,0.0,0.0,0.0,0.0,0.0,0.0,0.0,0.0,-3.058,-3.0598,0.0,-3.092,-3.0447,-3.0192,-3.041,-3.0095,-2.9806,-2.9587,-2.9788,-3.0014,-3.0163,-3.0178,-3.0387,-3.0808,-3.0808,-3.0808,-3.0823,-3.1032,-3.1137,-3.1152,-3.1391,-3.1511,-3.1511,-3.1511,-3.1511,-3.1466,-3.1002,-3.0582,-3.0133,-2.9756,-2.9606,-2.9606,-2.9606,-2.9606,-2.9606,-2.9606,-2.9606,-2.9606,-2.9606,-2.9606,-2.9606,-2.9606,-2.9606,-2.9606,-2.9606,-2.9606,-2.9606,-2.9606,-2.9606,-2.9711,-3.0088,-3.0178,-3.0298,-3.0746,-3.0808,-3.0808,-3.0808,-3.0163,-2.9726,-3.0103,-3.0178,-3.0328,-3.0748,-3.0808,-3.0708,-3.0422,-3.0378,-3.0292,-3.0046,-3.0017,-2.9928,-2.9773,-2.9332,-2.9086,-2.9167,-2.8474,-2.8315,-2.8813,-2.8193,-2.7984,-2.8233,-2.7824,-2.76,0.0,0.0,0.0,0.0,0.0,0.0,0.0,0.0,0.0,0.0,0.0,0.0,0.0,0.0,0.0,0.0,0.0,0.0,0.0,0.0,0.0,0.0,0.0,0.0,0.0,0.0,-3.1368,-3.1578,-3.1276,-3.1124,-3.1323,-3.0638,-3.0288,-3.049,-3.0148,-2.9894,-2.9894,-3.0118,-3.0432,-3.0808,-3.0851,-3.1047,-3.1511,-3.1511,-3.1511,-3.1511,-3.1511,-3.1511,-3.1511,-3.1511,-3.1511,-3.1511,-3.1511,-3.1511,-3.1511,-3.1511,-3.1241,-3.0806,-3.0402,-3.0238,-3.0238,-3.0238,-3.0238,-3.0238,-3.0238,-3.0238,-3.0238,-3.0238,-3.0238,-3.0238,-3.0238,-3.0238,-3.0238,-3.0238,-3.0238,-3.0238,-3.0238,-3.0238,-3.0342,-3.0746,-3.0851,-3.0943,-3.1406,-3.1511,-3.1511,-3.1511,-3.0808,-3.0372,-3.0776,-3.0851,-3.0972,-3.1436,-3.1511,-3.1511,-3.1511,-3.1511,-3.1511,-3.1511,-3.1511,-3.1316,-3.0896,-3.0379,-3.0145,-3.024,-2.9538,-2.935,-2.9894,-2.9265,-2.8831,-2.8607,-2.7944,-2.76,-2.76,0.0,0.0,0.0,0.0,0.0,0.0,0.0,0.0,0.0,0.0,0.0,0.0,0.0,0.0,0.0,0.0,0.0,0.0,0.0,0.0,0.0,0.0,0.0,-3.1626,-3.1424,-3.166,-3.2295,-3.1349,-3.082,-3.1365,-3.0345,-2.9905,-3.049,-3.0546,-3.0537,-3.0537,-3.1137,-3.1511,-3.1511,-3.1511,-3.1511,-3.1511,-3.1511,-3.1511,-3.1525,-3.1525,-3.154,-3.157,-3.157,-3.157,-3.157,-3.157,-3.157,-3.157,-3.157,-3.157,-3.157,-3.1525,-3.1511,-3.1511,-3.1511,-3.1511,-3.1511,-3.1511,-3.1511,-3.1511,-3.1511,-3.1511,-3.1511,-3.1511,-3.1511,-3.1511,-3.1511,-3.1511,-3.1511,-3.1511,-3.1511,-3.1511,-3.1511,-3.1511,-3.1511,-3.1511,-3.1511,-3.1511,-3.1511,-3.1511,-3.1511,-3.1511,-3.1511,-3.1511,-3.1511,-3.1511,0.0,-3.1511,-3.1511,-3.1511,-3.1511,-3.1511,-3.1511,-3.1511,-3.1511,-3.1511,-3.1511,-3.0883,-3.0537,-3.0537,-2.9939,-2.9295,-2.8637,-2.8004,-2.766,-2.766,0.0,0.0,0.0,0.0,0.0,0.0,0.0,0.0,0.0,0.0,0.0,0.0,0.0,0.0,0.0,0.0,0.0,0.0,0.0,0.0,0.0,0.0,-3.2552,-3.2181,-3.2126,-3.1994,-3.1725,-3.1388,-3.1223,-3.1379,-3.1141,-3.1042,-3.1225,-3.1236,-3.1227,-3.1227,-3.1406,-3.1511,-3.1511,-3.1511,-3.1511,-3.1511,-3.1511,-3.175,-3.2213,-3.2213,-3.2497,-3.2961,-3.2961,-3.2961,-3.2961,-3.2961,-3.2961,-3.2961,-3.2961,-3.2961,-3.2856,-3.1869,-3.1511,-3.1511,-3.1511,-3.1511,-3.1511,-3.1511,-3.1511,-3.1511,-3.1511,-3.1511,-3.1511,-3.1511,-3.1511,-3.1511,-3.1511,-3.1511,-3.1511,-3.1511,-3.1511,-3.1511,-3.1511,-3.1511,-3.1511,-3.1511,-3.1511,-3.1511,-3.1511,-3.1511,-3.1511,-3.1511,-3.1511,-3.1511,-3.1511,-3.1511,-3.1511,-3.1511,-3.1511,-3.1511,-3.1511,-3.1511,-3.1511,-3.1511,-3.1511,-3.1511,-3.1511,-3.1331,-3.1227,-3.1227,-3.0612,-2.9953,-2.9352,-2.9157,-2.9052,0.0,0.0,0.0,0.0,0.0,0.0,0.0,0.0,0.0,0.0,0.0,0.0,0.0,0.0,0.0,0.0,0.0,0.0,0.0,0.0,0.0,0.0,-3.3381,-3.3443,-3.2595,-3.2458,-3.2305,-3.194,-3.1903,-3.1778,-3.1467,-3.147,-3.1511,-3.1511,-3.1511,-3.1511,-3.1511,-3.1511,-3.163,-3.1914,-3.1914,-3.2049,-3.2333,-3.2333,-3.2512,-3.2931,-3.2931,-3.3125,-3.3499,-3.3499,-3.3499,-3.3499,-3.3499,-3.3499,-3.3499,-3.3499,-3.3499,-3.3425,0.0,0.0,0.0,0.0,-3.1511,-3.1511,-3.1511,-3.1511,-3.1511,-3.1511,-3.1511,-3.1511,-3.1511,-3.1511,-3.1511,-3.1511,-3.1511,-3.1511,-3.1511,-3.1511,-3.1511,-3.1511,-3.1511,-3.1511,-3.1511,-3.1511,-3.1511,-3.1511,-3.1511,0.0,-3.1511,-3.1511,-3.1511,-3.1511,-3.1511,-3.1511,-3.1511,-3.1511,-3.1511,-3.1511,-3.1511,-3.1511,-3.1511,-3.1511,0.0,0.0,0.0,-3.1511,-3.1511,-3.0866,0.0,0.0,0.0,-2.9606,-2.9606,-2.9606,0.0,0.0,-2.7974,-2.766,0.0,0.0,0.0,0.0,0.0,0.0,0.0,0.0,0.0,0.0,0.0,0.0,0.0,0.0,0.0,0.0,-3.4612,-3.4793,-3.3066,-3.2651,-3.2493,-3.247,-3.2547,-3.2299,-3.1582,-3.1511,-3.154,-3.1615,-3.1615,-3.1645,-3.172,0.0,0.0,0.0,0.0,-3.2901,-3.3484,-3.3499,-3.3529,-3.3604,-3.3604,-3.3649,-3.3724,-3.3724,-3.3724,-3.3724,-3.3724,-3.3724,-3.3724,-3.3724,-3.3724,-3.3709,-3.3559,-3.314,-3.2557,-3.1944,-3.1735,-3.1735,-3.1735,0.0,0.0,-3.1735,-3.1735,-3.1735,-3.1735,-3.1735,-3.1735,-3.1735,-3.1735,-3.1735,-3.1735,-3.1735,-3.1735,-3.1735,-3.1735,-3.1735,-3.1735,-3.1735,-3.1735,-3.1735,-3.1735,-3.1735,-3.1735,-3.16,-3.1511,-3.1511,-3.1511,-3.1511,-3.1511,-3.1511,-3.1511,-3.1511,-3.1511,0.0,-3.1511,-3.1511,-3.1511,-3.1511,-3.1511,-3.1511,-3.1511,-3.0913,-3.0612,-3.0612,-3.0088,-2.9804,-2.9804,-2.9804,-2.9786,-2.9696,-2.9011,-2.8382,0.0,0.0,0.0,0.0,0.0,0.0,0.0,0.0,0.0,0.0,0.0,0.0,0.0,0.0,0.0,-3.4402,-3.4154,-3.4037,-3.4186,-3.328,-3.2365,-3.1781,-3.2244,-3.2299,-3.1582,-3.1511,-3.172,-3.2258,-3.2303,-3.2557,-3.308,-3.311,-3.317,-3.3305,-3.3305,-3.3365,-3.3499,-3.3499,-3.3769,-3.4324,-3.4324,0.0,-3.5115,-3.5115,-3.5115,-3.5115,-3.5115,-3.5115,-3.5115,-3.5115,-3.5115,-3.5011,-3.3918,-3.3425,-3.329,-3.3155,-3.311,-3.311,-3.311,-3.311,-3.311,-3.311,-3.311,-3.311,-3.311,-3.311,0.0,-3.311,-3.311,-3.311,-3.311,-3.311,-3.311,-3.311,-3.311,-3.311,-3.311,-3.311,-3.311,-3.311,-3.311,-3.311,-3.311,-3.2213,-3.1511,-3.1511,-3.1511,-3.1511,-3.1511,-3.1511,-3.1511,-3.1511,-3.1511,-3.1511,-3.1511,-3.1511,-3.1511,-3.1511,-3.1511,-3.1511,-3.1511,-3.1376,-3.1316,-3.1316,-3.1182,-3.1122,-3.1122,-3.1122,-3.0838,-3.0313,-2.9684,-2.9352,0.0,0.0,0.0,0.0,0.0,0.0,0.0,0.0,0.0,0.0,0.0,-3.5076,0.0,0.0,-3.46,-3.46,-3.4037,-3.3582,-3.3582,-3.3313,-3.2826,-3.2132,-3.2064,-3.2031,-3.1988,-3.1989,-3.2273,-3.2961,-3.3006,-3.3155,-3.3484,-3.3864,-3.4076,-3.3994,-3.4349,-3.4531,-3.4502,-3.4502,-3.4666,-3.4996,-3.4996,-3.5175,-3.5504,-3.5504,-3.5504,-3.5504,-3.5504,-3.5504,-3.5504,-3.5504,-3.5504,-3.5429,-3.4756,-3.4292,-3.3948,-3.3619,-3.3499,-3.3499,-3.3499,-3.3499,-3.3499,-3.3499,-3.3499,-3.3499,-3.3499,-3.3499,-3.3499,-3.3499,-3.3499,-3.3499,-3.3499,-3.3499,-3.3499,-3.3499,-3.3499,-3.3499,-3.3499,-3.3499,-3.3499,-3.3499,-3.3499,-3.3499,-3.3499,-3.2946,-3.2378,-3.2049,-3.1989,-3.1869,-3.154,-3.1511,-3.1511,-3.1511,-3.1511,-3.1511,-3.1511,-3.1511,-3.1511,-3.1511,-3.1511,-3.1511,-3.1511,-3.1511,-3.1511,-3.1511,-3.1511,-3.1511,-3.1511,-3.1511,-3.1331,-3.0972,-3.0702,-3.0208,0.0,0.0,0.0,0.0,0.0,0.0,0.0,0.0,-3.56,-3.56,-3.56,-3.5577,-3.5447,-3.4965,-3.46,-3.46,-3.4037,-3.3569,-3.3441,-3.3519,-3.3525,-3.3417,-3.2644,-3.2263,-3.2661,-3.2856,-3.3201,-3.3849,-3.3771,-3.3878,-3.4319,-3.4783,-3.5015,-3.4905,-3.5477,-3.5707,-3.5489,-3.5504,-3.5504,-3.5504,-3.5504,-3.5504,-3.5504,-3.5504,-3.5504,-3.5504,-3.5504,-3.5587,-3.5701,-3.5701,-3.5701,-3.5701,-3.5701,-3.5306,-3.4638,-3.4083,-3.3888,-3.3888,-3.3888,-3.3997,-3.4074,-3.395,-3.3997,-3.4074,-3.3935,-3.3888,-3.3888,-3.3888,-3.3888,-3.3888,-3.3888,-3.3888,-3.3888,-3.3888,-3.3888,-3.3888,-3.3888,-3.3888,-3.3888,-3.3888,-3.3888,-3.3888,-3.3888,-3.3888,-3.3619,-3.2826,-3.2706,-3.2512,-3.1959,-3.1884,-3.1839,-3.1705,-3.169,-3.1645,-3.1511,-3.1511,-3.1511,-3.1511,-3.1511,-3.1511,-3.1511,-3.1511,-3.1511,-3.1511,-3.1511,-3.1511,-3.1511,-3.1511,-3.1511,-3.1511,-3.1511,-3.0943,-3.3085,-3.3761,-3.4269,-3.4353,-3.4928,-3.5481,0.0,0.0,-3.56,-3.56,-3.56,-3.5407,-3.4807,-3.4664,-3.46,-3.46,-3.4037,-3.4255,-3.6081,-3.4693,-3.4207,-3.6097,-3.5158,-3.4081,-3.3457,-3.4041,-3.4715,-3.5318,-3.4758,-3.5263,-3.7202,-3.6715,-3.6383,-3.6384,-3.643,-3.6182,-3.5504,-3.5504,-3.5504,-3.5504,-3.5504,-3.5504,-3.5504,-3.5504,-3.5504,-3.5504,-3.5504,-3.5863,-3.6477,-3.6477,-3.6477,-3.6477,-3.6477,-3.604,-3.5385,-3.531,-3.528,-3.528,-3.528,-3.5699,-3.6168,-3.5507,-3.5715,-3.6122,-3.5475,-3.528,-3.528,-3.528,-3.528,-3.528,-3.528,-3.528,-3.528,-3.528,-3.528,-3.528,-3.528,-3.528,-3.528,-3.528,-3.528,-3.528,-3.528,-3.528,-3.4861,-3.3574,-3.338,-3.3365,-3.329,-3.3275,-3.3051,-3.2437,-3.2378,-3.2138,-3.1555,-3.1511,-3.1511,-3.1511,-3.1511,-3.1511,-3.1511,-3.1511,-3.1511,-3.1511,-3.1511,-3.1511,-3.1511,-3.1511,-3.1511,-3.1511,-3.1511,-3.1421,-3.3829,-3.459,-3.5148,0.0,-3.5363,-3.56,-3.56,-3.56,-3.56,-3.56,-3.56,-3.5515,-3.523,-3.4854,-3.4736,0.0,-3.4644,-3.4706,-3.5974,-3.5412,-3.5322,-3.6653,-3.6694,-3.6298,-3.5493,-3.5291,-3.5675,-3.679,-3.6587,-3.6622,-3.7068,-3.7249,-3.6905,-3.5975,-3.6399,-3.6259,-3.5504,-3.5504,-3.5504,-3.5504,-3.5958,-3.6134,-3.618,-3.6631,-3.6829,-3.6829,-3.6829,-3.6995,-3.7308,-3.7308,-3.7308,-3.7308,-3.7308,-3.7115,-3.6768,-3.6321,-3.6134,-3.6196,-3.6692,-3.7025,-3.7249,-3.6951,-3.6722,-3.6554,-3.6228,-3.5831,-3.5504,-3.5504,-3.5504,-3.5504,-3.5504,-3.5504,-3.5504,-3.5504,-3.5504,-3.5504,-3.5504,-3.5504,-3.5504,-3.5504,-3.5504,-3.5504,-3.5504,-3.5504,-3.531,-3.4756,-3.4322,-3.3918,-3.3544,-3.3499,-3.338,-3.311,-3.308,-3.2826,-3.2123,-3.2079,-3.1914,-3.1525,-3.1511,-3.1511,-3.1511,-3.1511,-3.1511,-3.1511,-3.1511,-3.1511,-3.1511,-3.1511,-3.1511,-3.1511,-3.1511,-3.1511,-3.4658,0.0,0.0,-3.56,-3.56,-3.56,-3.56,-3.56,-3.56,-3.56,-3.56,-3.56,-3.56,-3.5207,-3.5118,-3.5825,-3.5399,-3.5356,-3.6464,-3.6303,-3.6469,-3.7579,-3.7856,-3.7872,-3.7731,-3.6977,-3.6943,-3.8015,-3.7719,-3.7411,-3.7247,-3.7587,-3.7294,-3.6179,-3.6661,-3.6661,-3.6148,-3.5894,-3.5894,-3.6148,-3.6692,-3.6934,-3.6934,-3.7544,-3.7793,-3.7793,-3.7793,-3.7921,-3.8121,-3.8121,-3.8121,-3.8121,-3.8121,-3.7978,-3.7748,-3.7365,-3.7114,-3.6994,-3.7602,-3.7921,-3.8064,-3.7879,-3.7528,-3.7142,-3.6722,-3.6368,-3.6053,-3.5619,-3.5636,-3.575,-3.5554,-3.5504,-3.5504,-3.5504,-3.5504,-3.5504,-3.5504,-3.5504,-3.5504,-3.5504,-3.5504,-3.5504,-3.5504,-3.5504,-3.5504,-3.5504,-3.5085,-3.4592,-3.4113,-3.3888,-3.3769,-3.3769,-3.3604,-3.3305,-3.2826,-3.2781,-3.2497,-3.1809,-3.178,-3.169,-3.1511,-3.1511,-3.1511,-3.1511,-3.1511,-3.1511,-3.1511,-3.1511,-3.1511,-3.1511,-3.1511,-3.1511,0.0,0.0,-3.56,-3.56,-3.56,-3.56,-3.56,-3.56,-3.56,-3.56,-3.56,-3.56,-3.56,-3.5577,-3.5836,-3.6643,-3.6152,-3.6415,-3.8603,-3.7672,-3.7568,-3.9741,-3.8718,-3.837,0.0,-3.9282,-3.8821,-3.8854,-3.7467,-3.7277,-3.8756,-3.8177,-3.7793,-3.7735,-3.7764,-3.7764,-3.7735,-3.698,-3.698,-3.7735,-3.7764,-3.7748,-3.7748,-3.7777,-3.7793,-3.7793,-3.7793,-3.8206,-3.8881,-3.8881,-3.8881,-3.8881,-3.8881,-3.8414,-3.7892,-3.858,-3.8386,-3.7764,-3.7777,-3.829,-3.8745,-3.8035,-3.8274,-3.8564,-3.7038,-3.713,-3.7413,-3.591,-3.6038,-3.6384,-3.5701,-3.5504,-3.5504,-3.5504,-3.5504,-3.5504,-3.5504,-3.5504,-3.5504,-3.5504,-3.5504,-3.5504,-3.5504,-3.5504,-3.5504,-3.5504,-3.5489,-3.5474,-3.5444,-3.4861,-3.4474,-3.4474,-3.3873,-3.3484,-3.3469,-3.3469,-3.3185,-3.2497,-3.2452,-3.2168,-3.1525,-3.1511,-3.1511,-3.1511,-3.1511,-3.1511,-3.1511,-3.1511,-3.1511,-3.1511,-3.1511,-3.1511,-3.56,0.0,-3.56,-3.56,-3.56,-3.56,-3.56,-3.56,-3.56,-3.56,-3.6028,-3.64,-3.64,-3.6806,-3.7229,-3.7483,-3.7737,-3.816,-3.8896,-3.8992,-3.9274,-4.0011,-3.9653,0.0,0.0,0.0,0.0,-3.9662,-3.9209,-3.8924,-3.8908,-3.8663,-3.8318,-3.7822,-3.7793,-3.7793,-3.7793,-3.7544,-3.7544,-3.7822,-3.8302,-3.8816,-3.9332,-3.9332,-3.9332,-3.9332,-3.9332,-3.948,-3.9705,-3.9705,-3.9705,-3.9705,-3.9705,-3.9532,-3.9375,-3.961,-3.9532,-3.9332,-3.9332,-3.9506,-3.9679,-3.9428,-3.9129,-3.8799,-3.827,-3.7962,-3.7573,-3.6523,-3.6415,-3.6446,-3.5701,-3.5504,-3.5504,-3.5504,-3.5504,-3.5504,-3.5504,-3.5504,-3.5504,-3.5504,-3.5504,-3.5504,-3.5504,-3.5504,-3.5504,-3.5504,-3.5504,-3.5504,-3.5504,-3.5295,-3.516,-3.516,-3.4966,-3.4651,-3.4219,-3.4174,-3.3858,-3.32,-3.2766,-3.2392,-3.2168,-3.1735,-3.1511,-3.1511,-3.1511,-3.1511,-3.1511,-3.1511,-3.1511,-3.1511,-3.1511,-3.1511,-3.56,-3.56,-3.56,-3.56,-3.56,-3.56,-3.56,-3.56,-3.56,-3.56,-3.6231,-3.6795,-3.6795,-3.7398,-3.799,-3.8261,-3.8684,-3.9089,-3.9368,-3.9808,-4.0096,-4.0096,-4.0096,-4.0096,0.0,0.0,0.0,-4.0045,-3.9833,-3.9437,-3.8935,-3.8908,-3.869,-3.8206,-3.8189,-3.8346,-3.864,-3.8634,-3.8764,-3.9016,-3.9499,-3.9862,-4.0096,-4.0096,-4.0096,-4.0096,-4.0096,-4.0096,-4.0096,-4.0096,-4.0096,-4.0096,-4.0096,-4.0096,-4.0096,-4.0096,-4.0096,-4.0096,-4.0096,-4.0096,-4.0096,-4.0096,-3.9756,-3.9289,-3.9005,-3.8761,-3.8402,-3.7322,-3.7024,-3.6859,-3.6086,-3.5701,-3.5504,-3.5504,-3.5504,-3.5504,-3.5504,-3.5504,-3.5504,-3.5504,-3.5504,-3.5504,-3.5504,-3.5504,-3.5504,-3.5504,-3.5504,-3.5504,-3.5504,-3.5504,-3.5504,-3.5504,-3.5504,-3.5325,-3.4876,-3.4846,-3.4562,-3.3888,-3.344,-3.311,-3.2871,-3.2198,-3.1854,-3.1854,-3.163,-3.1511,-3.1511,-3.1511,-3.1511,-3.1511,-3.1511,-3.1511,-3.56,-3.56,-3.56,-3.56,-3.56,-3.56,-3.56,-3.56,-3.56,-3.56,-3.6231,-3.6812,0.0,0.0,-3.821,-3.8937,-3.9056,-3.9317,-4.0011,-4.0096,-4.0096,0.0,0.0,0.0,0.0,0.0,0.0,-4.0096,0.0,-3.8962,-3.8962,-3.8962,-3.8962,-3.8962,-3.9011,-3.9365,-4.0163,-4.0184,-4.055,-4.1271,-4.1271,-4.0865,-4.0163,-4.0163,-4.0146,-4.0096,-4.0096,-4.0096,-4.0096,-4.0096,-4.0096,-4.0096,-4.0096,-4.0096,-4.0096,-4.0096,-4.0096,-4.0096,-4.0096,-4.0096,-4.0096,-4.0096,-4.0096,-3.9952,-3.9193,-3.9489,-3.9799,-3.8262,-3.7863,-3.7661,-3.6873,-3.6149,-3.5619,-3.5619,-3.5619,-3.5587,-3.5569,-3.5554,-3.5569,-3.5504,-3.5504,-3.5504,-3.5504,-3.5504,-3.5504,-3.5504,-3.5504,-3.5504,-3.5504,-3.5504,-3.5504,-3.5504,-3.5504,-3.5504,-3.5504,-3.5504,-3.5235,-3.4593,-3.4533,-3.4219,-3.3574,-3.2916,-3.2557,-3.2512,-3.1869,-3.154,-3.1511,-3.1511,-3.1511,-3.1511,-3.1511,-3.1511,-3.56,-3.56,-3.56,-3.56,-3.56,-3.56,-3.56,-3.56,-3.56,-3.56,-3.6231,-3.6981,0.0,0.0,0.0,-3.9706,-3.9825,0.0,-4.0079,-4.0096,0.0,-4.0096,0.0,-4.0096,-4.0096,-4.0096,0.0,0.0,-3.9901,-3.9782,-3.9782,-3.9782,-3.9782,-3.9782,-4.032,-4.0718,-4.0916,-4.1468,-4.1839,-4.2016,-4.2016,-4.1627,-4.0916,-4.0916,-4.0612,-4.0096,-4.0096,-4.0096,-4.0096,-4.0096,-4.0096,-4.0096,-4.0096,-4.0096,-4.0096,-4.0096,-4.0096,-4.0096,-4.0096,-4.0096,-4.0096,-4.0096,-4.0096,-4.007,-3.9876,-3.9927,-3.9901,-3.8897,-3.8635,-3.8442,-3.769,-3.7338,-3.7205,-3.7205,-3.7205,-3.7055,-3.6461,-3.6337,-3.6165,-3.5619,-3.5504,-3.5504,-3.5504,-3.5504,-3.5504,-3.5504,-3.5504,-3.5504,-3.5504,-3.5504,-3.5504,-3.5504,-3.5504,-3.5504,-3.5504,-3.5504,-3.5429,-3.525,-3.4788,-3.4429,-3.4264,-3.3589,-3.3021,-3.2497,-3.2318,-3.1989,-3.1511,-3.1511,-3.1511,-3.1511,-3.1511,-3.1511,-3.56,-3.56,-3.56,-3.56,-3.56,-3.56,-3.56,-3.56,-3.56,-3.56,-3.6231,0.0,0.0,0.0,0.0,0.0,0.0,0.0,-4.0096,-4.0096,-4.0096,0.0,-4.0096,0.0,-4.0096,-4.0096,-4.0096,0.0,-4.0096,-4.0096,-4.0096,-4.0096,-4.0096,-4.0096,-4.0815,-4.1508,-4.2168,-4.2591,-4.2777,-4.2777,-4.2777,-4.2236,-4.1204,-4.1204,-4.0798,-4.0096,-4.0096,-4.0096,-4.0096,-4.0096,-4.0096,-4.0096,-4.0096,-4.0096,-4.0096,-4.0096,-4.0316,-4.0578,-4.0578,-4.0807,-4.0976,-4.0316,-4.0096,-4.0096,-4.0096,-4.0096,-4.002,-3.9542,-3.9166,-3.8799,-3.8386,-3.8035,-3.7793,-3.7793,-3.7793,-3.769,-3.7203,-3.6843,-3.6384,-3.5636,-3.5504,-3.5504,-3.5504,-3.5504,-3.5504,-3.5504,-3.5504,-3.5504,-3.5504,-3.5504,-3.5504,-3.5504,-3.5504,-3.5504,-3.5504,-3.5504,-3.5504,-3.5504,-3.5145,-3.4921,-3.4921,-3.4277,-3.3754,-3.338,-3.2811,-3.2303,-3.1929,-3.1645,-3.1511,-3.1511,-3.1511,-3.1511,-3.56,-3.56,-3.56,-3.56,-3.56,-3.56,-3.56,-3.56,-3.56,-3.56,0.0,-3.688,-3.7618,-3.8362,-3.9089,-3.9842,0.0,-4.0096,-4.0096,-4.0096,-4.0096,-4.0096,-4.0096,-4.0096,-4.0096,-4.0096,-4.0096,-4.0096,-4.0096,-4.0096,-4.0096,-4.0096,-4.0197,-4.04,-4.1102,-4.2168,-4.3555,-4.3572,-4.3572,-4.3572,-4.3572,-4.2817,-4.1491,-4.139,-4.0933,-4.0248,-4.0146,-4.0096,-4.0096,-4.0096,-4.0096,-4.0096,-4.0096,-4.0163,-4.0248,-4.0248,-4.0696,-4.1356,-4.1356,-4.1762,-4.2083,-4.0823,-4.0333,-4.0248,-4.0248,-4.018,-4.0096,-4.0096,-3.961,-3.9059,-3.9059,-3.858,-3.8108,-3.8108,-3.8108,-3.8035,-3.7835,-3.71,-3.6244,-3.5619,-3.5504,-3.5504,-3.5504,-3.5504,-3.5504,-3.5504,-3.5504,-3.5504,-3.5504,-3.5504,-3.5504,-3.5504,-3.5504,-3.5504,-3.5504,-3.5504,-3.5504,-3.5504,-3.5504,-3.5504,-3.5504,-3.4936,-3.4593,-3.4503,-3.3275,-3.2602,-3.2512,-3.1824,-3.1511,-3.1511,-3.1511,-3.1511,-3.56,-3.56,-3.56,-3.56,-3.56,-3.56,-3.56,-3.56,0.0,0.0,-3.5701,-3.6062,-3.684,-3.7584,-3.8328,-3.9056,0.0,0.0,0.0,0.0,-4.0096,0.0,0.0,0.0,0.0,0.0,0.0,0.0,-4.0096,-4.0096,-4.0096,-4.0096,-4.0671,-4.1863,-4.2642,-4.347,-4.4395,-4.4384,-4.4384,-4.4384,-4.4384,-4.391,-4.2987,-4.2388,-4.1711,-4.0984,-4.0367,-4.0096,-4.0096,-4.0096,-4.0096,-4.0096,-4.0096,-4.046,-4.1018,-4.1018,-4.1474,-4.21,-4.21,-4.2185,-4.2252,-4.1982,-4.1508,-4.1018,-4.1018,-4.0578,-4.0096,-4.0096,-3.9995,-3.9901,-3.9901,-3.9799,-3.9705,-3.9705,-3.9705,-3.9332,-3.8064,-3.6692,-3.5636,-3.5537,-3.5504,-3.5504,-3.5504,-3.5504,-3.5504,-3.5504,-3.5504,-3.5504,-3.5504,-3.5504,-3.5504,-3.5504,-3.5504,-3.5504,-3.5504,-3.5504,-3.5504,-3.5504,-3.5504,-3.5504,-3.5504,-3.5385,-3.5055,-3.4518,-3.3724,-3.3051,-3.2512,-3.1824,-3.1511,-3.1511,-3.1511,-3.1511,-3.56,-3.56,-3.56,-3.56,-3.56,-3.56,-3.56,0.0,0.0,0.0,-3.56,-3.5859,-3.666,0.0,0.0,0.0,0.0,0.0,0.0,0.0,0.0,0.0,0.0,0.0,0.0,0.0,0.0,0.0,-4.0096,-4.0096,-4.0096,-4.0468,-4.1153,-4.2252,-4.3031,-4.3792,-4.4598,-4.4615,-4.4615,-4.4615,-4.4615,-4.4181,-4.3358,-4.2642,-4.1897,-4.117,-4.0434,-4.0096,-4.0096,-4.0096,-4.0333,-4.0663,-4.0663,-4.1119,-4.1762,-4.1762,-4.2236,-4.2878,-4.2878,-4.3149,-4.3515,-4.3515,-4.2709,-4.1762,-4.1762,-4.1255,-4.0663,-4.0663,-4.0417,-4.0096,-4.0096,-4.0096,-4.0096,-4.0096,-4.0096,-3.9782,-3.8608,-3.779,-3.716,-3.6768,-3.6352,-3.6054,-3.6054,-3.575,-3.5504,-3.5504,-3.5504,-3.5504,-3.5504,-3.5504,-3.5504,-3.5504,-3.5504,-3.5504,-3.5504,-3.5504,-3.5504,-3.5504,-3.5504,-3.5504,-3.5504,-3.5504,-3.5355,-3.5026,-3.4008,-3.3335,-3.3021,-3.1989,-3.1511,-3.1511,-3.1511,-3.1511,-3.56,-3.56,-3.56,-3.56,-3.56,-3.56,-3.56,-3.56,0.0,0.0,-3.56,-3.5785,-3.6417,0.0,0.0,0.0,0.0,0.0,0.0,0.0,0.0,0.0,0.0,0.0,0.0,0.0,0.0,0.0,-4.0096,-4.0096,-4.0096,-4.095,-4.1694,-4.2269,-4.3183,-4.3961,-4.4598,-4.4615,-4.4615,-4.4615,-4.4615,-4.4265,-4.3639,-4.2709,-4.1982,-4.139,-4.0502,-4.0096,-4.0113,-4.0282,-4.0679,-4.1221,-4.1373,-4.188,-4.254,-4.254,-4.3014,-4.3673,-4.3673,-4.4062,-4.4615,-4.4615,-4.3656,-4.254,-4.254,-4.1914,-4.1204,-4.1204,-4.0663,-4.0096,-4.0096,-4.0096,-4.0096,-4.0096,-3.9969,-3.9662,-3.9032,-3.8772,-3.8497,-3.7892,-3.716,-3.6615,-3.6615,-3.5975,-3.5504,-3.5504,-3.5504,-3.5504,-3.5504,-3.5504,-3.5504,-3.5504,-3.5504,-3.5504,-3.5504,-3.5504,-3.5504,-3.5504,-3.5504,-3.5504,-3.5504,-3.5504,-3.5504,-3.5504,-3.4173,-3.3499,-3.3499,-3.2138,-3.1511,-3.1511,-3.1511,-3.1511,-3.56,-3.56,-3.56,-3.56,-3.56,-3.56,-3.56,0.0,0.0,-3.56,-3.56,-3.5616,-3.5701,-3.6901,-3.7922,0.0,0.0,0.0,0.0,0.0,0.0,0.0,0.0,0.0,0.0,0.0,0.0,0.0,-4.0096,-4.0096,-4.0096,-4.1424,-4.2219,-4.2286,-4.3707,-4.453,-4.4615,-4.4615,-4.4615,-4.4615,-4.4615,-4.4564,-4.4445,-4.2963,-4.2252,-4.2117,-4.0722,-4.0096,-4.0146,-4.0815,-4.1136,-4.1271,-4.1931,-4.2658,-4.3291,-4.3291,-4.3809,-4.4496,-4.4496,-4.4547,-4.4615,-4.4615,-4.4012,-4.3291,-4.3291,-4.2337,-4.1204,-4.1204,-4.0663,-4.0096,-4.0096,-4.0096,-4.0096,-4.0096,-3.9542,-3.8989,-3.8908,-3.8358,-3.7892,-3.7806,-3.716,-3.6615,-3.6615,-3.5975,-3.5504,-3.5504,-3.5504,-3.5504,-3.5504,-3.5504,-3.5504,-3.5504,-3.5504,-3.5504,-3.5504,-3.5504,-3.5504,-3.5504,-3.5504,-3.5504,-3.5504,-3.5504,-3.5504,-3.5504,-3.4173,-3.3499,-3.3499,-3.2138,-3.1511,-3.1511,-3.1511,-3.1511,-3.56,-3.56,-3.56,-3.56,-3.56,-3.56,-3.56,0.0,0.0,-3.56,-3.56,-3.56,-3.56,-3.6502,-3.7381,0.0,0.0,0.0,0.0,0.0,0.0,0.0,0.0,0.0,0.0,0.0,0.0,-4.0096,-4.0096,-4.0096,-4.0096,-4.1491,-4.2286,-4.2286,-4.3819,-4.4615,-4.4615,-4.4615,-4.4615,-4.4615,-4.4615,-4.4615,-4.4564,-4.2997,-4.2286,-4.2236,-4.1204,-4.0747,-4.0815,-4.1559,-4.2117,-4.253,-4.2861,-4.3436,-4.4113,-4.4113,-4.4344,-4.4615,-4.4615,-4.4615,-4.4615,-4.4615,-4.4395,-4.4113,-4.4113,-4.3369,-4.2439,-4.1982,-4.1322,-4.0646,-4.0231,-4.0096,-4.0096,-4.0096,-3.9876,-3.961,-3.961,-3.9385,-3.9199,-3.9199,-3.8536,-3.7844,-3.7381,-3.7086,-3.6707,-3.6228,-3.6554,-3.689,-3.689,-3.689,-3.689,-3.689,-3.6053,-3.5668,-3.6117,-3.6165,-3.6384,-3.686,-3.689,-3.6677,-3.6165,-3.6165,-3.595,-3.5507,-3.4165,-3.3517,-3.3507,-3.2147,-3.1511,-3.1511,-3.1511,-3.1511,-3.56,-3.56,-3.56,-3.56,-3.56,-3.56,0.0,0.0,0.0,-3.56,-3.56,-3.56,-3.56,-3.6265,-3.7049,0.0,0.0,0.0,0.0,0.0,0.0,0.0,0.0,0.0,0.0,0.0,0.0,-4.0096,-4.0096,-4.0096,-4.0096,-4.1271,-4.2066,-4.2286,-4.3555,-4.435,-4.4615,-4.4615,-4.4615,-4.4615,-4.435,-4.4231,-4.4181,-4.2658,-4.1965,-4.1948,-4.1424,-4.1204,-4.1271,-4.2236,-4.2929,-4.3409,-4.3673,-4.4096,-4.4615,-4.4615,-4.4615,-4.4615,-4.4615,-4.4615,-4.4615,-4.4615,-4.4615,-4.4615,-4.4615,-4.4045,-4.3267,-4.2506,-4.161,-4.0747,-4.0231,-4.0096,-4.0096,-4.0096,-4.0096,-4.0096,-4.0096,-4.0096,-4.0096,-4.0096,-3.9463,-3.8745,-3.8218,-3.795,-3.7602,-3.7024,-3.7456,-3.7793,-3.7793,-3.7793,-3.7793,-3.7793,-3.6829,-3.6399,-3.6919,-3.6934,-3.7203,-3.7748,-3.7793,-3.7456,-3.663,-3.6414,-3.5952,-3.5232,-3.3894,-3.3216,-3.3209,-3.2056,-3.1511,-3.1511,-3.1511,-3.1511,-3.56,-3.56,-3.56,-3.56,-3.56,-3.56,0.0,0.0,0.0,-3.56,-3.56,-3.56,-3.56,-3.6265,-3.7049,-3.7787,0.0,0.0,0.0,0.0,0.0,0.0,0.0,0.0,0.0,0.0,0.0,-4.0096,-4.0096,0.0,-4.0096,-4.0798,-4.1542,-4.2269,-4.3031,-4.3792,-4.4598,-4.4615,-4.4615,-4.4598,-4.3792,-4.3409,-4.3358,-4.1897,-4.1221,-4.1221,-4.1204,-4.1204,-4.1322,-4.2767,-4.3375,-4.3477,-4.4265,-4.4598,-4.4615,-4.4615,-4.4615,-4.4615,-4.4615,-4.4615,-4.4615,-4.4615,-4.4615,-4.4615,-4.4615,-4.4045,-4.3267,-4.2506,-4.1221,-4.0113,-4.0096,-4.0096,-4.0096,-4.0096,-4.0096,-4.0096,-4.0096,-4.0096,-4.0096,-4.0096,-3.9463,-3.8908,-3.8881,-3.8274,-3.7793,-3.7777,-3.7777,-3.7793,-3.7793,-3.7793,-3.7793,-3.7793,-3.7793,-3.7793,-3.7793,-3.7793,-3.7777,-3.7793,-3.7793,-3.7456,-3.663,-3.5964,-3.5262,-3.4535,-3.3185,-3.2527,-3.2512,-3.1824,-3.1511,-3.1511,-3.1511,-3.1511,-3.5694,-3.56,-3.56,-3.56,-3.56,-3.56,-3.56,0.0,0.0,-3.56,-3.56,-3.56,-3.56,-3.5825,-3.64,-3.7702,-3.8108,0.0,0.0,0.0,0.0,0.0,0.0,0.0,0.0,0.0,-4.0096,-4.0096,-4.0096,-4.0096,-4.0096,-4.0333,-4.0781,-4.1525,-4.2252,-4.276,-4.3041,-4.3041,-4.3041,-4.3041,-4.276,-4.2642,-4.2625,-4.1644,-4.1204,-4.1238,-4.1728,-4.1948,-4.2066,-4.3589,-4.4215,-4.4231,-4.4513,-4.4615,-4.4615,-4.4615,-4.4615,-4.4615,-4.4615,-4.4615,-4.4615,-4.4615,-4.4615,-4.4615,-4.4615,-4.4429,-4.3944,-4.2658,-4.1247,-4.0096,-4.0096,-4.0096,-4.0096,-4.0096,-4.0096,-4.0096,-4.0096,-4.0096,-4.0096,-4.0096,-3.9901,-3.9558,-3.8989,-3.9156,-3.9199,-3.8635,-3.9022,-3.9375,-3.9375,-3.9375,-3.9375,-3.9375,-3.9375,-3.9156,-3.8608,-3.8553,-3.8789,-3.9348,-3.8469,-3.7577,-3.6769,-3.6061,-3.5335,-3.4582,-3.4144,-3.3945,-3.3912,-3.28,-3.1979,-3.1511,-3.1511,-3.1511,0.0,-3.56,-3.56,-3.56,-3.56,0.0,0.0,0.0,0.0,-3.56,-3.56,-3.56,-3.56,-3.56,-3.609,-3.7652,-3.7905,0.0,0.0,0.0,0.0,0.0,0.0,0.0,0.0,-4.0096,-4.0096,-4.0096,-4.0096,-4.0096,-4.0096,-4.0096,-4.0316,-4.0764,-4.1491,-4.2016,-4.2286,-4.2286,-4.2286,-4.2286,-4.2016,-4.188,-4.1863,-4.1119,-4.0781,-4.0832,-4.1559,-4.2033,0.0,-4.3639,-4.4344,-4.4615,-4.4615,-4.4615,-4.4615,-4.4615,-4.4615,-4.4615,-4.4615,-4.4615,-4.4615,-4.4615,-4.4615,-4.4615,-4.4615,-4.4395,-4.3876,-4.2642,-4.1424,-4.0468,-4.018,-4.0096,-4.0096,-4.0096,-4.0096,-4.0096,-4.0096,-4.0096,-4.0096,-4.0096,-4.0096,-3.9927,-3.9437,-3.9782,-3.9927,-3.9437,-3.9782,-4.0096,-4.0096,-4.0096,-4.0096,-4.0096,-3.9859,-3.9497,-3.8968,-3.9192,-3.9467,-3.9681,-3.8858,-3.7885,-3.6816,-3.6066,-3.5352,-3.4611,-3.434,-3.4092,-3.3836,-3.2734,-3.1951,-3.1511,-3.1511,-3.1511,0.0,0.0,0.0,0.0,0.0,0.0,0.0,0.0,0.0,0.0,0.0,0.0,-3.56,-3.56,-3.609,-3.7652,0.0,0.0,0.0,0.0,0.0,0.0,0.0,0.0,-4.0096,-4.0096,-4.0096,-4.0096,-4.0096,-4.0096,-4.0096,-4.0096,-4.0096,-4.0096,-4.0747,-4.1457,-4.2134,-4.2134,-4.2134,-4.2134,-4.1457,-4.1119,-4.1102,-4.0417,-4.0096,-4.0146,-4.0882,-4.1593,-4.2269,-4.3081,-4.3842,-4.453,-4.4581,-4.4615,-4.4615,-4.4615,-4.4615,-4.4615,-4.4615,-4.4615,-4.4615,-4.4615,-4.4615,-4.4615,-4.4615,-4.4045,-4.3267,-4.2506,-4.1762,-4.1035,-4.0299,-4.0096,-4.0096,-4.0096,-4.0096,-4.0096,-4.0096,-4.0096,-4.0096,-4.0096,-4.0096,-4.0096,-4.0096,-4.0096,-4.0096,-4.0096,-4.0096,-4.0096,-4.0096,-4.0062,-4.0028,-4.0028,-3.9343,-3.892,-3.892,-3.9554,-3.9656,-3.8954,-3.8828,-3.812,-3.6692,-3.5976,-3.5297,-3.4611,-3.3995,-3.3339,-3.2668,-3.1923,-3.1553,-3.1511,-3.1511,-3.1511,-3.5994,0.0,-3.5694,-3.6118,-3.5898,0.0,0.0,0.0,0.0,0.0,0.0,0.0,0.0,0.0,0.0,0.0,0.0,0.0,0.0,0.0,0.0,0.0,0.0,-4.0096,-4.0096,-4.0096,-4.0096,-4.0096,-4.0096,-4.0096,-4.0096,-4.0096,-4.0096,-4.0096,-4.0282,-4.0451,-4.062,-4.062,-4.062,-4.062,-4.0451,-4.0367,-4.0367,-4.018,-4.0096,-4.0146,-4.0882,-4.1305,-4.1559,-4.2851,-4.3494,-4.3741,-4.435,-4.4615,-4.4615,-4.4615,-4.4615,-4.4615,-4.4615,-4.4615,-4.4615,-4.4615,-4.4615,-4.4615,-4.4615,-4.4045,-4.3267,-4.2506,-4.1762,-4.1035,-4.0299,-4.0096,-4.0096,-4.0096,-4.0096,-4.0096,-4.0096,-4.0096,-4.0096,-4.0096,-4.0096,-4.0096,-4.0096,-4.0096,-4.0096,-4.0096,-4.0096,-4.0096,-4.0096,-3.9622,-3.9242,-3.9242,-3.8599,-3.8159,-3.8159,-3.8328,-3.8345,-3.8176,-3.7093,-3.6299,-3.5943,-3.5243,-3.4791,-3.4603,-3.444,-3.4037,-3.3365,-3.268,-3.2064,-3.1511,-3.1511,-3.1511,-3.5929,-3.591,-3.5739,-3.6266,-3.6006,-3.56,0.0,0.0,0.0,0.0,0.0,0.0,0.0,0.0,0.0,0.0,0.0,0.0,0.0,0.0,0.0,0.0,0.0,-4.0096,0.0,-4.0096,-4.0096,-4.0096,-4.0096,-4.0096,-4.0096,-4.0096,-4.0096,-4.0096,-4.0096,-4.0096,-4.0096,-4.0096,-4.0096,-4.0096,-4.0096,-4.0096,-4.0096,-4.0096,-4.0096,-4.013,-4.051,-4.0882,-4.1271,-4.2066,-4.2591,-4.298,-4.3758,-4.4045,-4.4079,-4.4479,-4.4615,-4.4615,-4.4615,-4.4615,-4.4615,-4.4615,-4.4615,-4.4547,-4.4147,-4.3758,-4.3267,-4.2506,-4.1762,-4.1035,-4.0299,-4.0096,-4.0096,-4.0096,-4.0096,-4.0096,-4.0096,-4.0096,-4.0096,-4.0096,-4.0096,-4.0096,-4.0096,-4.0096,-4.0096,-4.0096,-4.0096,-4.0096,-4.0096,-3.9469,-3.8988,-3.8988,-3.8041,-3.7398,-3.7398,-3.706,-3.7009,-3.7364,-3.6652,-3.6043,-3.5668,-3.5268,-3.5052,-3.5052,-3.4759,-3.4431,-3.4062,-3.3391,-3.2853,-3.2446,-3.2446,-3.2446,-3.5847,-3.5853,-3.5761,-3.6374,-3.6054,-3.56,0.0,0.0,0.0,0.0,0.0,0.0,0.0,0.0,0.0,0.0,0.0,0.0,0.0,0.0,0.0,0.0,0.0,0.0,-4.0096,-4.0096,-4.0096,-4.0096,-4.0096,-4.0096,-4.0096,-4.0096,-4.0096,-4.0096,-4.0096,-4.0096,-4.0096,-4.0096,-4.0096,-4.0096,-4.0096,-4.0096,-4.0096,-4.0096,-4.0096,-4.0096,-4.0096,-4.0443,-4.1035,-4.1153,-4.1576,-4.2202,-4.2946,-4.325,-4.3318,-4.3995,-4.4327,-4.4418,-4.4564,-4.4615,-4.4581,-4.4479,-4.4429,-4.4265,-4.3487,-4.3139,-4.2919,-4.2303,-4.1677,-4.1035,-4.0299,-4.0096,-4.0096,-4.0096,-4.0096,-4.0096,-4.0096,-4.0096,-4.0096,-4.0096,-4.0096,-4.0096,-4.0096,-4.0096,-4.0096,-4.0096,-4.0096,-4.0096,-4.0096,-3.9343,-3.8819,-3.8819,-3.7483,-3.6626,-3.6626,-3.5994,-3.5887,-3.6552,-3.6626,-3.6315,-3.5616,-3.56,-3.56,-3.56,-3.4941,-3.46,-3.46,-3.3937,-3.3582,-3.3582,-3.3582,-3.3582,-3.6251,-3.6112,-3.5832,-3.6825,-3.6316,-3.56,0.0,0.0,0.0,0.0,0.0,0.0,0.0,0.0,0.0,0.0,0.0,0.0,0.0,0.0,-4.0096,-4.0096,0.0,-4.0096,-4.0096,-4.0096,-4.0096,-4.0096,-4.0096,-4.0096,-4.0096,-4.0096,-4.0096,-4.0096,-4.0096,-4.0096,-4.0096,-4.0096,-4.0096,-4.0096,-4.0096,-4.0096,-4.0096,-4.0096,-4.0096,-4.0096,-4.0096,-4.0163,-4.0333,-4.0933,-4.1271,-4.1441,-4.2185,-4.2472,-4.2472,-4.2608,-4.3047,-4.369,-4.435,-4.4615,-4.4496,-4.3809,-4.3589,-4.3453,-4.2692,-4.2033,-4.1508,-4.1407,-4.1288,-4.1035,-4.0299,-4.0096,-4.0096,-4.0096,-4.0096,-4.0096,-4.0096,-4.0096,-4.0096,-4.0096,-4.0096,-4.0096,-4.0096,-4.0096,-4.0096,-4.0096,-4.0096,-4.0096,-4.0096,-3.8903,-3.8075,-3.8075,-3.6705,-3.5769,-3.5769,-3.5667,-3.565,-3.5769,-3.5769,-3.5718,-3.56,-3.56,-3.56,-3.56,-3.4941,-3.46,-3.46,-3.3937,-3.3582,-3.3582,-3.3582,-3.3582,-3.5848,-3.5875,-3.5854,-3.6923,-3.6399,-3.56,0.0,0.0,0.0,0.0,0.0,0.0,0.0,0.0,0.0,0.0,0.0,-3.9656,-4.0045,-4.0096,-4.0096,0.0,0.0,-4.0096,-4.0096,-4.0096,-4.0096,-4.0096,-4.0096,-4.0096,-4.0096,-4.0096,-4.0096,-4.0096,-4.0096,-4.0096,-4.0096,-4.0096,-4.0096,-4.0096,-4.0096,-4.0096,-4.0096,-4.0096,-4.0096,-4.0096,-4.0096,-4.0096,-4.013,-4.0485,-4.0595,-4.0679,-4.1407,-4.1711,-4.1745,-4.2151,-4.2506,-4.2861,-4.3217,-4.3379,-4.3284,-4.2929,-4.2811,-4.2675,-4.1931,-4.1474,-4.1119,-4.0713,-4.0595,-4.0536,-4.0197,-4.0096,-4.0096,-4.0096,-4.0096,-4.0096,-4.0096,-4.0096,-4.0096,-4.0096,-4.0096,-4.0096,-4.0096,-4.0096,-4.0096,-4.0096,-4.0096,-4.0096,-4.0096,-3.8802,-3.7905,-3.7905,-3.6512,-3.56,-3.56,-3.56,-3.56,-3.56,-3.56,-3.56,-3.56,-3.56,-3.56,-3.56,-3.5316,-3.5144,-3.5144,-3.4823,-3.4681,-3.4681,-3.4681,-3.4681,-3.5828,-3.5925,-3.6011,-3.6962,0.0,0.0,0.0,0.0,0.0,0.0,0.0,0.0,0.0,0.0,0.0,0.0,-3.8514,-3.9242,-3.9994,-4.0096,-4.0096,-4.0096,-4.0096,-4.0096,-4.0096,-4.0096,-4.0096,-4.0096,-4.0096,-4.0096,-4.0096,-4.0096,-4.0096,-4.0096,-4.0096,-4.0096,-4.0096,-4.0096,-4.0096,-4.0096,-4.0096,-4.0096,-4.0096,-4.0096,-4.0096,-4.0096,-4.0096,-4.0096,-4.0096,-4.0096,-4.0096,-4.0163,-4.0713,-4.0933,-4.1035,-4.1762,-4.2033,-4.2066,-4.2236,-4.2286,-4.2252,-4.21,-4.2033,-4.1897,-4.117,-4.0933,-4.0815,-4.0265,-4.0096,-4.0096,-4.0096,-4.0096,-4.0096,-4.0096,-4.0096,-4.0096,-4.0096,-4.0096,-4.0096,-4.0096,-4.0096,-4.0096,-4.0096,-4.0096,-4.0096,-4.0096,-4.0096,-4.0096,-4.0096,-3.8802,-3.7905,-3.7905,-3.6512,-3.56,-3.56,-3.56,-3.56,-3.56,-3.56,-3.56,-3.56,-3.56,-3.56,-3.56,-3.56,-3.56,-3.56,-3.56,-3.56,-3.56,-3.56,-3.56,-3.7013,-3.6845,-3.6478,-3.7076,-3.6399,0.0,0.0,0.0,0.0,-3.56,0.0,0.0,0.0,0.0,0.0,0.0,-3.8514,-3.9242,-3.9994,0.0,-4.0096,-4.0096,-4.0096,-4.0096,-4.0096,-4.0096,-4.0096,-4.0096,-4.0096,-4.0096,-4.0096,-4.0096,-4.0096,-4.0096,-4.0096,-4.0096,-4.0096,-4.0096,-4.0096,-4.0096,-4.0096,-4.0096,-4.0096,-4.0096,-4.0096,-4.0096,-4.0096,-4.0096,-4.0096,-4.0096,-4.0096,-4.0113,-4.0163,-4.018,-4.0282,-4.1001,-4.1288,-4.139,-4.2049,-4.2286,-4.2185,-4.1508,-4.1288,-4.1136,-4.0417,-4.018,-4.018,-4.0113,-4.0096,-4.0096,-4.0096,-4.0096,-4.0096,-4.0096,-4.0096,-4.0096,-4.0096,-4.0096,-4.0096,-4.0096,-4.0096,-4.0096,-4.0096,-4.0096,-4.0096,-4.0096,-4.0096,-4.0096,-4.0096,-3.8802,-3.7905,-3.7905,-3.6512,-3.56,-3.56,-3.56,-3.56,-3.56,-3.56,-3.56,-3.56,-3.56,-3.56,-3.56,-3.56,-3.56,-3.56,-3.56,-3.56,-3.56,-3.56,-3.56,-3.7134,-3.6952,-3.6539,-3.7076,0.0,0.0,0.0,0.0,-3.5989,-3.5672,-3.56,0.0,0.0,0.0,-3.6468,-3.7702,-3.8142,-3.8717,-3.9943,-4.0096,-4.0096,-4.0096,-4.0096,-4.0096,-4.0096,-4.0096,-4.0096,-4.0096,-4.0096,-4.0096,-4.0096,-4.0096,-4.0096,-4.0096,-4.0096,-4.0096,-4.0096,-4.0096,-4.0096,-4.0096,-4.0096,-4.0096,-4.0096,-4.0096,-4.0096,-4.0096,-4.0096,-4.0096,-4.0096,-4.0096,-4.0096,-4.0096,-4.0096,-4.0096,-4.013,-4.0417,-4.0536,-4.0544,-4.084,-4.0942,-4.0891,-4.062,-4.0536,-4.0468,-4.018,-4.0096,-4.0096,-4.0096,-4.0096,-4.0096,-4.0096,-4.0096,-4.0096,-4.0096,-4.0096,-4.0096,-4.0096,-4.0096,-4.0096,-4.0096,-4.0096,-4.0096,-4.0096,-4.0096,-4.0096,-4.0096,-4.0096,-4.0096,-4.0096,-3.9208,-3.8413,-3.7956,-3.6512,-3.56,-3.56,-3.56,-3.56,-3.56,-3.56,-3.56,-3.56,-3.56,-3.56,-3.56,-3.56,-3.56,-3.56,-3.56,-3.56,-3.56,-3.56,-3.56,-3.7255,-3.7023,-3.6498,0.0,0.0,0.0,0.0,0.0,0.0,-3.5717,-3.56,0.0,0.0,0.0,0.0,0.0,-3.7905,-3.8413,-3.9893,-4.0096,-4.0096,-4.0096,-4.0096,-4.0096,-4.0096,-4.0096,-4.0096,-4.0096,-4.0096,-4.0096,-4.0096,-4.0096,-4.0096,-4.0096,-4.0096,-4.0096,-4.0096,-4.0096,-4.0096,-4.0096,-4.0096,-4.0096,-4.0096,-4.0096,-4.0096,-4.0096,-4.0096,-4.0096,-4.0096,-4.0096,-4.0096,-4.0096,-4.0096,-4.0096,-4.0096,-4.0096,-4.0096,-4.0096,-4.0096,-4.0096,-4.0096,-4.0096,-4.0096,-4.0096,-4.0096,-4.0096,-4.0096,-4.0096,-4.0096,-4.0096,-4.0096,-4.0096,-4.0096,-4.0096,-4.0096,-4.0096,-4.0096,-4.0096,-4.0096,-4.0096,-4.0096,-4.0096,-4.0096,-4.0096,-4.0096,-4.0096,-4.0096,-4.0096,-4.0096,-3.9469,-3.8616,-3.7652,-3.6383,-3.56,-3.56,-3.56,-3.56,-3.56,-3.56,-3.56,-3.56,-3.56,-3.56,-3.56,-3.56,-3.56,-3.56,-3.56,-3.56,-3.56,-3.56,-3.56,-3.7478,-3.7174,-3.6395,0.0,0.0,0.0,0.0,0.0,0.0,0.0,0.0,-3.56,-3.56,0.0,0.0,-3.7652,-3.7905,-3.8413,-3.9893,-4.0096,-4.0096,-4.0096,-4.0096,-4.0096,-4.0096,-4.0096,-4.0096,-4.0096,-4.0096,-4.0096,-4.0096,-4.0096,-4.0096,-4.0096,-4.0096,-4.0096,-4.0096,-4.0096,-4.0096,-4.0096,-4.0096,-4.0096,-4.0096,-4.0096,-4.0096,-4.0096,-4.0096,-4.0096,-4.0096,-4.0096,-4.0096,-4.0096,-4.0096,-4.0096,-4.0096,-4.0096,-4.0096,-4.0096,-4.0096,-4.0096,-4.0096,-4.0096,-4.0096,-4.0096,-4.0096,-4.0096,-4.0096,-4.0096,-4.0096,-4.0096,-4.0096,-4.0096,-4.0096,-4.0096,-4.0096,-4.0096,-4.0096,-4.0096,-4.0096,-4.0096,-4.0096,-4.0096,-4.0096,-4.0096,-4.0096,-4.0096,-4.0096,-4.0096,-4.0096,-3.9445,-3.8413,-3.6981,-3.6079,-3.56,-3.56,-3.56,-3.56,-3.56,-3.56,-3.56,-3.56,-3.56,-3.56,-3.56,-3.56,-3.56,-3.56,-3.56,-3.56,-3.56,-3.56,-3.56,-3.8172,-3.7738,0.0,0.0,0.0,0.0,0.0,0.0,0.0,0.0,0.0,-3.56,-3.56,0.0,0.0,-3.6958,-3.755,-3.8227,-3.9174,-3.9774,-4.0096,-4.0096,-4.0096,-4.0096,-4.0096,-4.0096,-4.0096,-4.0096,-4.0096,-4.0096,-4.0096,-4.0096,-4.0096,-4.0096,-4.0096,-4.0096,-4.0096,-4.0096,-4.0096,-4.0096,-4.0096,-4.0096,-4.0096,-4.0096,-4.0096,-4.0096,-4.0096,-4.0096,-4.0096,-4.0096,-4.0096,-4.0096,-4.0096,-4.0096,-4.0096,-4.0096,-4.0096,-4.0096,-4.0096,-4.0096,-4.0096,-4.0096,-4.0096,-4.0096,-4.0096,-4.0096,-4.0096,-4.0096,-4.0096,-4.0096,-4.0096,-4.0096,-4.0096,-4.0096,-4.0096,-4.0096,-4.0096,-4.0096,-4.0096,-4.0096,-4.0096,-4.0096,-4.0096,-4.0096,-4.0096,-4.0096,-4.0096,-4.0096,-4.0096,-3.8988,-3.8058,-3.7618,-3.6377,-3.56,-3.56,-3.56,-3.56,-3.56,-3.56,-3.56,-3.56,-3.56,-3.56,-3.56,-3.56,-3.56,-3.56,-3.56,-3.56,-3.56,-3.56,-3.56,-3.7627,0.0,0.0,0.0,0.0,0.0,0.0,0.0,0.0,0.0,0.0,-3.5854,-3.5644,-3.56,0.0,-3.6677,-3.7415,-3.8238,-3.9197,-3.9939,-4.0497,-4.0761,-4.0767,-4.0767,-4.0767,-4.0767,-4.0767,-4.0767,-4.0767,-4.0767,-4.0767,-4.0767,-4.0767,-4.0767,-4.0767,-4.0666,-4.0417,-4.0417,-4.0311,-4.0096,-4.0096,-4.0096,-4.0096,-4.0096,-4.0096,-4.0096,-4.0096,-4.0096,-4.0096,-4.0096,-4.0096,-4.0096,-4.0096,-4.0096,-4.0096,-4.0096,-4.0096,-4.0096,-4.0096,-4.0096,-4.0096,-4.0096,-4.0096,-4.0096,-4.0096,-4.0096,-4.0096,-4.0096,-4.0096,-4.0096,-4.0096,-4.0096,-4.0096,-4.0096,-4.0096,-4.0096,-4.0096,-4.0096,-4.0096,-4.0096,-4.0096,-4.0096,-4.0096,-4.0096,-4.0096,-4.0096,-4.0096,-4.0096,-4.0096,-3.8802,-3.7905,-3.7905,-3.6512,-3.56,-3.56,-3.56,-3.56,-3.56,-3.56,-3.56,-3.56,-3.56,-3.56,-3.56,-3.56,-3.56,-3.56,-3.56,-3.56,-3.56,-3.56,-3.56,-3.6434,0.0,0.0,0.0,0.0,0.0,0.0,0.0,-3.6333,-3.5854,0.0,-3.6266,-3.5832,-3.5717,-3.5909,-3.6644,-3.739,-3.8267,-3.9468,-4.0308,-4.1023,-4.1625,-4.1768,-4.181,-4.181,-4.181,-4.181,-4.181,-4.181,-4.181,-4.181,-4.181,-4.181,-4.181,-4.181,-4.1534,-4.0995,-4.0972,-4.075,-4.0254,-4.0254,-4.0254,-4.0254,-4.0146,-4.0096,-4.0096,-4.0096,-4.0096,-4.0096,-4.0096,-4.0096,-4.0096,-4.0096,-4.0096,-4.0096,-4.0096,-4.0096,-4.0096,-4.0096,-4.0096,-4.0096,-4.0096,-4.0096,-4.0096,-4.0096,-4.0096,-4.0096,-4.0096,-4.0096,-4.0096,-4.0096,-4.0096,-4.0096,-4.0096,-4.0096,-4.0096,-4.0096,-4.0096,-4.0096,-4.0096,-4.0096,-4.0096,-4.0096,-4.0096,-4.0096,-4.0096,-4.0096,-4.0096,-4.0096,-3.8802,-3.7905,-3.7905,-3.6512,-3.56,-3.56,-3.56,-3.56,-3.56,-3.56,-3.56,-3.56,-3.56,-3.56,-3.56,-3.56,-3.56,-3.56,-3.56,-3.56,-3.56,-3.56,-3.56,0.0,-3.7211,0.0,0.0,0.0,0.0,0.0,0.0,0.0,-3.6884,-3.6603,-3.6498,-3.6786,-3.6501,-3.6276,-3.6469,-3.7103,-3.7767,-3.8227,-3.9307,-4.029,-4.1018,-4.1512,-4.181,-4.181,-4.181,-4.181,-4.181,-4.181,-4.181,-4.181,-4.181,-4.181,-4.181,-4.181,-4.1729,-4.1599,-4.1599,-4.1534,-4.1424,-4.1424,-4.1424,-4.1397,-4.0514,-4.0096,-4.0096,-4.0096,-4.0096,-4.0096,-4.0096,-4.0096,-4.0096,-4.0096,-4.0096,-4.0096,-4.0096,-4.0096,-4.0096,-4.0096,-4.0096,-4.0096,-4.0096,-4.0096,-4.0096,-4.0096,-4.0096,-4.0096,-4.0096,-4.0096,-4.0096,-4.0096,-4.0096,-4.0096,-4.0096,-4.0096,-4.0096,-4.0096,-4.0096,-4.0096,-4.0096,-4.0096,-4.0096,-4.0096,-4.0096,-4.0096,-4.0096,-4.0096,-4.0096,-4.0096,-3.8802,-3.7905,-3.7905,-3.6512,-3.56,-3.56,-3.56,-3.56,-3.56,-3.56,-3.56,-3.56,-3.56,-3.56,-3.56,-3.56,-3.56,-3.56,-3.56,-3.56,-3.56,-3.56,-3.56,0.0,0.0,0.0,0.0,0.0,0.0,0.0,0.0,0.0,-3.7861,-3.7488,-3.7117,-3.7192,-3.698,-3.6783,-3.6783,-3.7393,-3.802,-3.8423,-3.9673,-4.0828,-4.1482,-4.2192,-4.262,-4.262,-4.262,-4.262,-4.262,-4.262,-4.262,-4.262,-4.262,-4.262,-4.262,-4.262,-4.2286,-4.1634,-4.1596,-4.1492,-4.122,-4.122,-4.1435,-4.1789,-4.1173,-4.0767,-4.0473,-4.0473,-4.0473,-4.0473,-4.0204,-4.0096,-4.0096,-4.0096,-4.0096,-4.0096,-4.0096,-4.0096,-4.0096,-4.0096,-4.0096,-4.0096,-4.0096,-4.0096,-4.0096,-4.0096,-4.0096,-4.0146,-4.0417,-4.0473,-4.0473,-4.0473,-4.0473,-4.0417,-4.0171,-4.0096,-4.0096,-4.0096,-4.0096,-4.0096,-4.0096,-4.0096,-4.0096,-4.0096,-4.0096,-4.0096,-4.0096,-4.0096,-4.0096,-4.0096,-3.8802,-3.7905,-3.7905,-3.6512,-3.56,-3.56,-3.56,-3.56,-3.56,-3.56,-3.56,-3.56,-3.56,-3.56,-3.56,-3.56,-3.56,-3.56,-3.56,-3.56,-3.56,-3.56,-3.56,0.0,0.0,0.0,0.0,0.0,0.0,0.0,0.0,0.0,-3.8578,-3.8283,-3.7807,-3.7524,-3.7378,-3.7323,-3.7323,-3.7836,-3.8393,-3.8888,-4.013,-4.1234,-4.186,-4.273,-4.3277,-4.3277,-4.3423,-4.3515,-4.3515,-4.3515,-4.3515,-4.3515,-4.3369,-4.3277,-4.3277,-4.3149,-4.2536,-4.1361,-4.1361,-4.1137,-4.0689,-4.0689,-4.0946,-4.1403,-4.1733,-4.1541,-4.0903,-4.0903,-4.085,-4.0726,-4.0286,-4.0096,-4.0096,-4.0096,-4.0096,-4.0096,-4.0096,-4.0096,-4.0096,-4.0096,-4.0096,-4.0138,-4.0204,-4.0254,-4.0254,-4.036,-4.0385,-4.049,-4.0943,-4.1064,-4.1041,-4.0926,-4.0903,-4.0756,-4.0229,-4.0096,-4.0096,-4.0096,-4.0096,-4.0096,-4.0096,-4.0096,-4.0096,-4.0096,-4.0096,-4.0096,-4.0096,-4.0096,-4.0096,-4.0096,-3.8802,-3.7905,-3.7905,-3.6512,-3.56,-3.56,-3.56,-3.56,-3.56,-3.56,-3.56,-3.56,-3.56,-3.56,-3.56,-3.56,-3.56,-3.56,-3.56,-3.56,-3.56,-3.56,-3.56,0.0,0.0,0.0,0.0,0.0,0.0,0.0,0.0,0.0,0.0,-3.8283,-3.8013,-3.8433,-3.8117,-3.7807,-3.7807,-3.788,-3.8062,-3.8351,-3.8976,-3.9679,-4.0384,-4.1646,-4.2451,-4.2451,-4.3075,-4.3515,-4.3515,-4.3515,-4.3515,-4.3515,-4.2837,-4.2451,-4.2451,-4.1791,-4.1335,-4.1141,-4.1141,-4.1107,-4.104,-4.104,-4.0601,-3.9868,-4.1488,-4.176,-4.0903,-4.0903,-4.0631,-4.0204,-4.0121,-4.0096,-4.0096,-4.0096,-4.0096,-4.0096,-4.0096,-4.0096,-4.0096,-4.0096,-4.0096,-4.0196,-4.0631,-4.0803,-4.0897,-4.1402,-4.1556,-4.1595,-4.1643,-4.1686,-4.1556,-4.1041,-4.0903,-4.0756,-4.0229,-4.0096,-4.0096,-4.0096,-4.0096,-4.0096,-4.0096,-4.0096,-4.0096,-4.0096,-4.0096,-4.0096,-4.0096,-4.0096,-4.0096,-4.0096,-3.8802,-3.7905,-3.7905,-3.6512,-3.56,-3.56,-3.56,-3.56,-3.56,-3.56,-3.56,-3.56,-3.56,-3.56,-3.56,-3.56,-3.56,-3.56,-3.56,-3.56,-3.56,-3.56,-3.56,0.0,0.0,0.0,0.0,0.0,0.0,0.0,0.0,0.0,-3.8643,-3.8496,-3.8415,-3.8676,-3.8515,-3.835,-3.835,-3.835,-3.8394,-3.8521,-3.9126,-3.9679,-3.9991,-4.0979,-4.1627,-4.1627,-4.1956,-4.2158,-4.2158,-4.2158,-4.2158,-4.2158,-4.1827,-4.1627,-4.1627,-4.1279,-4.0875,-4.0432,-4.0432,-4.0432,-4.0432,-4.0875,-4.084,-4.042,-4.1258,-4.1138,-4.0342,-4.1445,-4.1595,-4.1053,-4.1053,-4.1053,-4.1053,-4.1053,-4.1053,-4.1053,-4.1053,-4.1053,-4.1053,-4.1053,-4.1053,-4.1099,-4.1335,-4.1402,-4.1446,-4.1707,-4.181,-4.1874,-4.2203,-4.2302,-4.2244,-4.1979,-4.1916,-4.1768,-4.119,-4.1053,-4.1053,-4.1053,-4.0774,-4.0648,-4.0984,-4.1053,-4.1053,-4.1053,-4.1053,-4.1053,-4.1053,-4.075,-4.0552,-4.0552,-3.901,-3.7905,-3.7905,-3.6512,-3.56,-3.56,-3.56,-3.56,-3.56,-3.56,-3.56,-3.56,-3.56,-3.56,-3.56,-3.56,-3.56,-3.56,-3.56,-3.56,-3.56,-3.56,-3.56,0.0,0.0,0.0,0.0,0.0,0.0,0.0,0.0,-3.8707,0.0,-3.8707,-3.8707,-3.8707,-3.8707,-3.8707,-3.8707,-3.8707,-3.8707,-3.8707,-3.9221,-3.9588,-3.9588,-4.0304,-4.0799,-4.0799,-4.0967,-4.1095,-4.1095,-4.1095,-4.1095,-4.1095,-4.0912,-4.0799,-4.0799,-4.06,-4.0212,-3.9588,-3.9588,-3.9588,-3.9588,-4.0212,-4.0423,-4.0306,-4.0624,-4.0293,-3.9521,-4.1294,-4.1733,-4.1188,-4.1188,-4.1311,-4.1506,-4.1506,-4.1612,-4.181,-4.181,-4.181,-4.181,-4.181,-4.181,-4.1832,-4.1979,-4.2021,-4.2041,-4.2185,-4.2226,-4.2344,-4.2789,-4.2902,-4.2883,-4.275,-4.2711,-4.2539,-4.1937,-4.181,-4.181,-4.181,-4.1446,-4.1268,-4.1707,-4.181,-4.181,-4.181,-4.181,-4.181,-4.181,-4.1291,-4.0903,-4.0903,-3.9142,-3.7905,-3.7905,-3.6512,-3.56,-3.56,-3.56,-3.56,-3.56,-3.56,-3.56,-3.56,-3.56,-3.56,-3.56,-3.56,-3.56,-3.56,-3.56,-3.56,-3.56,-3.56,-3.56,0.0,0.0,0.0,0.0,0.0,0.0,0.0,0.0,0.0,-3.8707,-3.8707,-3.8707,-3.8707,-3.8707,-3.8707,-3.8707,-3.8707,-3.8707,-3.8707,-3.8744,-3.8762,-3.8762,-3.946,-3.9955,-3.9955,-4.0653,-4.1095,-4.1095,-4.1095,-4.1095,-4.1095,-4.0377,-3.9955,-3.9955,-3.9221,-3.8799,-3.8762,-3.8762,-3.8762,-3.8762,-3.8799,-3.8577,-3.8107,-3.9376,-3.9368,-3.8459,-3.9746,-4.0029,-3.9517,-3.9517,-3.9958,-4.0651,-4.0651,-4.1131,-4.181,-4.181,-4.181,-4.181,-4.181,-4.181,-4.1895,-4.246,-4.2655,-4.2751,-4.3268,-4.341,-4.3427,-4.3444,-4.3444,-4.3339,-4.2826,-4.2711,-4.2539,-4.1937,-4.181,-4.181,-4.181,-4.1789,-4.175,-4.1793,-4.181,-4.181,-4.181,-4.181,-4.181,-4.181,-4.1291,-4.0903,-4.0903,-3.9142,-3.7905,-3.7905,-3.6512,-3.56,-3.56,-3.56,-3.56,-3.56,-3.56,-3.56,-3.56,-3.56,-3.56,-3.56,-3.56,-3.56,-3.56,-3.56,-3.56,-3.56,-3.56,-3.56,0.0,0.0,0.0,0.0,0.0,0.0,0.0,0.0,-3.8707,-3.8707,-3.8707,-3.8707,-3.8707,-3.8707,-3.8707,-3.8707,-3.8707,-3.8707,-3.8707,-3.8707,-3.8707,-3.8707,-3.8946,-3.9129,-3.9129,-3.9386,-3.957,-3.957,-3.957,-3.957,-3.957,-3.9294,-3.9129,-3.9129,-3.8854,-3.8707,-3.8707,-3.8707,-3.8707,-3.8707,-3.8707,-3.8611,-3.8433,-3.892,-3.8919,-3.857,-3.9046,-3.9496,-3.9942,-4.033,-4.0655,-4.0908,-4.0908,-4.1089,-4.1361,-4.1361,-4.1361,-4.1361,-4.1361,-4.1361,-4.1379,-4.1594,-4.2029,-4.2483,-4.2675,-4.3075,-4.3515,-4.3515,-4.3515,-4.3463,-4.3268,-4.3214,-4.316,-4.294,-4.2903,-4.2903,-4.2903,-4.2619,-4.2482,-4.281,-4.2903,-4.2903,-4.2903,-4.2903,-4.2903,-4.2903,-4.2424,-4.1916,-4.1534,-3.9979,-3.8659,-3.796,-3.6819,-3.5968,-3.5644,-3.56,-3.56,-3.56,-3.56,-3.56,-3.56,-3.56,-3.56,-3.56,-3.56,-3.56,-3.56,-3.56,-3.56,-3.56,-3.56,-3.56,0.0,0.0,0.0,0.0,0.0,0.0,0.0,0.0,-3.8707,-3.8707,-3.8707,-3.8707,-3.8707,-3.8707,-3.8707,-3.8707,-3.8707,-3.8707,-3.8707,-3.8707,-3.8707,-3.8707,-3.8707,-3.8707,-3.8707,-3.8707,-3.8707,-3.8707,-3.8707,-3.8707,-3.8707,-3.8707,-3.8707,-3.8707,-3.8707,-3.8707,-3.8707,-3.8707,-3.8707,-3.8707,-3.8707,-3.8707,-3.8707,-3.8707,-3.8707,-3.8707,-3.8707,-3.9083,-3.9728,-4.0121,-4.0435,-4.0708,-4.0708,-4.0857,-4.1095,-4.1095,-4.1095,-4.1095,-4.1095,-4.1095,-4.1095,-4.1095,-4.1462,-4.1901,-4.1901,-4.2268,-4.269,-4.269,-4.269,-4.269,-4.269,-4.269,-4.2763,-4.302,-4.3094,-4.3167,-4.3441,-4.3214,-4.3069,-4.3427,-4.3515,-4.3515,-4.3515,-4.3515,-4.3515,-4.3515,-4.3032,-4.2449,-4.1749,-4.041,-3.9118,-3.8131,-3.722,-3.6522,-3.6165,-3.6143,-3.6143,-3.6143,-3.5968,-3.5876,-3.5876,-3.5694,-3.56,-3.56,-3.56,-3.56,-3.56,-3.56,-3.56,-3.56,-3.56,-3.56,0.0,0.0,0.0,0.0,0.0,0.0,-3.8707,0.0,-3.8707,-3.8707,-3.8707,-3.8707,-3.8707,-3.8707,-3.8707,-3.8707,-3.8707,-3.8707,-3.8707,-3.8707,-3.8707,-3.8707,-3.8707,-3.8707,-3.8707,-3.8707,-3.8707,-3.8707,-3.8707,-3.8707,-3.8707,-3.8707,-3.8707,-3.8707,-3.8707,-3.8707,-3.8707,-3.8707,-3.8707,-3.8707,-3.8707,-3.8707,-3.8707,-3.8707,-3.8707,-3.8707,-3.8707,-3.8707,-3.8707,-3.8707,-3.9166,-3.9845,-3.9845,-4.0341,-4.1022,-4.1022,-4.1022,-4.1022,-4.1022,-4.1022,-4.1022,-4.1022,-4.104,-4.1058,-4.1058,-4.1077,-4.1095,-4.1095,-4.1095,-4.1095,-4.1095,-4.1095,-4.1297,-4.2084,-4.2268,-4.2488,-4.3259,-4.3441,-4.3441,-4.3496,-4.3515,-4.3515,-4.3515,-4.3478,-4.346,-4.346,-4.2996,-4.2332,-4.1484,-4.0274,-3.9193,-3.839,-3.7651,-3.7228,-3.7209,-3.7209,-3.7209,-3.7209,-3.6704,-3.6416,-3.6395,-3.5898,-3.5622,-3.56,-3.56,-3.56,-3.56,-3.56,-3.56,-3.56,-3.56,-3.56,-3.8707,0.0,0.0,0.0,0.0,0.0,0.0,0.0,0.0,-3.8707,-3.8707,-3.8707,-3.8707,-3.8707,-3.8707,-3.8707,-3.8707,-3.8707,-3.8707,-3.8707,-3.8707,-3.8707,-3.8707,-3.8707,-3.8707,-3.8707,-3.8707,-3.8707,-3.8707,-3.8707,-3.8707,-3.8707,-3.8707,-3.8707,-3.8707,-3.8707,-3.8707,-3.8707,-3.8707,-3.8707,-3.8707,-3.8707,-3.8707,-3.8707,-3.8707,-3.8707,-3.8707,-3.8707,-3.8707,-3.8707,-3.8836,-3.9038,-3.9038,-3.9166,-3.9368,-3.9368,-3.9368,-3.9368,-3.9368,-3.9368,-3.9368,-3.9368,-3.9772,-4.023,-4.023,-4.0653,-4.1095,-4.1095,-4.1095,-4.1095,-4.1095,-4.1095,-4.115,-4.137,-4.1425,-4.148,-4.1735,-4.1772,-4.2121,-4.3276,-4.3515,-4.3515,-4.3515,-4.302,-4.2635,-4.2635,-4.2003,-4.1302,-4.0618,-4.0093,-3.9409,-3.8415,-3.7933,-3.756,-3.7229,-3.7209,-3.7209,-3.7209,-3.7076,-3.6803,-3.6416,-3.6266,-3.6006,-3.5622,-3.56,-3.56,-3.56,-3.56,-3.56,-3.56,-3.56,-3.56,0.0,0.0,0.0,0.0,0.0,0.0,-3.8707,-3.8707,-3.8707,0.0,-3.8707,-3.8707,-3.8707,-3.8707,-3.8707,-3.8707,-3.8707,-3.8707,-3.8707,-3.8707,-3.8707,-3.8707,-3.8707,-3.8707,-3.8707,-3.8707,-3.8707,-3.8707,-3.8707,-3.8707,-3.8707,-3.8707,-3.8707,-3.8707,-3.8707,-3.8707,-3.8707,-3.8707,-3.8707,-3.8707,-3.8707,-3.8707,-3.8707,-3.8707,-3.8707,-3.8707,-3.8707,-3.8707,-3.8707,-3.8707,-3.8707,-3.8707,-3.8707,-3.8707,-3.8707,-3.8707,-3.8707,-3.8707,-3.8707,-3.8707,-3.8707,-3.8707,-3.9019,-3.9405,-3.9405,-3.9735,-4.0086,-4.0086,-4.0086,-4.0086,-4.0086,-4.0086,-4.0178,-4.0524,-4.0598,-4.0689,-4.1022,-4.1095,-4.137,-4.2323,-4.2506,-4.2506,-4.2506,-4.2121,-4.1809,-4.1809,-4.1389,-4.085,-4.016,-3.9977,-3.9524,-3.8581,-3.8321,-3.8117,-3.7843,-3.7826,-3.7826,-3.7826,-3.7433,-3.7076,-3.6744,-3.6291,-3.592,-3.56,-3.56,-3.56,-3.56,-3.56,-3.56,-3.56,-3.56,-3.56,0.0,0.0,0.0,0.0,-3.8707,0.0,-3.8707,-3.8707,-3.8707,0.0,-3.8707,-3.8707,-3.8707,-3.8707,-3.8707,-3.8707,-3.8707,-3.8707,-3.8707,-3.8707,-3.8707,-3.8707,-3.8707,-3.8707,-3.8707,-3.8707,-3.8707,-3.8707,-3.8707,-3.8707,-3.8707,-3.8707,-3.8707,-3.8707,-3.8707,-3.8707,-3.8707,-3.8707,-3.8707,-3.8707,-3.8707,-3.8707,-3.8707,-3.8707,-3.8707,-3.8707,-3.8707,-3.8707,-3.8707,-3.8707,-3.8707,-3.8707,-3.8707,-3.8707,-3.8707,-3.8707,-3.8707,-3.8707,-3.8707,-3.8707,-3.8707,-3.8707,-3.8707,-3.8707,-3.8707,-3.8707,-3.8707,-3.8707,-3.8707,-3.8707,-3.8707,-3.8707,-3.8891,-3.9588,-3.9772,-3.9955,-4.0673,-4.082,-4.082,-4.082,-4.0967,-4.1095,-4.1095,-4.1022,-4.0967,-4.0967,-4.0893,-4.0579,-3.9845,-3.9772,-3.9478,-3.8781,-3.8707,-3.8707,-3.8707,-3.8707,-3.8707,-3.8707,-3.7861,-3.7322,-3.7192,-3.6274,-3.5717,-3.56,-3.56,-3.56,-3.56,-3.56,-3.56,-3.56,-3.56,-3.56,0.0,0.0,-3.8707,-3.8707,-3.8707,0.0,-3.8707,-3.8707,-3.8707,0.0,-3.8707,-3.8707,-3.8707,-3.8707,-3.8707,-3.8707,-3.8707,-3.8707,-3.8707,-3.8707,-3.8707,-3.8707,-3.8707,-3.8707,-3.8707,-3.8707,-3.8707,-3.8707,-3.8707,-3.8707,-3.8707,-3.8707,-3.8707,-3.8707,-3.8707,-3.8707,-3.8707,-3.8707,-3.8707,-3.8707,-3.8707,-3.8707,-3.8707,-3.8707,-3.8707,-3.8707,-3.8707,-3.8707,-3.8707,-3.8707,-3.8707,-3.8707,-3.8707,-3.8707,-3.8707,-3.8707,-3.8707,-3.8707,-3.8707,-3.8707,-3.8707,-3.8707,-3.8707,-3.8707,-3.8707,-3.8707,-3.8707,-3.8707,-3.8707,-3.8707,-3.8707,-3.8707,-3.8744,-3.8909,-3.8927,-3.8982,-3.9129,-3.9184,-3.9184,-3.9184,-4.0196,-4.1095,-4.1095,-4.0561,-4.012,-4.012,-3.9588,-3.9111,-3.8946,-3.8927,-3.8872,-3.8726,-3.8707,-3.8707,-3.8707,-3.8707,-3.8707,-3.8707,-3.8515,-3.8033,-3.7229,-3.7001,-3.6481,-3.5622,-3.56,-3.56,-3.56,-3.56,-3.56,-3.56,-3.56,-3.56,-3.8707,-3.8707,-3.8707,-3.8707,-3.8707,0.0,0.0,-3.8707,-3.8707,-3.8707,-3.8707,-3.8707,-3.8707,-3.8707,-3.8732,-3.8884,-3.8788,-3.8807,-3.9119,-3.8888,-3.8707,-3.8707,-3.8707,-3.8707,-3.8707,-3.8707,-3.8707,-3.8707,-3.8707,-3.8707,-3.8707,-3.8707,-3.8707,-3.8707,-3.8707,-3.8707,-3.8707,-3.8707,-3.8707,-3.8707,-3.8707,-3.8707,-3.8707,-3.8707,-3.8707,-3.8707,-3.8707,-3.8707,-3.8707,-3.8707,-3.8707,-3.8707,-3.8707,-3.8707,-3.8707,-3.8707,-3.8707,-3.8707,-3.8707,-3.8707,-3.8707,-3.8707,-3.8707,-3.8707,-3.8707,-3.8707,-3.8707,-3.8707,-3.8707,-3.8707,-3.8707,-3.8707,-3.8707,-3.8707,-3.8707,-3.8707,-3.8707,-3.8707,-3.8707,-3.8707,-3.935,-3.9884,-3.9884,-3.957,-3.9294,-3.9294,-3.8964,-3.8707,-3.8707,-3.8707,-3.8707,-3.8707,-3.8707,-3.8707,-3.8707,-3.8707,-3.8707,-3.8707,-3.8449,-3.7964,-3.7229,-3.6941,-3.6419,-3.5622,-3.56,-3.56,-3.56,-3.56,-3.56,-3.56,-3.56,-3.56,-3.8707,-3.8707,-3.8707,-3.8707,-3.8707,-3.8707,0.0,0.0,0.0,-3.8707,-3.8707,-3.8707,0.0,0.0,0.0,-3.8858,0.0,0.0,0.0,-3.9069,0.0,-3.8877,-3.8818,-3.8792,-3.8792,-3.8792,-3.8792,-3.8792,-3.8792,-3.8747,-3.8707,-3.8707,-3.8707,-3.8707,-3.8707,-3.8707,-3.8707,-3.8707,-3.8707,-3.8707,-3.8707,-3.8707,-3.8707,-3.8707,-3.8707,-3.8707,-3.8707,-3.8707,-3.8707,-3.8707,-3.8707,-3.8707,-3.8707,-3.8707,-3.8707,-3.8707,-3.8707,-3.8707,-3.8707,-3.8707,-3.8707,-3.8707,-3.8707,-3.8707,-3.8707,-3.8707,-3.8707,-3.8707,-3.8707,-3.8707,-3.8707,-3.8707,-3.8707,-3.8707,-3.8707,-3.8707,-3.8707,-3.8707,-3.8707,-3.8707,-3.8707,-3.8707,-3.8707,-3.8707,-3.8707,-3.8707,-3.8707,-3.8707,-3.8707,-3.8707,-3.8707,-3.8707,-3.8707,-3.8707,-3.8707,-3.8707,-3.8707,-3.8707,-3.83,-3.7808,-3.721,-3.6583,-3.6032,-3.5622,-3.56,-3.56,-3.56,-3.56,-3.56,-3.56,-3.56,-3.56,-3.8707,-3.8707,-3.8707,-3.8707,-3.8707,-3.8707,-3.8707,0.0,-3.8707,-3.8707,0.0,-3.8707,-3.8707,0.0,0.0,0.0,0.0,0.0,-3.8546,-3.9058,-3.9493,-3.9493,-3.9231,-3.9044,-3.9044,-3.9044,-3.9044,-3.9044,-3.9044,-3.8947,-3.8704,-3.8707,-3.8707,-3.8707,-3.8707,-3.8707,-3.8707,-3.8707,-3.8707,-3.8707,-3.8707,-3.8707,-3.8707,-3.8707,-3.8707,-3.8707,-3.8707,-3.8707,-3.8707,-3.8707,-3.8707,-3.8707,-3.8707,-3.8707,-3.8707,-3.8707,-3.8707,-3.8707,-3.8707,-3.8707,-3.8707,-3.8707,-3.8707,-3.8707,-3.8707,-3.8707,-3.8707,-3.8707,-3.8707,-3.8707,-3.8707,-3.8707,-3.8707,-3.8707,-3.8707,-3.8707,-3.8707,-3.8707,-3.8707,-3.8707,-3.8707,-3.8707,-3.8707,-3.8707,-3.8707,-3.8707,-3.8707,-3.8707,-3.8707,-3.8707,-3.8707,-3.8707,-3.8707,-3.8707,-3.8707,-3.8707,-3.8707,-3.8707,-3.8643,-3.8185,-3.7247,-3.6228,-3.565,-3.56,-3.56,-3.56,-3.56,-3.56,-3.56,-3.56,-3.56,-3.56,-3.8707,-3.8707,-3.8707,-3.8707,-3.8707,-3.8707,-3.8707,-3.8707,-3.8732,-3.8894,0.0,0.0,0.0,0.0,0.0,0.0,-3.9407,-3.9591,0.0,0.0,-3.9599,-3.9599,0.0,-3.9314,-3.9125,-3.9112,-3.9036,-3.8884,-3.8994,-3.8985,-3.8704,-3.8707,-3.8707,-3.8707,-3.8707,-3.8707,-3.8707,-3.8707,-3.8707,-3.8707,-3.8707,-3.8707,-3.8707,-3.8707,-3.8707,-3.8707,-3.8707,-3.8707,-3.8707,-3.8707,-3.8707,-3.8707,-3.8707,-3.8707,-3.8707,-3.8707,-3.8707,-3.8707,-3.8707,-3.8707,-3.8707,-3.8707,-3.8707,-3.8707,-3.8707,-3.8707,-3.8707,-3.8707,-3.8707,-3.8707,-3.8707,-3.8707,-3.8707,-3.8707,-3.8707,-3.8707,-3.8707,-3.8707,-3.8707,-3.8707,-3.8707,-3.8707,-3.8707,-3.8707,-3.8707,-3.8707,-3.8707,-3.8707,-3.8707,-3.8707,-3.8707,-3.8707,-3.8707,-3.8707,-3.8707,-3.8707,-3.8707,-3.8707,-3.8152,-3.7632,-3.7228,-3.6165,-3.56,-3.56,-3.56,-3.56,-3.56,-3.56,-3.56,-3.56,-3.56,-3.56,-3.8707,-3.8707,-3.8719,-3.8788,-3.8747,-3.8719,-3.8788,-3.8747,-3.8777,-3.9049,-3.9112,0.0,0.0,0.0,0.0,0.0,0.0,-3.9928,0.0,-3.9976,0.0,-3.9842,-3.9778,-3.9668,-3.9503,-3.9426,-3.9262,-3.897,-3.921,-3.9189,-3.8719,-3.8777,-3.8777,-3.8707,-3.8707,-3.8707,-3.8707,-3.8707,-3.8707,-3.8707,-3.8707,-3.8707,-3.8707,-3.8707,-3.8707,-3.8707,-3.8707,-3.8707,-3.8707,-3.8707,-3.8707,-3.8707,-3.8707,-3.8707,-3.8707,-3.8707,-3.8707,-3.8707,-3.8707,-3.8707,-3.8707,-3.8707,-3.8707,-3.8707,-3.8707,-3.8707,-3.8707,-3.8707,-3.8707,-3.8707,-3.8707,-3.8707,-3.8707,-3.8707,-3.8707,-3.8707,-3.8707,-3.8707,-3.8707,-3.8707,-3.8707,-3.8707,-3.8707,-3.8707,-3.8707,-3.8707,-3.8707,-3.8707,-3.8707,-3.8707,-3.8707,-3.8707,-3.8707,-3.8707,-3.8707,-3.8707,-3.8707,-3.8707,-3.7878,-3.7396,-3.7396,-3.6378,-3.581,-3.581,-3.5672,-3.56,-3.56,-3.56,-3.56,-3.56,-3.56,-3.56,-3.8707,-3.8707,-3.8762,-3.9022,-3.888,-3.8777,-3.9022,-3.8898,-3.8777,-3.9049,-3.9112,-3.9199,-3.9541,0.0,0.0,0.0,0.0,0.0,0.0,0.0,-4.0473,-4.0473,-4.0241,-4.0186,-4.043,-4.0223,-3.9922,-3.9599,-3.988,-3.9671,-3.875,-3.8947,-3.8975,-3.8723,-3.8707,-3.8707,-3.8707,-3.8707,-3.8707,-3.8707,-3.8707,-3.8707,-3.8707,-3.8707,-3.8707,-3.8707,-3.8707,-3.8707,-3.8707,-3.8707,-3.8707,-3.8707,-3.8707,-3.8707,-3.8707,-3.8707,-3.8707,-3.8707,-3.8707,-3.8707,-3.8707,-3.8707,-3.8707,-3.8707,-3.8707,-3.8707,-3.8707,-3.8707,-3.8707,-3.8707,-3.8707,-3.8707,-3.8707,-3.8707,-3.8707,-3.8707,-3.8707,-3.8707,-3.8707,-3.8707,-3.8707,-3.8707,-3.8707,-3.8707,-3.8707,-3.8707,-3.8707,-3.8707,-3.8707,-3.8707,-3.8707,-3.8707,-3.8707,-3.8707,-3.8707,-3.8707,-3.8707,-3.8707,-3.8183,-3.7876,-3.7876,-3.6904,-3.6374,-3.6374,-3.5854,-3.56,-3.56,-3.56,-3.56,-3.56,-3.56,-3.56,-3.8707,-3.8707,-3.8719,-3.88,-3.8777,-3.8777,-3.9036,-3.9022,-3.9122,-3.9645,-3.9765,-3.9851,-4.0148,0.0,0.0,0.0,0.0,0.0,0.0,0.0,-4.0496,-4.0496,-4.0258,-4.0129,-4.0223,-3.9953,-3.9634,-3.9289,-3.9364,-3.9308,-3.8971,-3.8884,-3.8884,-3.8961,-3.8788,-3.8707,-3.8707,-3.8707,-3.8707,-3.8707,-3.8707,-3.8707,-3.8707,-3.8707,-3.8707,-3.8707,-3.8707,-3.8707,-3.8707,-3.8707,-3.8707,-3.8707,-3.8707,-3.8707,-3.8707,-3.8707,-3.8707,-3.8707,-3.8707,-3.8707,-3.8707,-3.8707,-3.8707,-3.8707,-3.8707,-3.8707,-3.8707,-3.8707,-3.8707,-3.8707,-3.8707,-3.8707,-3.8707,-3.8707,-3.8707,-3.8707,-3.8707,-3.8707,-3.8707,-3.8707,-3.8707,-3.8707,-3.8707,-3.8707,-3.8707,-3.8707,-3.8707,-3.8707,-3.8707,-3.8707,-3.8707,-3.8707,-3.8707,-3.8707,-3.8707,-3.8707,-3.8707,-3.8707,-3.82,-3.7893,-3.7893,-3.6925,-3.6395,-3.6395,-3.5876,-3.56,-3.56,-3.56,-3.56,-3.56,-3.56,-3.56,-3.8707,-3.8707,-3.8719,-3.8833,-3.8777,-3.8788,-3.9178,-3.9192,-3.9269,-3.9808,-4.0012,-4.012,-4.0166,-4.0353,0.0,0.0,0.0,0.0,0.0,-4.0496,-4.0496,-4.0496,-4.0347,-4.0232,-4.0232,-4.0053,-3.9738,-3.9302,-3.9377,-3.9308,-3.899,-3.8865,-3.8884,-3.8961,-3.8884,-3.8788,-3.8707,-3.8788,-3.8788,-3.8707,-3.8707,-3.8707,-3.8707,-3.8707,-3.8707,-3.8707,-3.8707,-3.8707,-3.8707,-3.8707,-3.8707,-3.8707,-3.8707,-3.8707,-3.8707,-3.8707,-3.8707,-3.8707,-3.8707,-3.8707,-3.8707,-3.8707,-3.8707,-3.8707,-3.8707,-3.8707,-3.8707,-3.8707,-3.8707,-3.8707,-3.8707,-3.8707,-3.8707,-3.8707,-3.8707,-3.8707,-3.8707,-3.8707,-3.8707,-3.8707,-3.8707,-3.8707,-3.8707,-3.8707,-3.8707,-3.8707,-3.8707,-3.8707,-3.8707,-3.8707,-3.8707,-3.8707,-3.8707,-3.8707,-3.8707,-3.8707,-3.8707,-3.8707,-3.8382,-3.8183,-3.8183,-3.7378,-3.6943,-3.6943,-3.644,-3.6075,-3.5876,-3.5876,-3.5783,-3.56,-3.56,-3.56]},{"header":{"parameterUnit":"m.s-1","parameterCategory":1,"la1":30.6,"la2":29.2853,"lo1":-89.7004,"lo2":-87.6739,"dy":0.0162,"dx":0.0183,"nx":112,"ny":82,"refTime":"2023-04-29T12:00:00:Z","depth":0,"parameterNumber":3,"parameterNumberName":"V-component_of_WINDS"},"data":[0.0,0.0,0.0,0.0,0.0,0.0,0.0,0.0,0.0,0.0,0.0,0.0,0.0,0.0,0.0,0.0,0.0,0.0,0.0,0.0,0.0,0.0,0.0,0.0,0.0,0.0,0.0,0.0,0.0,0.0,0.0,0.0,0.0,0.0,0.0,0.0,0.0,0.0,0.0,0.0,0.0,0.0,0.0,0.0,0.0,0.0,0.0,0.0,0.0,0.0,0.0,0.0,0.0,0.0,0.0,0.0,0.0,0.0,0.0,0.0,0.0,0.0,0.0,0.0,0.0,0.0,0.0,0.0,0.0,0.0,0.0,0.0,0.0,0.0,0.0,0.0,0.0,0.0,0.0,0.0,0.0,0.0,0.0,0.0,0.0,0.0,0.0,0.0,0.0,0.0,-1.9798,-1.9798,-1.9798,-1.9798,-1.9798,-1.9798,-1.9798,-1.9798,0.0,0.0,0.0,0.0,0.0,0.0,0.0,0.0,0.0,0.0,0.0,0.0,0.0,0.0,0.0,0.0,0.0,0.0,0.0,0.0,0.0,0.0,0.0,0.0,0.0,0.0,0.0,0.0,0.0,0.0,0.0,0.0,0.0,0.0,0.0,0.0,0.0,0.0,0.0,0.0,0.0,0.0,0.0,0.0,0.0,0.0,0.0,0.0,0.0,0.0,0.0,0.0,0.0,0.0,0.0,0.0,0.0,0.0,0.0,0.0,0.0,0.0,0.0,0.0,0.0,0.0,0.0,0.0,0.0,0.0,0.0,0.0,0.0,0.0,0.0,0.0,0.0,0.0,0.0,0.0,0.0,0.0,0.0,0.0,0.0,0.0,0.0,0.0,0.0,0.0,0.0,0.0,0.0,0.0,0.0,0.0,0.0,0.0,0.0,0.0,0.0,0.0,0.0,0.0,-1.9798,-1.9798,-1.9798,-1.9798,-1.9798,-1.9798,-1.9798,-1.9798,0.0,0.0,0.0,0.0,0.0,0.0,0.0,0.0,0.0,0.0,0.0,0.0,0.0,0.0,0.0,0.0,0.0,0.0,0.0,0.0,0.0,0.0,0.0,0.0,0.0,0.0,0.0,0.0,0.0,0.0,0.0,0.0,0.0,0.0,0.0,0.0,0.0,0.0,0.0,0.0,0.0,0.0,0.0,0.0,0.0,0.0,0.0,0.0,0.0,0.0,0.0,0.0,0.0,0.0,0.0,0.0,0.0,0.0,0.0,0.0,0.0,0.0,0.0,0.0,0.0,0.0,0.0,0.0,0.0,0.0,0.0,0.0,0.0,0.0,0.0,0.0,0.0,0.0,0.0,0.0,0.0,0.0,0.0,0.0,0.0,0.0,0.0,0.0,0.0,0.0,0.0,0.0,0.0,0.0,0.0,0.0,0.0,0.0,0.0,0.0,0.0,0.0,0.0,-2.0346,-2.0459,-2.0805,-2.083,-2.0695,-2.0371,-2.0346,-2.0207,-1.9824,-1.9798,0.0,0.0,0.0,0.0,0.0,0.0,0.0,0.0,0.0,0.0,0.0,0.0,0.0,0.0,0.0,0.0,0.0,0.0,0.0,0.0,0.0,0.0,0.0,0.0,0.0,0.0,0.0,0.0,0.0,0.0,0.0,0.0,0.0,0.0,0.0,0.0,0.0,0.0,0.0,0.0,0.0,0.0,0.0,0.0,0.0,0.0,0.0,0.0,0.0,0.0,0.0,0.0,0.0,0.0,0.0,0.0,0.0,0.0,0.0,0.0,0.0,0.0,0.0,0.0,0.0,0.0,0.0,0.0,0.0,0.0,0.0,0.0,0.0,0.0,0.0,0.0,0.0,0.0,0.0,0.0,0.0,0.0,0.0,0.0,0.0,0.0,0.0,0.0,0.0,0.0,0.0,0.0,0.0,0.0,0.0,0.0,0.0,0.0,0.0,0.0,0.0,0.0,-2.0547,-2.0733,-2.1207,-2.1256,-2.1075,-2.0597,-2.0696,-2.0497,-1.985,-1.9952,0.0,0.0,0.0,0.0,0.0,0.0,0.0,0.0,0.0,0.0,0.0,0.0,0.0,0.0,0.0,0.0,0.0,0.0,0.0,0.0,0.0,0.0,0.0,0.0,0.0,0.0,0.0,0.0,0.0,0.0,0.0,0.0,0.0,0.0,0.0,0.0,0.0,0.0,0.0,0.0,0.0,0.0,0.0,0.0,0.0,0.0,0.0,0.0,0.0,0.0,0.0,0.0,0.0,0.0,0.0,0.0,0.0,0.0,0.0,0.0,0.0,0.0,0.0,0.0,0.0,0.0,0.0,0.0,0.0,0.0,0.0,0.0,0.0,0.0,0.0,0.0,0.0,0.0,0.0,0.0,0.0,0.0,0.0,0.0,0.0,0.0,0.0,0.0,0.0,0.0,0.0,0.0,0.0,0.0,0.0,0.0,0.0,0.0,0.0,0.0,0.0,0.0,-1.9875,-1.9901,-1.9914,-1.9914,-1.9927,-1.9875,-2.0446,-2.0497,-1.985,-2.0371,0.0,0.0,0.0,0.0,0.0,0.0,0.0,0.0,0.0,0.0,0.0,0.0,0.0,0.0,0.0,0.0,0.0,0.0,0.0,0.0,0.0,0.0,0.0,0.0,0.0,0.0,0.0,0.0,0.0,0.0,0.0,0.0,0.0,0.0,0.0,0.0,0.0,0.0,0.0,0.0,0.0,0.0,0.0,0.0,0.0,0.0,0.0,0.0,0.0,0.0,0.0,0.0,0.0,0.0,0.0,0.0,0.0,0.0,0.0,0.0,0.0,0.0,0.0,0.0,0.0,0.0,0.0,0.0,0.0,0.0,0.0,0.0,0.0,0.0,0.0,0.0,0.0,0.0,0.0,0.0,0.0,0.0,0.0,0.0,0.0,0.0,0.0,0.0,0.0,0.0,0.0,0.0,0.0,0.0,0.0,0.0,0.0,0.0,0.0,0.0,0.0,0.0,-2.0988,-2.1304,-2.2072,-2.2179,-2.2016,-2.1629,-2.1846,-2.1537,-2.0497,0.0,0.0,0.0,0.0,0.0,0.0,0.0,0.0,0.0,0.0,0.0,0.0,0.0,0.0,0.0,0.0,0.0,0.0,0.0,0.0,0.0,0.0,0.0,0.0,0.0,0.0,0.0,0.0,0.0,0.0,0.0,0.0,0.0,0.0,0.0,0.0,0.0,0.0,0.0,0.0,0.0,0.0,0.0,0.0,0.0,0.0,0.0,0.0,0.0,0.0,0.0,0.0,0.0,0.0,0.0,0.0,0.0,0.0,0.0,0.0,0.0,0.0,0.0,0.0,0.0,0.0,0.0,0.0,0.0,0.0,0.0,0.0,0.0,0.0,0.0,0.0,0.0,0.0,0.0,0.0,0.0,0.0,0.0,0.0,0.0,0.0,0.0,0.0,0.0,0.0,0.0,0.0,0.0,0.0,0.0,0.0,0.0,0.0,0.0,0.0,0.0,0.0,-2.1821,-2.1997,-2.2412,-2.3501,-2.3631,-2.3314,-2.2484,-2.2588,-2.2064,-2.0585,0.0,0.0,0.0,0.0,0.0,0.0,0.0,0.0,0.0,0.0,0.0,0.0,0.0,0.0,0.0,0.0,0.0,0.0,0.0,0.0,0.0,0.0,0.0,0.0,0.0,0.0,0.0,0.0,0.0,0.0,0.0,0.0,0.0,0.0,0.0,0.0,0.0,0.0,0.0,0.0,0.0,0.0,0.0,0.0,0.0,0.0,0.0,0.0,0.0,0.0,0.0,0.0,0.0,0.0,0.0,0.0,0.0,0.0,0.0,0.0,0.0,0.0,0.0,0.0,0.0,0.0,0.0,0.0,0.0,0.0,0.0,0.0,0.0,0.0,0.0,0.0,0.0,0.0,0.0,0.0,0.0,0.0,0.0,0.0,0.0,0.0,0.0,0.0,0.0,0.0,0.0,0.0,0.0,0.0,0.0,0.0,0.0,0.0,0.0,0.0,0.0,0.0,-2.2445,-2.2604,-2.2883,-2.3624,-2.3701,-2.3185,-2.1937,-2.239,-2.1907,0.0,0.0,0.0,0.0,0.0,0.0,0.0,0.0,0.0,0.0,0.0,0.0,0.0,0.0,0.0,0.0,0.0,0.0,0.0,0.0,0.0,0.0,0.0,0.0,0.0,0.0,0.0,0.0,0.0,0.0,0.0,0.0,0.0,0.0,0.0,0.0,0.0,0.0,0.0,0.0,0.0,0.0,0.0,0.0,0.0,0.0,0.0,0.0,0.0,0.0,0.0,0.0,0.0,0.0,0.0,0.0,0.0,0.0,0.0,0.0,0.0,0.0,0.0,0.0,0.0,0.0,0.0,0.0,0.0,0.0,0.0,0.0,0.0,0.0,0.0,0.0,0.0,0.0,0.0,0.0,0.0,0.0,0.0,0.0,0.0,0.0,0.0,0.0,0.0,0.0,0.0,0.0,0.0,0.0,0.0,0.0,0.0,0.0,0.0,0.0,0.0,0.0,0.0,-2.3198,-2.3304,-2.3549,-2.4195,-2.3803,-2.3555,-2.3677,-2.3876,-2.3543,-2.2542,0.0,0.0,0.0,0.0,0.0,0.0,0.0,0.0,0.0,0.0,0.0,0.0,0.0,0.0,0.0,0.0,0.0,0.0,0.0,0.0,0.0,0.0,0.0,0.0,0.0,0.0,0.0,0.0,0.0,0.0,0.0,0.0,0.0,0.0,0.0,0.0,0.0,0.0,0.0,0.0,0.0,0.0,0.0,0.0,0.0,0.0,0.0,0.0,0.0,0.0,0.0,0.0,0.0,0.0,0.0,0.0,0.0,0.0,0.0,0.0,0.0,0.0,0.0,0.0,0.0,0.0,0.0,0.0,0.0,0.0,0.0,0.0,0.0,0.0,0.0,0.0,0.0,0.0,0.0,0.0,0.0,0.0,0.0,0.0,0.0,0.0,0.0,0.0,0.0,0.0,0.0,0.0,0.0,0.0,0.0,0.0,0.0,0.0,0.0,0.0,0.0,0.0,-2.42,-2.4584,-2.5026,-2.5685,-2.5329,-2.5037,-2.4944,-2.4665,-2.4133,-2.3265,0.0,0.0,0.0,0.0,0.0,0.0,0.0,0.0,0.0,0.0,0.0,0.0,0.0,0.0,0.0,0.0,0.0,0.0,0.0,0.0,0.0,0.0,0.0,0.0,0.0,0.0,0.0,0.0,0.0,0.0,0.0,0.0,0.0,0.0,0.0,0.0,0.0,0.0,0.0,0.0,0.0,0.0,0.0,0.0,0.0,0.0,0.0,0.0,0.0,0.0,0.0,0.0,0.0,0.0,0.0,0.0,0.0,0.0,0.0,0.0,0.0,0.0,0.0,0.0,0.0,0.0,0.0,0.0,0.0,0.0,0.0,0.0,0.0,0.0,0.0,0.0,0.0,0.0,0.0,0.0,0.0,0.0,0.0,0.0,0.0,0.0,0.0,0.0,0.0,0.0,0.0,0.0,0.0,0.0,0.0,0.0,0.0,0.0,0.0,0.0,0.0,0.0,-2.5135,-2.5933,-2.6654,-2.7316,-2.7408,-2.6886,-2.5686,-2.5019,-2.4174,-2.2924,0.0,0.0,0.0,0.0,0.0,0.0,0.0,0.0,0.0,0.0,0.0,0.0,0.0,0.0,0.0,0.0,0.0,0.0,0.0,0.0,0.0,0.0,0.0,0.0,0.0,0.0,0.0,0.0,0.0,0.0,0.0,0.0,0.0,0.0,0.0,0.0,0.0,0.0,0.0,0.0,0.0,0.0,0.0,0.0,0.0,0.0,0.0,0.0,0.0,0.0,0.0,0.0,0.0,0.0,0.0,0.0,0.0,0.0,0.0,0.0,-2.187,-2.1458,0.0,0.0,0.0,0.0,0.0,0.0,0.0,0.0,0.0,0.0,0.0,0.0,0.0,0.0,0.0,0.0,0.0,0.0,0.0,0.0,0.0,0.0,0.0,0.0,0.0,0.0,0.0,0.0,0.0,0.0,0.0,0.0,0.0,0.0,0.0,0.0,0.0,0.0,0.0,0.0,-2.4496,-2.5175,-2.5701,-2.5864,-2.5864,-2.5754,-2.5451,-2.5829,-2.5719,-2.4847,-2.4755,0.0,0.0,0.0,0.0,0.0,0.0,0.0,0.0,0.0,0.0,0.0,0.0,0.0,0.0,0.0,0.0,0.0,0.0,0.0,0.0,0.0,0.0,0.0,0.0,0.0,0.0,0.0,0.0,0.0,0.0,0.0,0.0,0.0,0.0,0.0,0.0,0.0,0.0,0.0,0.0,0.0,0.0,0.0,0.0,0.0,0.0,0.0,0.0,0.0,0.0,0.0,0.0,0.0,0.0,0.0,0.0,0.0,0.0,0.0,-2.2493,-2.2133,0.0,0.0,0.0,0.0,0.0,0.0,0.0,0.0,0.0,0.0,0.0,0.0,0.0,0.0,0.0,0.0,0.0,0.0,0.0,0.0,0.0,0.0,0.0,0.0,0.0,0.0,0.0,0.0,0.0,0.0,0.0,0.0,0.0,0.0,0.0,0.0,0.0,0.0,0.0,0.0,-2.4292,-2.4922,-2.5398,-2.5398,-2.5728,-2.5933,-2.5933,-2.6283,-2.6203,-2.5453,-2.5121,0.0,0.0,0.0,0.0,0.0,0.0,0.0,0.0,0.0,0.0,0.0,0.0,0.0,0.0,0.0,0.0,0.0,0.0,0.0,0.0,0.0,0.0,0.0,0.0,0.0,0.0,0.0,0.0,0.0,0.0,0.0,0.0,0.0,0.0,0.0,0.0,0.0,0.0,0.0,0.0,0.0,0.0,0.0,0.0,0.0,0.0,0.0,0.0,0.0,0.0,0.0,0.0,0.0,-2.2892,-2.3258,-2.3258,-2.3358,-2.3396,-2.3396,-2.3396,-2.3032,-2.2447,-2.2447,0.0,0.0,0.0,0.0,0.0,0.0,0.0,0.0,0.0,0.0,0.0,0.0,0.0,0.0,0.0,0.0,0.0,0.0,0.0,0.0,0.0,0.0,-2.2447,-2.2447,-2.2782,-2.2857,-2.197,0.0,0.0,0.0,0.0,0.0,0.0,0.0,0.0,0.0,0.0,0.0,-2.4292,-2.4922,-2.5453,-2.5563,-2.6256,-2.659,-2.6336,-2.6431,-2.6203,-2.5453,-2.4951,-2.4396,0.0,0.0,0.0,0.0,0.0,0.0,0.0,0.0,0.0,0.0,0.0,0.0,0.0,0.0,0.0,0.0,0.0,0.0,0.0,0.0,0.0,0.0,0.0,0.0,0.0,0.0,0.0,0.0,0.0,0.0,0.0,0.0,-1.7246,-1.8755,0.0,0.0,0.0,0.0,0.0,0.0,0.0,0.0,0.0,0.0,0.0,0.0,0.0,-2.2682,-2.2682,-2.2847,-2.2944,-2.2957,-2.3578,-2.3891,-2.3904,-2.4349,-2.4575,-2.4575,-2.4575,0.0,-2.2995,-2.2995,0.0,0.0,0.0,0.0,0.0,0.0,0.0,0.0,0.0,0.0,0.0,0.0,0.0,0.0,0.0,0.0,0.0,0.0,0.0,0.0,0.0,0.0,-2.2995,-2.2995,-2.3058,-2.3058,-2.292,-2.2895,-2.2895,-2.2895,-2.2945,-2.2995,0.0,0.0,0.0,0.0,0.0,0.0,-2.4205,-2.4922,-2.5646,-2.6283,-2.7008,-2.6941,-2.5646,-2.6122,-2.6203,-2.5453,-2.5906,-2.589,-2.5163,-2.5024,0.0,0.0,0.0,0.0,0.0,0.0,0.0,0.0,0.0,0.0,0.0,0.0,0.0,0.0,0.0,0.0,0.0,0.0,0.0,0.0,0.0,0.0,0.0,0.0,0.0,0.0,0.0,0.0,0.0,-1.6842,-1.7149,-1.831,-1.742,-1.6943,0.0,0.0,0.0,0.0,0.0,0.0,0.0,0.0,0.0,-2.2337,-2.317,-2.3735,-2.4048,-2.4048,-2.4048,-2.4061,-2.4311,-2.4456,-2.4469,-2.4675,-2.4788,-2.4788,-2.4788,-2.4512,-2.4023,-2.3722,-2.3615,-2.359,0.0,0.0,0.0,0.0,-2.3108,-2.307,-2.2832,-2.2744,-2.2706,-2.2498,0.0,0.0,0.0,0.0,0.0,0.0,0.0,-2.3108,-2.3108,-2.3108,-2.3195,-2.354,-2.3615,-2.3672,-2.3985,-2.4048,-2.386,-2.3233,-2.3108,-2.3208,-2.3534,-2.3615,0.0,0.0,0.0,-2.4173,-2.4533,-2.4858,-2.5208,-2.5511,-2.6205,-2.6269,-2.5307,-2.6287,-2.6326,-2.4865,-2.5481,-2.5536,-2.4823,-2.4366,-2.39,0.0,0.0,0.0,0.0,0.0,0.0,0.0,0.0,0.0,0.0,0.0,0.0,0.0,0.0,0.0,0.0,0.0,0.0,0.0,0.0,0.0,0.0,0.0,0.0,0.0,0.0,0.0,0.0,-1.7653,-1.7639,-1.8416,-1.803,-1.7738,0.0,0.0,0.0,0.0,0.0,0.0,-2.1136,-2.1881,-2.2587,-2.322,-2.3876,-2.4406,-2.4788,-2.4788,-2.4788,-2.4788,-2.4926,-2.4988,-2.4988,-2.5172,-2.5247,-2.5247,-2.5247,-2.5247,-2.5184,-2.4494,-2.4205,-2.4167,-2.371,-2.3534,-2.3534,-2.3534,-2.3534,-2.3534,-2.3534,-2.3534,-2.3534,-2.3534,-2.3534,-2.3534,-2.3534,0.0,0.0,0.0,0.0,-2.3534,-2.3534,-2.3534,-2.3647,-2.4104,-2.4205,-2.4318,-2.47,-2.4788,-2.4537,-2.3697,-2.3534,-2.3672,-2.4142,-2.4205,0.0,-2.4725,-2.4788,-2.4885,-2.5052,-2.5071,-2.5167,-2.5345,-2.5857,-2.595,-2.5357,-2.6315,-2.6295,-2.48,-2.5091,-2.5067,-2.4546,-2.3785,-2.3603,-2.4002,0.0,0.0,0.0,0.0,0.0,0.0,0.0,0.0,0.0,0.0,0.0,0.0,0.0,0.0,0.0,0.0,0.0,0.0,0.0,0.0,0.0,0.0,0.0,0.0,0.0,0.0,0.0,0.0,0.0,-2.0352,-2.0416,0.0,0.0,0.0,0.0,-1.9365,-2.0599,-2.1714,-2.255,-2.3123,-2.3817,-2.4673,-2.475,-2.4763,-2.4788,-2.4788,-2.4788,-2.48,-2.5322,-2.5548,-2.5573,-2.616,-2.6411,-2.6411,-2.6411,-2.6411,-2.6336,-2.5222,-2.475,-2.475,-2.4713,-2.47,-2.47,-2.47,-2.47,-2.47,-2.47,-2.47,-2.47,-2.47,-2.47,-2.47,-2.47,-2.47,0.0,0.0,-2.47,-2.47,-2.47,-2.47,-2.4713,-2.4738,-2.475,-2.4763,-2.4775,-2.4788,-2.4775,-2.4713,-2.47,-2.4713,-2.4738,0.0,-2.4763,-2.4788,-2.4788,-2.5039,-2.5764,-2.5844,-2.6109,-2.6824,-2.6914,-2.663,-2.5928,-2.5915,-2.5946,-2.5827,-2.537,-2.511,-2.505,-2.4524,-2.3884,-2.3155,-2.307,0.0,0.0,0.0,0.0,0.0,0.0,0.0,0.0,0.0,0.0,0.0,0.0,0.0,0.0,0.0,0.0,0.0,0.0,0.0,0.0,0.0,0.0,0.0,0.0,0.0,0.0,0.0,0.0,-1.8877,-1.9728,0.0,-1.9841,-2.1419,-2.2341,-2.2043,-2.2989,-2.3709,-2.4013,-2.423,-2.4632,-2.531,-2.5322,-2.5498,-2.5908,-2.5908,-2.5908,-2.5921,-2.6097,-2.6185,-2.6197,-2.6399,-2.6499,-2.6499,-2.6499,-2.6499,-2.6461,-2.6072,-2.5661,-2.5285,-2.4913,-2.4788,-2.4788,-2.4788,-2.4788,-2.4788,-2.4788,-2.4788,-2.4788,-2.4788,-2.4788,-2.4788,-2.4788,-2.4788,-2.4788,-2.4788,-2.4788,-2.4788,-2.4788,-2.4788,-2.4876,-2.5247,-2.5322,-2.5423,-2.5799,-2.5908,-2.5908,-2.5908,-2.531,-2.4888,-2.5259,-2.5322,-2.5448,-2.5858,-2.5908,-2.5996,-2.6271,-2.6291,-2.6391,-2.6641,-2.6674,-2.642,-2.5767,-2.6122,-2.6074,-2.5243,-2.547,-2.5383,-2.4937,-2.44,-2.3954,-2.369,-2.3296,-2.3108,0.0,0.0,0.0,0.0,0.0,0.0,0.0,0.0,0.0,0.0,0.0,0.0,0.0,0.0,0.0,0.0,0.0,0.0,0.0,0.0,0.0,0.0,0.0,0.0,0.0,0.0,-1.8708,-1.8927,-2.0262,-2.1092,-2.0831,-2.2723,-2.3824,-2.3501,-2.4468,-2.5084,-2.5084,-2.5272,-2.5536,-2.5908,-2.5887,-2.6109,-2.6499,-2.6499,-2.6499,-2.6499,-2.6499,-2.6499,-2.6499,-2.6499,-2.6499,-2.6499,-2.6499,-2.6499,-2.6499,-2.6499,-2.6273,-2.585,-2.5511,-2.5372,-2.5372,-2.5372,-2.5372,-2.5372,-2.5372,-2.5372,-2.5372,-2.5372,-2.5372,-2.5372,-2.5372,-2.5372,-2.5372,-2.5372,-2.5372,-2.5372,-2.5372,-2.5372,-2.546,-2.5799,-2.5887,-2.6021,-2.6411,-2.6499,-2.6499,-2.6499,-2.5908,-2.5485,-2.5824,-2.5887,-2.6047,-2.6436,-2.6499,-2.6499,-2.6499,-2.6499,-2.6499,-2.6499,-2.6499,-2.6336,-2.5925,-2.635,-2.6262,-2.5431,-2.5621,-2.557,-2.5084,-2.4556,-2.4192,-2.4004,-2.3396,-2.3108,-2.3108,0.0,0.0,0.0,0.0,0.0,0.0,0.0,0.0,0.0,0.0,0.0,0.0,0.0,0.0,0.0,0.0,0.0,0.0,0.0,0.0,0.0,0.0,0.0,-1.9858,-1.9923,-2.017,-2.0773,-2.2309,-2.3067,-2.2321,-2.3815,-2.4488,-2.3661,-2.4846,-2.5624,-2.5624,-2.6185,-2.6499,-2.6499,-2.6499,-2.6499,-2.6499,-2.6499,-2.6499,-2.6512,-2.6512,-2.6524,-2.6549,-2.6549,-2.6549,-2.6549,-2.6549,-2.6549,-2.6549,-2.6549,-2.6549,-2.6549,-2.6512,-2.6499,-2.6499,-2.6499,-2.6499,-2.6499,-2.6499,-2.6499,-2.6499,-2.6499,-2.6499,-2.6499,-2.6499,-2.6499,-2.6499,-2.6499,-2.6499,-2.6499,-2.6499,-2.6499,-2.6499,-2.6499,-2.6499,-2.6499,-2.6499,-2.6499,-2.6499,-2.6499,-2.6499,-2.6499,-2.6499,-2.6499,-2.6499,-2.6499,-2.6499,0.0,-2.6499,-2.6499,-2.6499,-2.6499,-2.6499,-2.6499,-2.6499,-2.6499,-2.6499,-2.6499,-2.5971,-2.5624,-2.5624,-2.5121,-2.4582,-2.4029,-2.3446,-2.3158,-2.3158,0.0,0.0,0.0,0.0,0.0,0.0,0.0,0.0,0.0,0.0,0.0,0.0,0.0,0.0,0.0,0.0,0.0,0.0,0.0,0.0,0.0,0.0,-2.044,-2.0551,-2.0565,-2.0877,-2.1702,-2.312,-2.3958,-2.3753,-2.5105,-2.5933,-2.5682,-2.6036,-2.626,-2.626,-2.6411,-2.6499,-2.6499,-2.6499,-2.6499,-2.6499,-2.6499,-2.67,-2.709,-2.709,-2.7268,-2.7657,-2.7657,-2.7657,-2.7657,-2.7657,-2.7657,-2.7657,-2.7657,-2.7657,-2.757,-2.6801,-2.6499,-2.6499,-2.6499,-2.6499,-2.6499,-2.6499,-2.6499,-2.6499,-2.6499,-2.6499,-2.6499,-2.6499,-2.6499,-2.6499,-2.6499,-2.6499,-2.6499,-2.6499,-2.6499,-2.6499,-2.6499,-2.6499,-2.6499,-2.6499,-2.6499,-2.6499,-2.6499,-2.6499,-2.6499,-2.6499,-2.6499,-2.6499,-2.6499,-2.6499,-2.6499,-2.6499,-2.6499,-2.6499,-2.6499,-2.6499,-2.6499,-2.6499,-2.6499,-2.6499,-2.6499,-2.6348,-2.626,-2.626,-2.5686,-2.5134,-2.4575,-2.4412,-2.4324,0.0,0.0,0.0,0.0,0.0,0.0,0.0,0.0,0.0,0.0,0.0,0.0,0.0,0.0,0.0,0.0,0.0,0.0,0.0,0.0,0.0,0.0,-2.0808,-2.1152,-2.2402,-2.2048,-2.2099,-2.3259,-2.4096,-2.4772,-2.5198,-2.5999,-2.6499,-2.6499,-2.6499,-2.6499,-2.6499,-2.6499,-2.66,-2.6839,-2.6839,-2.6952,-2.719,-2.719,-2.7341,-2.7632,-2.7632,-2.7795,-2.8109,-2.8109,-2.8109,-2.8109,-2.8109,-2.8109,-2.8109,-2.8109,-2.8109,-2.8047,0.0,0.0,0.0,0.0,-2.6499,-2.6499,-2.6499,-2.6499,-2.6499,-2.6499,-2.6499,-2.6499,-2.6499,-2.6499,-2.6499,-2.6499,-2.6499,-2.6499,-2.6499,-2.6499,-2.6499,-2.6499,-2.6499,-2.6499,-2.6499,-2.6499,-2.6499,-2.6499,-2.6499,0.0,-2.6499,-2.6499,-2.6499,-2.6499,-2.6499,-2.6499,-2.6499,-2.6499,-2.6499,-2.6499,-2.6499,-2.6499,-2.6499,-2.6499,0.0,0.0,0.0,-2.6499,-2.6499,-2.59,0.0,0.0,0.0,-2.4788,-2.4788,-2.4788,0.0,0.0,-2.3421,-2.3158,0.0,0.0,0.0,0.0,0.0,0.0,0.0,0.0,0.0,0.0,0.0,0.0,0.0,0.0,0.0,0.0,-2.1158,-2.1794,-2.4301,-2.3777,-2.3662,-2.5028,-2.5087,-2.5406,-2.6383,-2.6499,-2.6524,-2.6587,-2.6587,-2.6612,-2.6675,0.0,0.0,0.0,0.0,-2.7607,-2.8097,-2.8109,-2.8134,-2.8197,-2.8197,-2.8235,-2.8298,-2.8298,-2.8298,-2.8298,-2.8298,-2.8298,-2.8298,-2.8298,-2.8298,-2.8285,-2.816,-2.7808,-2.7318,-2.6864,-2.6688,-2.6688,-2.6688,0.0,0.0,-2.6688,-2.6688,-2.6688,-2.6688,-2.6688,-2.6688,-2.6688,-2.6688,-2.6688,-2.6688,-2.6688,-2.6688,-2.6688,-2.6688,-2.6688,-2.6688,-2.6688,-2.6688,-2.6688,-2.6688,-2.6688,-2.6688,-2.6575,-2.6499,-2.6499,-2.6499,-2.6499,-2.6499,-2.6499,-2.6499,-2.6499,-2.6499,0.0,-2.6499,-2.6499,-2.6499,-2.6499,-2.6499,-2.6499,-2.6499,-2.5996,-2.5686,-2.5686,-2.5247,-2.5008,-2.5008,-2.5008,-2.4938,-2.4863,-2.4343,-2.3816,0.0,0.0,0.0,0.0,0.0,0.0,0.0,0.0,0.0,0.0,0.0,0.0,0.0,0.0,0.0,-2.1864,-2.2499,-2.285,-2.2627,-2.3738,-2.5003,-2.6082,-2.5476,-2.5406,-2.6383,-2.6499,-2.6675,-2.7128,-2.7165,-2.7318,-2.7758,-2.7783,-2.7833,-2.7946,-2.7946,-2.7996,-2.8109,-2.8109,-2.8335,-2.8737,-2.8737,0.0,-2.9465,-2.9465,-2.9465,-2.9465,-2.9465,-2.9465,-2.9465,-2.9465,-2.9465,-2.9377,-2.8461,-2.8047,-2.7934,-2.7821,-2.7783,-2.7783,-2.7783,-2.7783,-2.7783,-2.7783,-2.7783,-2.7783,-2.7783,-2.7783,0.0,-2.7783,-2.7783,-2.7783,-2.7783,-2.7783,-2.7783,-2.7783,-2.7783,-2.7783,-2.7783,-2.7783,-2.7783,-2.7783,-2.7783,-2.7783,-2.7783,-2.709,-2.6499,-2.6499,-2.6499,-2.6499,-2.6499,-2.6499,-2.6499,-2.6499,-2.6499,-2.6499,-2.6499,-2.6499,-2.6499,-2.6499,-2.6499,-2.6499,-2.6499,-2.6386,-2.6336,-2.6336,-2.6223,-2.6172,-2.6172,-2.6172,-2.5933,-2.5435,-2.4908,-2.4575,0.0,0.0,0.0,0.0,0.0,0.0,0.0,0.0,0.0,0.0,0.0,-2.0456,0.0,0.0,-2.1989,-2.1989,-2.285,-2.3514,-2.3514,-2.3927,-2.4624,-2.5616,-2.5734,-2.6054,-2.6841,-2.6901,-2.714,-2.7657,-2.7695,-2.7821,-2.8097,-2.7607,-2.7656,-2.8461,-2.8002,-2.8087,-2.895,-2.895,-2.9089,-2.9365,-2.9365,-2.9515,-2.9792,-2.9792,-2.9792,-2.9792,-2.9792,-2.9792,-2.9792,-2.9792,-2.9792,-2.9729,-2.9164,-2.8775,-2.8486,-2.821,-2.8109,-2.8109,-2.8109,-2.8109,-2.8109,-2.8109,-2.8109,-2.8109,-2.8109,-2.8109,-2.8109,-2.8109,-2.8109,-2.8109,-2.8109,-2.8109,-2.8109,-2.8109,-2.8109,-2.8109,-2.8109,-2.8109,-2.8109,-2.8109,-2.8109,-2.8109,-2.8109,-2.7645,-2.7228,-2.6952,-2.6901,-2.6801,-2.6524,-2.6499,-2.6499,-2.6499,-2.6499,-2.6499,-2.6499,-2.6499,-2.6499,-2.6499,-2.6499,-2.6499,-2.6499,-2.6499,-2.6499,-2.6499,-2.6499,-2.6499,-2.6499,-2.6499,-2.6348,-2.6047,-2.5762,-2.5347,0.0,0.0,0.0,0.0,0.0,0.0,0.0,0.0,-2.0605,-2.0605,-2.0605,-2.0644,-2.0828,-2.1479,-2.1989,-2.1989,-2.285,-2.3669,-2.4185,-2.4075,-2.4134,-2.4615,-2.5504,-2.6418,-2.7346,-2.7265,-2.7369,-2.7903,-2.815,-2.8113,-2.7791,-2.7176,-2.7418,-2.871,-2.7905,-2.8213,-2.9779,-2.9792,-2.9792,-2.9792,-2.9792,-2.9792,-2.9792,-2.9792,-2.9792,-2.9792,-2.9792,-2.9663,-2.9495,-2.9495,-2.9495,-2.9495,-2.9495,-2.9298,-2.9001,-2.8599,-2.8436,-2.8436,-2.8436,-2.8275,-2.8151,-2.8362,-2.8275,-2.8151,-2.8349,-2.8436,-2.8436,-2.8436,-2.8436,-2.8436,-2.8436,-2.8436,-2.8436,-2.8436,-2.8436,-2.8436,-2.8436,-2.8436,-2.8436,-2.8436,-2.8436,-2.8436,-2.8436,-2.8436,-2.821,-2.7544,-2.7444,-2.7281,-2.6876,-2.6813,-2.6776,-2.6663,-2.665,-2.6612,-2.6499,-2.6499,-2.6499,-2.6499,-2.6499,-2.6499,-2.6499,-2.6499,-2.6499,-2.6499,-2.6499,-2.6499,-2.6499,-2.6499,-2.6499,-2.6499,-2.6499,-2.6021,-1.9102,-1.9492,-1.9785,-1.9834,-2.0166,-2.0537,0.0,0.0,-2.0605,-2.0605,-2.0605,-2.0857,-2.1697,-2.1924,-2.1989,-2.1989,-2.285,-2.3051,-2.1787,-2.39,-2.5024,-2.3667,-2.4051,-2.5392,-2.7764,-2.7138,-2.6818,-2.7346,-2.8272,-2.8175,-2.6782,-2.7479,-2.7981,-2.8171,-2.808,-2.8588,-2.9792,-2.9792,-2.9792,-2.9792,-2.9792,-2.9792,-2.9792,-2.9792,-2.9792,-2.9792,-2.9792,-2.9236,-2.8307,-2.8307,-2.8307,-2.8307,-2.8307,-2.8861,-2.9691,-2.9628,-2.9603,-2.9603,-2.9603,-2.8973,-2.8258,-2.9269,-2.8922,-2.8285,-2.9308,-2.9603,-2.9603,-2.9603,-2.9603,-2.9603,-2.9603,-2.9603,-2.9603,-2.9603,-2.9603,-2.9603,-2.9603,-2.9603,-2.9603,-2.9603,-2.9603,-2.9603,-2.9603,-2.9603,-2.9252,-2.8172,-2.8009,-2.7996,-2.7934,-2.7921,-2.7733,-2.7278,-2.7228,-2.7027,-2.6537,-2.6499,-2.6499,-2.6499,-2.6499,-2.6499,-2.6499,-2.6499,-2.6499,-2.6499,-2.6499,-2.6499,-2.6499,-2.6499,-2.6499,-2.6499,-2.6499,-2.6424,-1.9531,-1.9971,-2.0293,0.0,-2.0468,-2.0605,-2.0605,-2.0605,-2.0605,-2.0605,-2.0605,-2.0712,-2.1116,-2.1621,-2.1811,0.0,-2.2713,-2.3465,-2.2261,-2.3886,-2.5079,-2.4665,-2.4287,-2.4772,-2.6504,-2.6836,-2.6944,-2.6852,-2.7259,-2.7472,-2.7429,-2.725,-2.7747,-2.9067,-2.8438,-2.8648,-2.9792,-2.9792,-2.9792,-2.9792,-2.9118,-2.8806,-2.8779,-2.8171,-2.7879,-2.7879,-2.7879,-2.7626,-2.7168,-2.7168,-2.7168,-2.7168,-2.7168,-2.7464,-2.7959,-2.8569,-2.8806,-2.8727,-2.8091,-2.7585,-2.725,-2.7718,-2.7988,-2.8176,-2.8688,-2.9275,-2.9792,-2.9792,-2.9792,-2.9792,-2.9792,-2.9792,-2.9792,-2.9792,-2.9792,-2.9792,-2.9792,-2.9792,-2.9792,-2.9792,-2.9792,-2.9792,-2.9792,-2.9792,-2.9628,-2.9164,-2.88,-2.8461,-2.8147,-2.8109,-2.8009,-2.7783,-2.7758,-2.7544,-2.7014,-2.6977,-2.6839,-2.6512,-2.6499,-2.6499,-2.6499,-2.6499,-2.6499,-2.6499,-2.6499,-2.6499,-2.6499,-2.6499,-2.6499,-2.6499,-2.6499,-2.6499,-2.001,0.0,0.0,-2.0605,-2.0605,-2.0605,-2.0605,-2.0605,-2.0605,-2.0605,-2.0605,-2.0605,-2.0605,-2.1155,-2.1415,-2.084,-2.2443,-2.3513,-2.273,-2.4029,-2.5006,-2.4932,-2.476,-2.4771,-2.4915,-2.5952,-2.6473,-2.6066,-2.6595,-2.6994,-2.7186,-2.6748,-2.7221,-2.8843,-2.8068,-2.8068,-2.8882,-2.9197,-2.9197,-2.8882,-2.8028,-2.7643,-2.7643,-2.6842,-2.6524,-2.6524,-2.6524,-2.6307,-2.6016,-2.6016,-2.6016,-2.6016,-2.6016,-2.6224,-2.6554,-2.7023,-2.74,-2.7562,-2.676,-2.6307,-2.6099,-2.64,-2.683,-2.7296,-2.7924,-2.8478,-2.9,-2.9624,-2.9573,-2.9404,-2.9702,-2.9792,-2.9792,-2.9792,-2.9792,-2.9792,-2.9792,-2.9792,-2.9792,-2.9792,-2.9792,-2.9792,-2.9792,-2.9792,-2.9792,-2.9792,-2.944,-2.9026,-2.8624,-2.8436,-2.8335,-2.8335,-2.8197,-2.7946,-2.7544,-2.7507,-2.7268,-2.6751,-2.6725,-2.665,-2.6499,-2.6499,-2.6499,-2.6499,-2.6499,-2.6499,-2.6499,-2.6499,-2.6499,-2.6499,-2.6499,-2.6499,0.0,0.0,-2.0605,-2.0605,-2.0605,-2.0605,-2.0605,-2.0605,-2.0605,-2.0605,-2.0605,-2.0605,-2.0605,-2.0644,-2.0742,-2.1103,-2.2046,-2.2699,-2.2512,-2.429,-2.4984,-2.3351,-2.5083,-2.5577,0.0,-2.419,-2.4851,-2.4872,-2.6849,-2.7145,-2.4988,-2.5933,-2.6524,-2.6607,-2.6565,-2.6565,-2.6607,-2.7614,-2.7614,-2.6607,-2.6565,-2.6554,-2.6554,-2.6513,-2.6524,-2.6524,-2.6524,-2.5891,-2.483,-2.483,-2.483,-2.483,-2.483,-2.5546,-2.6348,-2.5294,-2.5588,-2.6565,-2.6513,-2.5766,-2.5041,-2.6141,-2.5755,-2.5284,-2.747,-2.7412,-2.7058,-2.9209,-2.8988,-2.8426,-2.9495,-2.9792,-2.9792,-2.9792,-2.9792,-2.9792,-2.9792,-2.9792,-2.9792,-2.9792,-2.9792,-2.9792,-2.9792,-2.9792,-2.9792,-2.9792,-2.9779,-2.9767,-2.9741,-2.9252,-2.8863,-2.8863,-2.8423,-2.8097,-2.8084,-2.8084,-2.7846,-2.7329,-2.7291,-2.7052,-2.6512,-2.6499,-2.6499,-2.6499,-2.6499,-2.6499,-2.6499,-2.6499,-2.6499,-2.6499,-2.6499,-2.6499,-2.0605,0.0,-2.0605,-2.0605,-2.0605,-2.0605,-2.0605,-2.0605,-2.0605,-2.0605,-2.0801,-2.1016,-2.1016,-2.125,-2.1494,-2.1641,-2.2174,-2.2534,-2.2513,-2.3313,-2.3715,-2.3159,-2.3767,0.0,0.0,0.0,0.0,-2.3714,-2.4382,-2.4798,-2.4787,-2.5168,-2.5724,-2.6483,-2.6524,-2.6524,-2.6524,-2.6842,-2.6842,-2.6483,-2.5714,-2.4967,-2.4221,-2.4221,-2.4221,-2.4221,-2.4221,-2.4016,-2.3681,-2.3681,-2.3681,-2.3681,-2.3681,-2.393,-2.4188,-2.38,-2.393,-2.4221,-2.4221,-2.3973,-2.3724,-2.4102,-2.451,-2.4957,-2.5692,-2.6213,-2.6801,-2.8279,-2.8386,-2.8347,-2.9495,-2.9792,-2.9792,-2.9792,-2.9792,-2.9792,-2.9792,-2.9792,-2.9792,-2.9792,-2.9792,-2.9792,-2.9792,-2.9792,-2.9792,-2.9792,-2.9792,-2.9792,-2.9792,-2.9616,-2.9503,-2.9503,-2.934,-2.9076,-2.865,-2.8612,-2.8411,-2.7858,-2.7494,-2.7241,-2.7052,-2.6688,-2.6499,-2.6499,-2.6499,-2.6499,-2.6499,-2.6499,-2.6499,-2.6499,-2.6499,-2.6499,-2.0605,-2.0605,-2.0605,-2.0605,-2.0605,-2.0605,-2.0605,-2.0605,-2.0605,-2.0605,-2.0918,-2.119,-2.119,-2.1592,-2.1934,-2.209,-2.2334,-2.2568,-2.2672,-2.2925,-2.3091,-2.3091,-2.3091,-2.3091,0.0,0.0,0.0,-2.3178,-2.3464,-2.4049,-2.4745,-2.4787,-2.5126,-2.5891,-2.588,-2.5683,-2.5274,-2.5814,-2.5901,-2.5519,-2.4802,-2.3951,-2.3091,-2.3091,-2.3091,-2.3091,-2.3091,-2.3091,-2.3091,-2.3091,-2.3091,-2.3091,-2.3091,-2.3091,-2.3091,-2.3091,-2.3091,-2.3091,-2.3091,-2.3091,-2.3091,-2.3091,-2.3594,-2.4253,-2.467,-2.5052,-2.5599,-2.7116,-2.7522,-2.7775,-2.8897,-2.9495,-2.9792,-2.9792,-2.9792,-2.9792,-2.9792,-2.9792,-2.9792,-2.9792,-2.9792,-2.9792,-2.9792,-2.9792,-2.9792,-2.9792,-2.9792,-2.9792,-2.9792,-2.9792,-2.9792,-2.9792,-2.9792,-2.9641,-2.9264,-2.9239,-2.9001,-2.8436,-2.8059,-2.7783,-2.7582,-2.7077,-2.6788,-2.6788,-2.66,-2.6499,-2.6499,-2.6499,-2.6499,-2.6499,-2.6499,-2.6499,-2.0605,-2.0605,-2.0605,-2.0605,-2.0605,-2.0605,-2.0605,-2.0605,-2.0605,-2.0605,-2.0918,-2.12,0.0,0.0,-2.206,-2.248,-2.2549,-2.2643,-2.3042,-2.3091,-2.3091,0.0,0.0,0.0,0.0,0.0,0.0,-2.3091,0.0,-2.4702,-2.4702,-2.4702,-2.4702,-2.4702,-2.4734,-2.4241,-2.313,-2.4625,-2.4849,-2.3828,-2.3828,-2.3594,-2.313,-2.313,-2.312,-2.3091,-2.3091,-2.3091,-2.3091,-2.3091,-2.3091,-2.3091,-2.3091,-2.3091,-2.3091,-2.3091,-2.3091,-2.3091,-2.3091,-2.3091,-2.3091,-2.3091,-2.3091,-2.3299,-2.4372,-2.3963,-2.356,-2.5808,-2.6389,-2.6678,-2.7723,-2.8819,-2.9624,-2.9624,-2.9624,-2.9663,-2.9714,-2.9702,-2.9714,-2.9792,-2.9792,-2.9792,-2.9792,-2.9792,-2.9792,-2.9792,-2.9792,-2.9792,-2.9792,-2.9792,-2.9792,-2.9792,-2.9792,-2.9792,-2.9792,-2.9792,-2.9566,-2.8963,-2.8913,-2.865,-2.8172,-2.762,-2.7318,-2.7281,-2.6801,-2.6524,-2.6499,-2.6499,-2.6499,-2.6499,-2.6499,-2.6499,-2.0605,-2.0605,-2.0605,-2.0605,-2.0605,-2.0605,-2.0605,-2.0605,-2.0605,-2.0605,-2.0918,-2.1298,0.0,0.0,0.0,-2.2867,-2.2935,0.0,-2.3081,-2.3091,0.0,-2.3091,0.0,-2.3091,-2.3091,-2.3091,0.0,0.0,-2.3387,-2.3551,-2.3551,-2.3551,-2.3551,-2.3551,-2.3869,-2.3925,-2.3623,-2.4305,-2.4522,-2.4258,-2.4258,-2.4033,-2.3623,-2.3623,-2.3447,-2.3091,-2.3091,-2.3091,-2.3091,-2.3091,-2.3091,-2.3091,-2.3091,-2.3091,-2.3091,-2.3091,-2.3091,-2.3091,-2.3091,-2.3091,-2.3091,-2.3091,-2.3091,-2.3135,-2.343,-2.3343,-2.3387,-2.484,-2.521,-2.5504,-2.6637,-2.7128,-2.7342,-2.7342,-2.7342,-2.7545,-2.8359,-2.8518,-2.8767,-2.9624,-2.9792,-2.9792,-2.9792,-2.9792,-2.9792,-2.9792,-2.9792,-2.9792,-2.9792,-2.9792,-2.9792,-2.9792,-2.9792,-2.9792,-2.9792,-2.9792,-2.9729,-2.9578,-2.9126,-2.8825,-2.8687,-2.8185,-2.7708,-2.7329,-2.7178,-2.6901,-2.6499,-2.6499,-2.6499,-2.6499,-2.6499,-2.6499,-2.0605,-2.0605,-2.0605,-2.0605,-2.0605,-2.0605,-2.0605,-2.0605,-2.0605,-2.0605,-2.0918,0.0,0.0,0.0,0.0,0.0,0.0,0.0,-2.3091,-2.3091,-2.3091,0.0,-2.3091,0.0,-2.3091,-2.3091,-2.3091,0.0,-2.3091,-2.3091,-2.3091,-2.3091,-2.3091,-2.3091,-2.3564,-2.3965,-2.4346,-2.459,-2.4697,-2.4697,-2.4697,-2.4385,-2.3789,-2.3789,-2.3555,-2.3091,-2.3091,-2.3091,-2.3091,-2.3091,-2.3091,-2.3091,-2.3091,-2.3091,-2.3091,-2.3091,-2.3218,-2.3428,-2.3428,-2.35,-2.3598,-2.3218,-2.3091,-2.3091,-2.3091,-2.3091,-2.3222,-2.3877,-2.4414,-2.4957,-2.5588,-2.6141,-2.6524,-2.6524,-2.6524,-2.6637,-2.7279,-2.7763,-2.8426,-2.9573,-2.9792,-2.9792,-2.9792,-2.9792,-2.9792,-2.9792,-2.9792,-2.9792,-2.9792,-2.9792,-2.9792,-2.9792,-2.9792,-2.9792,-2.9792,-2.9792,-2.9792,-2.9792,-2.949,-2.9302,-2.9302,-2.8762,-2.8323,-2.8009,-2.7532,-2.7165,-2.6851,-2.6612,-2.6499,-2.6499,-2.6499,-2.6499,-2.0605,-2.0605,-2.0605,-2.0605,-2.0605,-2.0605,-2.0605,-2.0605,-2.0605,-2.0605,0.0,-2.1239,-2.1719,-2.2148,-2.2568,-2.2945,0.0,-2.3091,-2.3091,-2.3091,-2.3091,-2.3091,-2.3091,-2.3091,-2.3091,-2.3091,-2.3091,-2.3091,-2.3091,-2.3091,-2.3091,-2.3091,-2.3149,-2.3266,-2.373,-2.4346,-2.5146,-2.5156,-2.5156,-2.5156,-2.5156,-2.4783,-2.3955,-2.3896,-2.3633,-2.3179,-2.312,-2.3091,-2.3091,-2.3091,-2.3091,-2.3091,-2.3091,-2.313,-2.3179,-2.3179,-2.3496,-2.3877,-2.3877,-2.4111,-2.4297,-2.351,-2.3227,-2.3179,-2.3179,-2.314,-2.3091,-2.3091,-2.38,-2.4585,-2.4585,-2.5294,-2.6069,-2.6069,-2.6069,-2.6141,-2.6431,-2.7452,-2.8636,-2.9624,-2.9792,-2.9792,-2.9792,-2.9792,-2.9792,-2.9792,-2.9792,-2.9792,-2.9792,-2.9792,-2.9792,-2.9792,-2.9792,-2.9792,-2.9792,-2.9792,-2.9792,-2.9792,-2.9792,-2.9792,-2.9792,-2.9315,-2.8963,-2.8888,-2.7921,-2.7356,-2.7281,-2.6763,-2.6499,-2.6499,-2.6499,-2.6499,-2.0605,-2.0605,-2.0605,-2.0605,-2.0605,-2.0605,-2.0605,-2.0605,0.0,0.0,-2.0664,-2.082,-2.1269,-2.1699,-2.2129,-2.2549,0.0,0.0,0.0,0.0,-2.3091,0.0,0.0,0.0,0.0,0.0,0.0,0.0,-2.3091,-2.3091,-2.3091,-2.3091,-2.3422,-2.417,-2.4619,-2.5098,-2.5567,-2.5625,-2.5625,-2.5625,-2.5625,-2.5352,-2.4881,-2.4473,-2.4082,-2.3662,-2.3247,-2.3091,-2.3091,-2.3091,-2.3091,-2.3091,-2.3091,-2.3359,-2.3682,-2.3682,-2.3945,-2.4307,-2.4307,-2.4355,-2.4394,-2.4238,-2.3965,-2.3682,-2.3682,-2.3428,-2.3091,-2.3091,-2.3266,-2.3387,-2.3387,-2.356,-2.3681,-2.3681,-2.3681,-2.4221,-2.6099,-2.8091,-2.9573,-2.9753,-2.9792,-2.9792,-2.9792,-2.9792,-2.9792,-2.9792,-2.9792,-2.9792,-2.9792,-2.9792,-2.9792,-2.9792,-2.9792,-2.9792,-2.9792,-2.9792,-2.9792,-2.9792,-2.9792,-2.9792,-2.9792,-2.9691,-2.9415,-2.89,-2.8298,-2.7733,-2.7281,-2.6763,-2.6499,-2.6499,-2.6499,-2.6499,-2.0605,-2.0605,-2.0605,-2.0605,-2.0605,-2.0605,-2.0605,0.0,0.0,0.0,-2.0605,-2.0703,-2.1112,0.0,0.0,0.0,0.0,0.0,0.0,0.0,0.0,0.0,0.0,0.0,0.0,0.0,0.0,0.0,-2.3091,-2.3091,-2.3091,-2.3305,-2.376,-2.4394,-2.4844,-2.5283,-2.5684,-2.5693,-2.5693,-2.5693,-2.5693,-2.5508,-2.5096,-2.4619,-2.4189,-2.3769,-2.3286,-2.3091,-2.3091,-2.3091,-2.3227,-2.3477,-2.3477,-2.374,-2.4111,-2.4111,-2.4385,-2.4756,-2.4756,-2.4912,-2.506,-2.506,-2.4658,-2.4111,-2.4111,-2.3818,-2.3477,-2.3477,-2.3276,-2.3091,-2.3091,-2.3091,-2.3091,-2.3091,-2.3091,-2.3551,-2.5252,-2.6461,-2.7371,-2.7959,-2.853,-2.8937,-2.8937,-2.9404,-2.9792,-2.9792,-2.9792,-2.9792,-2.9792,-2.9792,-2.9792,-2.9792,-2.9792,-2.9792,-2.9792,-2.9792,-2.9792,-2.9792,-2.9792,-2.9792,-2.9792,-2.9792,-2.9666,-2.939,-2.8536,-2.7971,-2.7708,-2.6901,-2.6499,-2.6499,-2.6499,-2.6499,-2.0605,-2.0605,-2.0605,-2.0605,-2.0605,-2.0605,-2.0605,-2.0605,0.0,0.0,-2.0605,-2.0713,-2.1025,0.0,0.0,0.0,0.0,0.0,0.0,0.0,0.0,0.0,0.0,0.0,0.0,0.0,0.0,0.0,-2.3091,-2.3091,-2.3091,-2.3643,-2.4072,-2.4404,-2.4932,-2.5381,-2.5684,-2.5693,-2.5693,-2.5693,-2.5693,-2.5557,-2.5195,-2.4658,-2.4238,-2.3896,-2.3325,-2.3091,-2.3101,-2.3198,-2.3486,-2.3799,-2.3887,-2.418,-2.456,-2.456,-2.4834,-2.5215,-2.5215,-2.5439,-2.5693,-2.5693,-2.5205,-2.456,-2.456,-2.4199,-2.3789,-2.3789,-2.3477,-2.3091,-2.3091,-2.3091,-2.3091,-2.3091,-2.3309,-2.3714,-2.4628,-2.4999,-2.542,-2.6348,-2.7371,-2.8096,-2.8096,-2.9067,-2.9792,-2.9792,-2.9792,-2.9792,-2.9792,-2.9792,-2.9792,-2.9792,-2.9792,-2.9792,-2.9792,-2.9792,-2.9792,-2.9792,-2.9792,-2.9792,-2.9792,-2.9792,-2.9792,-2.9792,-2.8674,-2.8109,-2.8109,-2.7027,-2.6499,-2.6499,-2.6499,-2.6499,-2.0605,-2.0605,-2.0605,-2.0605,-2.0605,-2.0605,-2.0605,0.0,0.0,-2.0605,-2.0605,-2.0615,-2.0664,-2.1359,-2.1894,0.0,0.0,0.0,0.0,0.0,0.0,0.0,0.0,0.0,0.0,0.0,0.0,0.0,-2.3091,-2.3091,-2.3091,-2.3916,-2.4375,-2.4414,-2.5234,-2.5645,-2.5693,-2.5693,-2.5693,-2.5693,-2.5693,-2.5664,-2.5596,-2.4805,-2.4394,-2.4316,-2.3452,-2.3091,-2.312,-2.3564,-2.375,-2.3828,-2.4209,-2.4629,-2.5057,-2.5057,-2.5293,-2.5625,-2.5625,-2.5654,-2.5693,-2.5693,-2.541,-2.5057,-2.5057,-2.4443,-2.3789,-2.3789,-2.3477,-2.3091,-2.3091,-2.3091,-2.3091,-2.3091,-2.3877,-2.466,-2.4787,-2.563,-2.6348,-2.6472,-2.7371,-2.8096,-2.8096,-2.9067,-2.9792,-2.9792,-2.9792,-2.9792,-2.9792,-2.9792,-2.9792,-2.9792,-2.9792,-2.9792,-2.9792,-2.9792,-2.9792,-2.9792,-2.9792,-2.9792,-2.9792,-2.9792,-2.9792,-2.9792,-2.8674,-2.8109,-2.8109,-2.7027,-2.6499,-2.6499,-2.6499,-2.6499,-2.0605,-2.0605,-2.0605,-2.0605,-2.0605,-2.0605,-2.0605,0.0,0.0,-2.0605,-2.0605,-2.0605,-2.0605,-2.1074,-2.1582,0.0,0.0,0.0,0.0,0.0,0.0,0.0,0.0,0.0,0.0,0.0,0.0,-2.3091,-2.3091,-2.3091,-2.3091,-2.3955,-2.4414,-2.4414,-2.5235,-2.5693,-2.5693,-2.5693,-2.5693,-2.5693,-2.5693,-2.5693,-2.5664,-2.4824,-2.4414,-2.4385,-2.3789,-2.3525,-2.3564,-2.3994,-2.4316,-2.4617,-2.4746,-2.5078,-2.5469,-2.5469,-2.5538,-2.5693,-2.5693,-2.5693,-2.5693,-2.5693,-2.5567,-2.5469,-2.5469,-2.5039,-2.4502,-2.4238,-2.3857,-2.3467,-2.3169,-2.3091,-2.3091,-2.3091,-2.343,-2.38,-2.38,-2.4135,-2.4435,-2.4435,-2.5326,-2.6315,-2.7035,-2.7504,-2.8039,-2.8688,-2.8239,-2.7799,-2.7799,-2.7799,-2.7799,-2.7799,-2.9,-2.9534,-2.8858,-2.8767,-2.849,-2.7839,-2.7799,-2.8079,-2.8767,-2.8767,-2.866,-2.8433,-2.8226,-2.763,-2.6712,-2.6559,-2.6499,-2.6499,-2.6499,-2.6499,-2.0605,-2.0605,-2.0605,-2.0605,-2.0605,-2.0605,0.0,0.0,0.0,-2.0605,-2.0605,-2.0605,-2.0605,-2.0937,-2.1337,0.0,0.0,0.0,0.0,0.0,0.0,0.0,0.0,0.0,0.0,0.0,0.0,-2.3091,-2.3091,-2.3091,-2.3091,-2.3828,-2.4287,-2.4414,-2.5146,-2.5605,-2.5693,-2.5693,-2.5693,-2.5693,-2.5605,-2.5537,-2.5508,-2.4629,-2.4228,-2.4219,-2.3916,-2.3789,-2.3828,-2.4385,-2.4785,-2.5125,-2.5215,-2.5459,-2.5693,-2.5693,-2.5693,-2.5693,-2.5693,-2.5693,-2.5693,-2.5693,-2.5693,-2.5693,-2.5693,-2.543,-2.498,-2.4541,-2.4023,-2.3525,-2.3169,-2.3091,-2.3091,-2.3091,-2.3091,-2.3091,-2.3091,-2.3091,-2.3091,-2.3091,-2.4006,-2.5041,-2.5839,-2.6265,-2.676,-2.7522,-2.6964,-2.6524,-2.6524,-2.6524,-2.6524,-2.6524,-2.7879,-2.8502,-2.7695,-2.7643,-2.7279,-2.6554,-2.6524,-2.6964,-2.8044,-2.7941,-2.79,-2.79,-2.7878,-2.732,-2.6239,-2.6425,-2.6499,-2.6499,-2.6499,-2.6499,-2.0605,-2.0605,-2.0605,-2.0605,-2.0605,-2.0605,0.0,0.0,0.0,-2.0605,-2.0605,-2.0605,-2.0605,-2.0937,-2.1337,-2.1816,0.0,0.0,0.0,0.0,0.0,0.0,0.0,0.0,0.0,0.0,0.0,-2.3091,-2.3091,0.0,-2.3091,-2.3555,-2.3984,-2.4404,-2.4844,-2.5283,-2.5684,-2.5693,-2.5693,-2.5684,-2.5283,-2.5125,-2.5096,-2.4189,-2.3799,-2.3799,-2.3789,-2.3789,-2.3857,-2.4754,-2.5106,-2.5165,-2.5557,-2.5684,-2.5693,-2.5693,-2.5693,-2.5693,-2.5693,-2.5693,-2.5693,-2.5693,-2.5693,-2.5693,-2.5693,-2.543,-2.498,-2.4541,-2.3799,-2.3101,-2.3091,-2.3091,-2.3091,-2.3091,-2.3091,-2.3091,-2.3091,-2.3091,-2.3091,-2.3091,-2.4006,-2.4787,-2.483,-2.5755,-2.6524,-2.6513,-2.6513,-2.6524,-2.6524,-2.6524,-2.6524,-2.6524,-2.6524,-2.6524,-2.6524,-2.6524,-2.6513,-2.6524,-2.6524,-2.6964,-2.8044,-2.7596,-2.7799,-2.885,-2.7846,-2.7293,-2.7281,-2.6763,-2.6499,-2.6499,-2.6499,-2.6499,-2.0401,-2.0605,-2.0605,-2.0605,-2.0605,-2.0605,-2.0605,0.0,0.0,-2.0605,-2.0605,-2.0605,-2.0605,-2.0684,-2.1016,-2.1768,-2.2002,0.0,0.0,0.0,0.0,0.0,0.0,0.0,0.0,0.0,-2.3091,-2.3091,-2.3091,-2.3091,-2.3091,-2.3227,-2.3545,-2.3975,-2.4394,-2.4687,-2.4787,-2.4787,-2.4787,-2.4787,-2.4687,-2.4619,-2.4609,-2.4043,-2.3789,-2.3809,-2.4092,-2.4219,-2.4287,-2.5166,-2.5527,-2.5537,-2.5635,-2.5693,-2.5693,-2.5693,-2.5693,-2.5693,-2.5693,-2.5693,-2.5693,-2.5693,-2.5693,-2.5693,-2.5693,-2.5586,-2.5371,-2.4629,-2.3754,-2.3091,-2.3091,-2.3091,-2.3091,-2.3091,-2.3091,-2.3091,-2.3091,-2.3091,-2.3091,-2.3091,-2.3387,-2.3887,-2.466,-2.4467,-2.4435,-2.521,-2.4681,-2.4188,-2.4188,-2.4188,-2.4188,-2.4188,-2.4188,-2.4467,-2.5252,-2.5336,-2.501,-2.4231,-2.4567,-2.5286,-2.6348,-2.596,-2.5731,-2.5765,-2.5438,-2.4719,-2.369,-2.4885,-2.5838,-2.6499,-2.6499,-2.6499,0.0,-2.0605,-2.0605,-2.0605,-2.0605,0.0,0.0,0.0,0.0,-2.0605,-2.0605,-2.0605,-2.0605,-2.0605,-2.0889,-2.1738,-2.1885,0.0,0.0,0.0,0.0,0.0,0.0,0.0,0.0,-2.3091,-2.3091,-2.3091,-2.3091,-2.3091,-2.3091,-2.3091,-2.3218,-2.3535,-2.3955,-2.4258,-2.4414,-2.4414,-2.4414,-2.4414,-2.4258,-2.418,-2.417,-2.374,-2.3545,-2.3574,-2.3994,-2.4268,0.0,-2.5195,-2.5538,-2.5693,-2.5693,-2.5693,-2.5693,-2.5693,-2.5693,-2.5693,-2.5693,-2.5693,-2.5693,-2.5693,-2.5693,-2.5693,-2.5693,-2.5567,-2.5332,-2.4619,-2.3916,-2.3305,-2.314,-2.3091,-2.3091,-2.3091,-2.3091,-2.3091,-2.3091,-2.3091,-2.3091,-2.3091,-2.3091,-2.3343,-2.4049,-2.3551,-2.3343,-2.4049,-2.3551,-2.3091,-2.3091,-2.3091,-2.3091,-2.3091,-2.2955,-2.315,-2.388,-2.4076,-2.3773,-2.291,-2.3233,-2.3846,-2.4774,-2.4384,-2.4183,-2.4291,-2.4101,-2.3705,-2.3147,-2.4779,-2.5873,-2.6499,-2.6499,-2.6499,0.0,0.0,0.0,0.0,0.0,0.0,0.0,0.0,0.0,0.0,0.0,0.0,-2.0605,-2.0605,-2.0889,-2.1738,0.0,0.0,0.0,0.0,0.0,0.0,0.0,0.0,-2.3091,-2.3091,-2.3091,-2.3091,-2.3091,-2.3091,-2.3091,-2.3091,-2.3091,-2.3091,-2.3525,-2.3935,-2.4326,-2.4326,-2.4326,-2.4326,-2.3935,-2.374,-2.373,-2.3276,-2.3091,-2.312,-2.3603,-2.4014,-2.4404,-2.4873,-2.5312,-2.5645,-2.5674,-2.5693,-2.5693,-2.5693,-2.5693,-2.5693,-2.5693,-2.5693,-2.5693,-2.5693,-2.5693,-2.5693,-2.5693,-2.543,-2.498,-2.4541,-2.4111,-2.3691,-2.3208,-2.3091,-2.3091,-2.3091,-2.3091,-2.3091,-2.3091,-2.3091,-2.3091,-2.3091,-2.3091,-2.3091,-2.3091,-2.3091,-2.3091,-2.3091,-2.3091,-2.3091,-2.3091,-2.3071,-2.3052,-2.3052,-2.2715,-2.2471,-2.2471,-2.2779,-2.2838,-2.249,-2.2474,-2.2792,-2.3431,-2.2919,-2.3142,-2.4122,-2.3638,-2.3891,-2.4898,-2.5908,-2.6418,-2.6499,-2.6499,-2.6499,-1.8837,0.0,-2.0401,-1.9559,-2.0001,0.0,0.0,0.0,0.0,0.0,0.0,0.0,0.0,0.0,0.0,0.0,0.0,0.0,0.0,0.0,0.0,0.0,0.0,-2.3091,-2.3091,-2.3091,-2.3091,-2.3091,-2.3091,-2.3091,-2.3091,-2.3091,-2.3091,-2.3091,-2.3198,-2.3296,-2.3393,-2.3393,-2.3393,-2.3393,-2.3296,-2.3247,-2.3247,-2.314,-2.3091,-2.312,-2.3603,-2.3848,-2.3994,-2.4803,-2.5174,-2.5254,-2.5605,-2.5693,-2.5693,-2.5693,-2.5693,-2.5693,-2.5693,-2.5693,-2.5693,-2.5693,-2.5693,-2.5693,-2.5693,-2.543,-2.498,-2.4541,-2.4111,-2.3691,-2.3208,-2.3091,-2.3091,-2.3091,-2.3091,-2.3091,-2.3091,-2.3091,-2.3091,-2.3091,-2.3091,-2.3091,-2.3091,-2.3091,-2.3091,-2.3091,-2.3091,-2.3091,-2.3091,-2.2818,-2.2656,-2.2656,-2.2285,-2.2031,-2.2031,-2.2129,-2.2139,-2.2041,-2.2453,-2.2737,-2.2898,-2.2398,-2.2271,-2.2525,-2.2419,-2.285,-2.3854,-2.485,-2.5734,-2.6499,-2.6499,-2.6499,-1.767,-1.9245,-2.0323,-1.9283,-1.9805,-2.0605,0.0,0.0,0.0,0.0,0.0,0.0,0.0,0.0,0.0,0.0,0.0,0.0,0.0,0.0,0.0,0.0,0.0,-2.3091,0.0,-2.3091,-2.3091,-2.3091,-2.3091,-2.3091,-2.3091,-2.3091,-2.3091,-2.3091,-2.3091,-2.3091,-2.3091,-2.3091,-2.3091,-2.3091,-2.3091,-2.3091,-2.3091,-2.3091,-2.3091,-2.311,-2.3389,-2.3603,-2.3828,-2.4287,-2.459,-2.4814,-2.5264,-2.543,-2.5449,-2.5615,-2.5693,-2.5693,-2.5693,-2.5693,-2.5693,-2.5693,-2.5693,-2.5654,-2.5488,-2.5264,-2.498,-2.4541,-2.4111,-2.3691,-2.3208,-2.3091,-2.3091,-2.3091,-2.3091,-2.3091,-2.3091,-2.3091,-2.3091,-2.3091,-2.3091,-2.3091,-2.3091,-2.3091,-2.3091,-2.3091,-2.3091,-2.3091,-2.3091,-2.273,-2.251,-2.251,-2.1963,-2.1592,-2.1592,-2.1396,-2.1367,-2.1572,-2.186,-2.1925,-2.1751,-2.1507,-2.1375,-2.1375,-2.1773,-2.2253,-2.2813,-2.3818,-2.4588,-2.5122,-2.5122,-2.5122,-1.6478,-1.8515,-2.0284,-1.9036,-1.9678,-2.0605,0.0,0.0,0.0,0.0,0.0,0.0,0.0,0.0,0.0,0.0,0.0,0.0,0.0,0.0,0.0,0.0,0.0,0.0,-2.3091,-2.3091,-2.3091,-2.3091,-2.3091,-2.3091,-2.3091,-2.3091,-2.3091,-2.3091,-2.3091,-2.3091,-2.3091,-2.3091,-2.3091,-2.3091,-2.3091,-2.3091,-2.3091,-2.3091,-2.3091,-2.3091,-2.3091,-2.335,-2.3691,-2.376,-2.4004,-2.4365,-2.4795,-2.4971,-2.501,-2.54,-2.5528,-2.5644,-2.5664,-2.5693,-2.5674,-2.5615,-2.5586,-2.5557,-2.5107,-2.4969,-2.4842,-2.4424,-2.4062,-2.3691,-2.3208,-2.3091,-2.3091,-2.3091,-2.3091,-2.3091,-2.3091,-2.3091,-2.3091,-2.3091,-2.3091,-2.3091,-2.3091,-2.3091,-2.3091,-2.3091,-2.3091,-2.3091,-2.3091,-2.2715,-2.2412,-2.2412,-2.1641,-2.1093,-2.1093,-2.0781,-2.0772,-2.1103,-2.1093,-2.0967,-2.0615,-2.0605,-2.0605,-2.0605,-2.1517,-2.1989,-2.1989,-2.2999,-2.3514,-2.3514,-2.3514,-2.3514,-1.5668,-1.8005,-2.0118,-1.806,-1.9107,-2.0605,0.0,0.0,0.0,0.0,0.0,0.0,0.0,0.0,0.0,0.0,0.0,0.0,0.0,0.0,-2.3091,-2.3091,0.0,-2.3091,-2.3091,-2.3091,-2.3091,-2.3091,-2.3091,-2.3091,-2.3091,-2.3091,-2.3091,-2.3091,-2.3091,-2.3091,-2.3091,-2.3091,-2.3091,-2.3091,-2.3091,-2.3091,-2.3091,-2.3091,-2.3091,-2.3091,-2.3091,-2.313,-2.3227,-2.3633,-2.3828,-2.3926,-2.4355,-2.4521,-2.4521,-2.46,-2.4853,-2.5225,-2.5605,-2.5693,-2.5625,-2.5293,-2.5166,-2.5088,-2.4648,-2.4268,-2.3965,-2.3906,-2.3838,-2.3691,-2.3208,-2.3091,-2.3091,-2.3091,-2.3091,-2.3091,-2.3091,-2.3091,-2.3091,-2.3091,-2.3091,-2.3091,-2.3091,-2.3091,-2.3091,-2.3091,-2.3091,-2.3091,-2.3091,-2.2461,-2.1982,-2.1982,-2.1191,-2.0703,-2.0703,-2.0644,-2.0635,-2.0703,-2.0703,-2.0674,-2.0605,-2.0605,-2.0605,-2.0605,-2.1517,-2.1989,-2.1989,-2.2999,-2.3514,-2.3514,-2.3514,-2.3514,-1.517,-1.7692,-2.0079,-1.7859,-1.8948,-2.0605,0.0,0.0,0.0,0.0,0.0,0.0,0.0,0.0,0.0,0.0,0.0,-2.2838,-2.3062,-2.3091,-2.3091,0.0,0.0,-2.3091,-2.3091,-2.3091,-2.3091,-2.3091,-2.3091,-2.3091,-2.3091,-2.3091,-2.3091,-2.3091,-2.3091,-2.3091,-2.3091,-2.3091,-2.3091,-2.3091,-2.3091,-2.3091,-2.3091,-2.3091,-2.3091,-2.3091,-2.3091,-2.3091,-2.311,-2.3315,-2.3437,-2.3486,-2.3906,-2.4082,-2.4102,-2.4336,-2.4541,-2.4746,-2.4951,-2.4982,-2.499,-2.4785,-2.4717,-2.4639,-2.4209,-2.3945,-2.374,-2.3506,-2.3437,-2.3344,-2.3149,-2.3091,-2.3091,-2.3091,-2.3091,-2.3091,-2.3091,-2.3091,-2.3091,-2.3091,-2.3091,-2.3091,-2.3091,-2.3091,-2.3091,-2.3091,-2.3091,-2.3091,-2.3091,-2.2402,-2.1885,-2.1885,-2.1134,-2.0605,-2.0605,-2.0605,-2.0605,-2.0605,-2.0605,-2.0605,-2.0605,-2.0605,-2.0605,-2.0605,-2.1011,-2.1221,-2.1221,-2.1707,-2.1935,-2.1935,-2.1935,-2.1935,-1.4658,-1.7232,-1.9756,-1.7779,0.0,0.0,0.0,0.0,0.0,0.0,0.0,0.0,0.0,0.0,0.0,0.0,-2.2236,-2.2656,-2.3033,-2.3091,-2.3091,-2.3091,-2.3091,-2.3091,-2.3091,-2.3091,-2.3091,-2.3091,-2.3091,-2.3091,-2.3091,-2.3091,-2.3091,-2.3091,-2.3091,-2.3091,-2.3091,-2.3091,-2.3091,-2.3091,-2.3091,-2.3091,-2.3091,-2.3091,-2.3091,-2.3091,-2.3091,-2.3091,-2.3091,-2.3091,-2.3091,-2.313,-2.3506,-2.3633,-2.3691,-2.4111,-2.4268,-2.4287,-2.4385,-2.4414,-2.4394,-2.4307,-2.4268,-2.4189,-2.3769,-2.3633,-2.3564,-2.3188,-2.3091,-2.3091,-2.3091,-2.3091,-2.3091,-2.3091,-2.3091,-2.3091,-2.3091,-2.3091,-2.3091,-2.3091,-2.3091,-2.3091,-2.3091,-2.3091,-2.3091,-2.3091,-2.3091,-2.3091,-2.3091,-2.2402,-2.1885,-2.1885,-2.1134,-2.0605,-2.0605,-2.0605,-2.0605,-2.0605,-2.0605,-2.0605,-2.0605,-2.0605,-2.0605,-2.0605,-2.0605,-2.0605,-2.0605,-2.0605,-2.0605,-2.0605,-2.0605,-2.0605,-1.3884,-1.6356,-1.8838,-1.7585,-1.8948,0.0,0.0,0.0,0.0,-2.0605,0.0,0.0,0.0,0.0,0.0,0.0,-2.2236,-2.2656,-2.3033,0.0,-2.3091,-2.3091,-2.3091,-2.3091,-2.3091,-2.3091,-2.3091,-2.3091,-2.3091,-2.3091,-2.3091,-2.3091,-2.3091,-2.3091,-2.3091,-2.3091,-2.3091,-2.3091,-2.3091,-2.3091,-2.3091,-2.3091,-2.3091,-2.3091,-2.3091,-2.3091,-2.3091,-2.3091,-2.3091,-2.3091,-2.3091,-2.3101,-2.313,-2.314,-2.3198,-2.3672,-2.3838,-2.3896,-2.4277,-2.4414,-2.4355,-2.3965,-2.3838,-2.375,-2.3276,-2.314,-2.314,-2.3101,-2.3091,-2.3091,-2.3091,-2.3091,-2.3091,-2.3091,-2.3091,-2.3091,-2.3091,-2.3091,-2.3091,-2.3091,-2.3091,-2.3091,-2.3091,-2.3091,-2.3091,-2.3091,-2.3091,-2.3091,-2.3091,-2.2402,-2.1885,-2.1885,-2.1134,-2.0605,-2.0605,-2.0605,-2.0605,-2.0605,-2.0605,-2.0605,-2.0605,-2.0605,-2.0605,-2.0605,-2.0605,-2.0605,-2.0605,-2.0605,-2.0605,-2.0605,-2.0605,-2.0605,-1.3838,-1.6259,-1.8718,-1.7585,0.0,0.0,0.0,0.0,-1.9795,-2.044,-2.0605,0.0,0.0,0.0,-2.1055,-2.1768,-2.2021,-2.2353,-2.3003,-2.3091,-2.3091,-2.3091,-2.3091,-2.3091,-2.3091,-2.3091,-2.3091,-2.3091,-2.3091,-2.3091,-2.3091,-2.3091,-2.3091,-2.3091,-2.3091,-2.3091,-2.3091,-2.3091,-2.3091,-2.3091,-2.3091,-2.3091,-2.3091,-2.3091,-2.3091,-2.3091,-2.3091,-2.3091,-2.3091,-2.3091,-2.3091,-2.3091,-2.3091,-2.3091,-2.311,-2.3276,-2.3344,-2.3408,-2.352,-2.3578,-2.3549,-2.3393,-2.3344,-2.3305,-2.314,-2.3091,-2.3091,-2.3091,-2.3091,-2.3091,-2.3091,-2.3091,-2.3091,-2.3091,-2.3091,-2.3091,-2.3091,-2.3091,-2.3091,-2.3091,-2.3091,-2.3091,-2.3091,-2.3091,-2.3091,-2.3091,-2.3091,-2.3091,-2.3091,-2.2637,-2.2178,-2.1914,-2.1134,-2.0605,-2.0605,-2.0605,-2.0605,-2.0605,-2.0605,-2.0605,-2.0605,-2.0605,-2.0605,-2.0605,-2.0605,-2.0605,-2.0605,-2.0605,-2.0605,-2.0605,-2.0605,-2.0605,-1.4347,-1.6581,-1.8798,0.0,0.0,0.0,0.0,0.0,0.0,-2.0362,-2.0605,0.0,0.0,0.0,0.0,0.0,-2.1885,-2.2178,-2.2974,-2.3091,-2.3091,-2.3091,-2.3091,-2.3091,-2.3091,-2.3091,-2.3091,-2.3091,-2.3091,-2.3091,-2.3091,-2.3091,-2.3091,-2.3091,-2.3091,-2.3091,-2.3091,-2.3091,-2.3091,-2.3091,-2.3091,-2.3091,-2.3091,-2.3091,-2.3091,-2.3091,-2.3091,-2.3091,-2.3091,-2.3091,-2.3091,-2.3091,-2.3091,-2.3091,-2.3091,-2.3091,-2.3091,-2.3091,-2.3091,-2.3091,-2.3091,-2.3091,-2.3091,-2.3091,-2.3091,-2.3091,-2.3091,-2.3091,-2.3091,-2.3091,-2.3091,-2.3091,-2.3091,-2.3091,-2.3091,-2.3091,-2.3091,-2.3091,-2.3091,-2.3091,-2.3091,-2.3091,-2.3091,-2.3091,-2.3091,-2.3091,-2.3091,-2.3091,-2.3091,-2.273,-2.2295,-2.1738,-2.1006,-2.0605,-2.0605,-2.0605,-2.0605,-2.0605,-2.0605,-2.0605,-2.0605,-2.0605,-2.0605,-2.0605,-2.0605,-2.0605,-2.0605,-2.0605,-2.0605,-2.0605,-2.0605,-2.0605,-1.5524,-1.7285,-1.8997,0.0,0.0,0.0,0.0,0.0,0.0,0.0,0.0,-2.0605,-2.0605,0.0,0.0,-2.1738,-2.1885,-2.2178,-2.2974,-2.3091,-2.3091,-2.3091,-2.3091,-2.3091,-2.3091,-2.3091,-2.3091,-2.3091,-2.3091,-2.3091,-2.3091,-2.3091,-2.3091,-2.3091,-2.3091,-2.3091,-2.3091,-2.3091,-2.3091,-2.3091,-2.3091,-2.3091,-2.3091,-2.3091,-2.3091,-2.3091,-2.3091,-2.3091,-2.3091,-2.3091,-2.3091,-2.3091,-2.3091,-2.3091,-2.3091,-2.3091,-2.3091,-2.3091,-2.3091,-2.3091,-2.3091,-2.3091,-2.3091,-2.3091,-2.3091,-2.3091,-2.3091,-2.3091,-2.3091,-2.3091,-2.3091,-2.3091,-2.3091,-2.3091,-2.3091,-2.3091,-2.3091,-2.3091,-2.3091,-2.3091,-2.3091,-2.3091,-2.3091,-2.3091,-2.3091,-2.3091,-2.3091,-2.3091,-2.3091,-2.2773,-2.2178,-2.1298,-2.083,-2.0605,-2.0605,-2.0605,-2.0605,-2.0605,-2.0605,-2.0605,-2.0605,-2.0605,-2.0605,-2.0605,-2.0605,-2.0605,-2.0605,-2.0605,-2.0605,-2.0605,-2.0605,-2.0605,-1.4462,-1.6165,0.0,0.0,0.0,0.0,0.0,0.0,0.0,0.0,0.0,-2.0605,-2.0605,0.0,0.0,-2.1338,-2.168,-2.207,-2.2617,-2.2906,-2.3091,-2.3091,-2.3091,-2.3091,-2.3091,-2.3091,-2.3091,-2.3091,-2.3091,-2.3091,-2.3091,-2.3091,-2.3091,-2.3091,-2.3091,-2.3091,-2.3091,-2.3091,-2.3091,-2.3091,-2.3091,-2.3091,-2.3091,-2.3091,-2.3091,-2.3091,-2.3091,-2.3091,-2.3091,-2.3091,-2.3091,-2.3091,-2.3091,-2.3091,-2.3091,-2.3091,-2.3091,-2.3091,-2.3091,-2.3091,-2.3091,-2.3091,-2.3091,-2.3091,-2.3091,-2.3091,-2.3091,-2.3091,-2.3091,-2.3091,-2.3091,-2.3091,-2.3091,-2.3091,-2.3091,-2.3091,-2.3091,-2.3091,-2.3091,-2.3091,-2.3091,-2.3091,-2.3091,-2.3091,-2.3091,-2.3091,-2.3091,-2.3091,-2.3091,-2.251,-2.1973,-2.1719,-2.1055,-2.0605,-2.0605,-2.0605,-2.0605,-2.0605,-2.0605,-2.0605,-2.0605,-2.0605,-2.0605,-2.0605,-2.0605,-2.0605,-2.0605,-2.0605,-2.0605,-2.0605,-2.0605,-2.0605,-1.5827,0.0,0.0,0.0,0.0,0.0,0.0,0.0,0.0,0.0,0.0,-2.0079,-2.0527,-2.0605,0.0,-2.1122,-2.1602,-2.1855,-2.1783,-2.2138,-2.2217,-2.173,-2.1676,-2.1676,-2.1676,-2.1676,-2.1676,-2.1676,-2.1676,-2.1676,-2.1676,-2.1676,-2.1676,-2.1676,-2.1676,-2.1908,-2.2403,-2.2403,-2.2633,-2.3091,-2.3091,-2.3091,-2.3091,-2.3091,-2.3091,-2.3091,-2.3091,-2.3091,-2.3091,-2.3091,-2.3091,-2.3091,-2.3091,-2.3091,-2.3091,-2.3091,-2.3091,-2.3091,-2.3091,-2.3091,-2.3091,-2.3091,-2.3091,-2.3091,-2.3091,-2.3091,-2.3091,-2.3091,-2.3091,-2.3091,-2.3091,-2.3091,-2.3091,-2.3091,-2.3091,-2.3091,-2.3091,-2.3091,-2.3091,-2.3091,-2.3091,-2.3091,-2.3091,-2.3091,-2.3091,-2.3091,-2.3091,-2.3091,-2.3091,-2.2402,-2.1885,-2.1885,-2.1134,-2.0605,-2.0605,-2.0605,-2.0605,-2.0605,-2.0605,-2.0605,-2.0605,-2.0605,-2.0605,-2.0605,-2.0605,-2.0605,-2.0605,-2.0605,-2.0605,-2.0605,-2.0605,-2.0605,-1.8364,0.0,0.0,0.0,0.0,0.0,0.0,0.0,-1.9116,-2.0079,0.0,-1.9283,-2.0118,-2.0362,-2.0576,-2.0944,-2.137,-2.1486,-2.0875,-2.1039,-2.0846,-1.9798,-1.9588,-1.9497,-1.9497,-1.9497,-1.9497,-1.9497,-1.9497,-1.9497,-1.9497,-1.9497,-1.9497,-1.9497,-1.9497,-2.0034,-2.1114,-2.1159,-2.1667,-2.2775,-2.2775,-2.2775,-2.2775,-2.3003,-2.3091,-2.3091,-2.3091,-2.3091,-2.3091,-2.3091,-2.3091,-2.3091,-2.3091,-2.3091,-2.3091,-2.3091,-2.3091,-2.3091,-2.3091,-2.3091,-2.3091,-2.3091,-2.3091,-2.3091,-2.3091,-2.3091,-2.3091,-2.3091,-2.3091,-2.3091,-2.3091,-2.3091,-2.3091,-2.3091,-2.3091,-2.3091,-2.3091,-2.3091,-2.3091,-2.3091,-2.3091,-2.3091,-2.3091,-2.3091,-2.3091,-2.3091,-2.3091,-2.3091,-2.3091,-2.2402,-2.1885,-2.1885,-2.1134,-2.0605,-2.0605,-2.0605,-2.0605,-2.0605,-2.0605,-2.0605,-2.0605,-2.0605,-2.0605,-2.0605,-2.0605,-2.0605,-2.0605,-2.0605,-2.0605,-2.0605,-2.0605,-2.0605,0.0,-1.7204,0.0,0.0,0.0,0.0,0.0,0.0,0.0,-1.794,-1.855,-1.8798,-1.8141,-1.8749,-1.939,-1.9442,-1.9832,-2.0452,-2.1518,-2.1176,-2.0862,-2.0899,-2.0079,-1.9497,-1.9497,-1.9497,-1.9497,-1.9497,-1.9497,-1.9497,-1.9497,-1.9497,-1.9497,-1.9497,-1.9497,-1.9625,-1.9898,-1.9898,-2.0034,-2.026,-2.026,-2.026,-2.0359,-2.2227,-2.3091,-2.3091,-2.3091,-2.3091,-2.3091,-2.3091,-2.3091,-2.3091,-2.3091,-2.3091,-2.3091,-2.3091,-2.3091,-2.3091,-2.3091,-2.3091,-2.3091,-2.3091,-2.3091,-2.3091,-2.3091,-2.3091,-2.3091,-2.3091,-2.3091,-2.3091,-2.3091,-2.3091,-2.3091,-2.3091,-2.3091,-2.3091,-2.3091,-2.3091,-2.3091,-2.3091,-2.3091,-2.3091,-2.3091,-2.3091,-2.3091,-2.3091,-2.3091,-2.3091,-2.3091,-2.2402,-2.1885,-2.1885,-2.1134,-2.0605,-2.0605,-2.0605,-2.0605,-2.0605,-2.0605,-2.0605,-2.0605,-2.0605,-2.0605,-2.0605,-2.0605,-2.0605,-2.0605,-2.0605,-2.0605,-2.0605,-2.0605,-2.0605,0.0,0.0,0.0,0.0,0.0,0.0,0.0,0.0,0.0,-1.5876,-1.6642,-1.7407,-1.7293,-1.7787,-1.8189,-1.8189,-1.8542,-1.8904,-1.9104,-1.9082,-1.8876,-1.8523,-1.8018,-1.7708,-1.7708,-1.7708,-1.7708,-1.7708,-1.7708,-1.7708,-1.7708,-1.7708,-1.7708,-1.7708,-1.7708,-1.7949,-1.8374,-1.8411,-1.8691,-1.9331,-1.9331,-1.9377,-1.9542,-2.0809,-2.1676,-2.2262,-2.2262,-2.2262,-2.2262,-2.2862,-2.3091,-2.3091,-2.3091,-2.3091,-2.3091,-2.3091,-2.3091,-2.3091,-2.3091,-2.3091,-2.3091,-2.3091,-2.3091,-2.3091,-2.3091,-2.3091,-2.3003,-2.2403,-2.2262,-2.2262,-2.2262,-2.2262,-2.2403,-2.296,-2.3091,-2.3091,-2.3091,-2.3091,-2.3091,-2.3091,-2.3091,-2.3091,-2.3091,-2.3091,-2.3091,-2.3091,-2.3091,-2.3091,-2.3091,-2.2402,-2.1885,-2.1885,-2.1134,-2.0605,-2.0605,-2.0605,-2.0605,-2.0605,-2.0605,-2.0605,-2.0605,-2.0605,-2.0605,-2.0605,-2.0605,-2.0605,-2.0605,-2.0605,-2.0605,-2.0605,-2.0605,-2.0605,0.0,0.0,0.0,0.0,0.0,0.0,0.0,0.0,0.0,-1.4328,-1.4936,-1.5902,-1.6609,-1.6887,-1.7009,-1.7009,-1.7343,-1.7345,-1.6557,-1.6777,-1.666,-1.5755,-1.5711,-1.5752,-1.5752,-1.5751,-1.5784,-1.5784,-1.5784,-1.5784,-1.5784,-1.5785,-1.5752,-1.5752,-1.5705,-1.6009,-1.6816,-1.6816,-1.7356,-1.8382,-1.8382,-1.8714,-1.9307,-1.8964,-1.9703,-2.1293,-2.1293,-2.1436,-2.1712,-2.2677,-2.3091,-2.3091,-2.3091,-2.3091,-2.3091,-2.3091,-2.3091,-2.3091,-2.3091,-2.3091,-2.3057,-2.2862,-2.2775,-2.2775,-2.2545,-2.2501,-2.2271,-2.1257,-2.098,-2.1025,-2.1248,-2.1293,-2.1614,-2.2818,-2.3091,-2.3091,-2.3091,-2.3091,-2.3091,-2.3091,-2.3091,-2.3091,-2.3091,-2.3091,-2.3091,-2.3091,-2.3091,-2.3091,-2.3091,-2.2402,-2.1885,-2.1885,-2.1134,-2.0605,-2.0605,-2.0605,-2.0605,-2.0605,-2.0605,-2.0605,-2.0605,-2.0605,-2.0605,-2.0605,-2.0605,-2.0605,-2.0605,-2.0605,-2.0605,-2.0605,-2.0605,-2.0605,0.0,0.0,0.0,0.0,0.0,0.0,0.0,0.0,0.0,0.0,-1.4936,-1.5455,-1.4657,-1.5304,-1.5902,-1.5902,-1.5982,-1.6402,-1.7579,-1.6897,-1.6334,-1.6573,-1.5934,-1.5451,-1.5451,-1.5678,-1.5784,-1.5784,-1.5784,-1.5784,-1.5784,-1.5591,-1.5451,-1.5451,-1.5211,-1.5147,-1.528,-1.528,-1.5369,-1.5549,-1.5549,-1.661,-1.8485,-1.6762,-1.7888,-2.1293,-2.1293,-2.1889,-2.2862,-2.3047,-2.3091,-2.3091,-2.3091,-2.3091,-2.3091,-2.3091,-2.3091,-2.3091,-2.3091,-2.3091,-2.2916,-2.1889,-2.1525,-2.1346,-2.0305,-1.9988,-1.9951,-1.9807,-1.9716,-1.9988,-2.1025,-2.1293,-2.1614,-2.2818,-2.3091,-2.3091,-2.3091,-2.3091,-2.3091,-2.3091,-2.3091,-2.3091,-2.3091,-2.3091,-2.3091,-2.3091,-2.3091,-2.3091,-2.3091,-2.2402,-2.1885,-2.1885,-2.1134,-2.0605,-2.0605,-2.0605,-2.0605,-2.0605,-2.0605,-2.0605,-2.0605,-2.0605,-2.0605,-2.0605,-2.0605,-2.0605,-2.0605,-2.0605,-2.0605,-2.0605,-2.0605,-2.0605,0.0,0.0,0.0,0.0,0.0,0.0,0.0,0.0,0.0,-1.4208,-1.4489,-1.465,-1.4173,-1.4496,-1.4817,-1.4817,-1.4817,-1.5027,-1.571,-1.5461,-1.5281,-1.5502,-1.5322,-1.5202,-1.5202,-1.5271,-1.5344,-1.5344,-1.5344,-1.5344,-1.5344,-1.5224,-1.5202,-1.5202,-1.5075,-1.4928,-1.4716,-1.4716,-1.4716,-1.4716,-1.4928,-1.5524,-1.6485,-1.558,-1.7303,-2.0889,-1.9768,-1.9951,-2.1087,-2.1087,-2.1087,-2.1087,-2.1087,-2.1087,-2.1087,-2.1087,-2.1087,-2.1087,-2.1087,-2.1087,-2.0998,-2.044,-2.0305,-2.0215,-1.967,-1.9497,-1.936,-1.868,-1.8503,-1.8588,-1.9131,-1.9268,-1.9588,-2.0818,-2.1087,-2.1087,-2.1087,-2.1623,-2.1898,-2.1221,-2.1087,-2.1087,-2.1087,-2.1087,-2.1087,-2.1087,-2.1667,-2.2076,-2.2076,-2.1959,-2.1885,-2.1885,-2.1134,-2.0605,-2.0605,-2.0605,-2.0605,-2.0605,-2.0605,-2.0605,-2.0605,-2.0605,-2.0605,-2.0605,-2.0605,-2.0605,-2.0605,-2.0605,-2.0605,-2.0605,-2.0605,-2.0605,0.0,0.0,0.0,0.0,0.0,0.0,0.0,0.0,-1.4088,0.0,-1.4088,-1.4088,-1.4088,-1.4088,-1.4088,-1.4088,-1.4088,-1.4088,-1.4088,-1.4275,-1.4409,-1.4409,-1.4669,-1.485,-1.485,-1.4961,-1.5008,-1.5008,-1.5008,-1.5008,-1.5008,-1.4941,-1.485,-1.485,-1.4827,-1.4636,-1.4409,-1.4409,-1.4409,-1.4409,-1.4636,-1.4913,-1.517,-1.4987,-1.6741,-1.992,-1.8224,-1.8146,-1.9261,-1.9261,-1.9319,-1.941,-1.941,-1.9459,-1.9497,-1.9497,-1.9497,-1.9497,-1.9497,-1.9497,-1.9451,-1.9131,-1.9039,-1.8993,-1.8672,-1.858,-1.8357,-1.7451,-1.7225,-1.7271,-1.7598,-1.7692,-1.8002,-1.9222,-1.9497,-1.9497,-1.9497,-2.0215,-2.0576,-1.967,-1.9497,-1.9497,-1.9497,-1.9497,-1.9497,-1.9497,-2.0531,-2.1293,-2.1293,-2.1641,-2.1885,-2.1885,-2.1134,-2.0605,-2.0605,-2.0605,-2.0605,-2.0605,-2.0605,-2.0605,-2.0605,-2.0605,-2.0605,-2.0605,-2.0605,-2.0605,-2.0605,-2.0605,-2.0605,-2.0605,-2.0605,-2.0605,0.0,0.0,0.0,0.0,0.0,0.0,0.0,0.0,0.0,-1.4088,-1.4088,-1.4088,-1.4088,-1.4088,-1.4088,-1.4088,-1.4088,-1.4088,-1.4088,-1.4102,-1.4108,-1.4108,-1.4362,-1.4543,-1.4543,-1.4796,-1.5008,-1.5008,-1.5008,-1.5008,-1.5008,-1.4696,-1.4543,-1.4543,-1.4275,-1.4122,-1.4108,-1.4108,-1.4108,-1.4108,-1.4122,-1.4663,-1.5639,-1.4869,-1.5856,-1.8087,-1.7231,-1.7509,-1.8637,-1.8637,-1.8846,-1.9118,-1.9118,-1.9289,-1.9497,-1.9497,-1.9497,-1.9497,-1.9497,-1.9497,-1.9314,-1.8187,-1.7777,-1.7544,-1.6339,-1.6015,-1.5967,-1.592,-1.592,-1.6204,-1.7412,-1.7692,-1.8002,-1.9222,-1.9497,-1.9497,-1.9497,-1.9542,-1.9579,-1.9488,-1.9497,-1.9497,-1.9497,-1.9497,-1.9497,-1.9497,-2.0531,-2.1293,-2.1293,-2.1641,-2.1885,-2.1885,-2.1134,-2.0605,-2.0605,-2.0605,-2.0605,-2.0605,-2.0605,-2.0605,-2.0605,-2.0605,-2.0605,-2.0605,-2.0605,-2.0605,-2.0605,-2.0605,-2.0605,-2.0605,-2.0605,-2.0605,0.0,0.0,0.0,0.0,0.0,0.0,0.0,0.0,-1.4088,-1.4088,-1.4088,-1.4088,-1.4088,-1.4088,-1.4088,-1.4088,-1.4088,-1.4088,-1.4088,-1.4088,-1.4088,-1.4088,-1.4175,-1.4242,-1.4242,-1.4335,-1.4402,-1.4402,-1.4402,-1.4402,-1.4402,-1.4302,-1.4242,-1.4242,-1.4142,-1.4088,-1.4088,-1.4088,-1.4088,-1.4088,-1.4088,-1.4292,-1.4657,-1.4358,-1.4697,-1.5485,-1.5184,-1.5957,-1.7367,-1.6602,-1.6374,-1.6476,-1.6476,-1.6549,-1.6606,-1.6606,-1.6606,-1.6606,-1.6606,-1.6606,-1.6561,-1.6123,-1.6081,-1.6149,-1.5691,-1.5678,-1.5784,-1.5784,-1.5784,-1.5927,-1.6339,-1.648,-1.6567,-1.7023,-1.7117,-1.7117,-1.7117,-1.7762,-1.8087,-1.7296,-1.7117,-1.7117,-1.7117,-1.7117,-1.7117,-1.7117,-1.8172,-1.9268,-2.0034,-1.9878,-2.0232,-2.1751,-2.0514,-1.9835,-2.0527,-2.0605,-2.0605,-2.0605,-2.0605,-2.0605,-2.0605,-2.0605,-2.0605,-2.0605,-2.0605,-2.0605,-2.0605,-2.0605,-2.0605,-2.0605,-2.0605,-2.0605,0.0,0.0,0.0,0.0,0.0,0.0,0.0,0.0,-1.4088,-1.4088,-1.4088,-1.4088,-1.4088,-1.4088,-1.4088,-1.4088,-1.4088,-1.4088,-1.4088,-1.4088,-1.4088,-1.4088,-1.4088,-1.4088,-1.4088,-1.4088,-1.4088,-1.4088,-1.4088,-1.4088,-1.4088,-1.4088,-1.4088,-1.4088,-1.4088,-1.4088,-1.4088,-1.4088,-1.4088,-1.4088,-1.4088,-1.4088,-1.4088,-1.4088,-1.4088,-1.4088,-1.4088,-1.4759,-1.585,-1.5051,-1.4767,-1.4816,-1.4816,-1.4921,-1.5008,-1.5008,-1.5008,-1.5008,-1.5008,-1.5008,-1.5008,-1.5008,-1.5142,-1.5251,-1.5251,-1.5384,-1.5538,-1.5538,-1.5538,-1.5538,-1.5538,-1.5538,-1.5565,-1.5658,-1.5685,-1.5712,-1.5758,-1.648,-1.6803,-1.5967,-1.5784,-1.5784,-1.5784,-1.5784,-1.5784,-1.5784,-1.6897,-1.7964,-1.8643,-1.8523,-1.8974,-2.0435,-1.9273,-1.8709,-1.9432,-1.9471,-1.9471,-1.9471,-1.9835,-2.004,-2.004,-2.0401,-2.0605,-2.0605,-2.0605,-2.0605,-2.0605,-2.0605,-2.0605,-2.0605,-2.0605,-2.0605,0.0,0.0,0.0,0.0,0.0,0.0,-1.4088,0.0,-1.4088,-1.4088,-1.4088,-1.4088,-1.4088,-1.4088,-1.4088,-1.4088,-1.4088,-1.4088,-1.4088,-1.4088,-1.4088,-1.4088,-1.4088,-1.4088,-1.4088,-1.4088,-1.4088,-1.4088,-1.4088,-1.4088,-1.4088,-1.4088,-1.4088,-1.4088,-1.4088,-1.4088,-1.4088,-1.4088,-1.4088,-1.4088,-1.4088,-1.4088,-1.4088,-1.4088,-1.4088,-1.4088,-1.4088,-1.4088,-1.4088,-1.4088,-1.4255,-1.4502,-1.4502,-1.4683,-1.4981,-1.4981,-1.4981,-1.4981,-1.4981,-1.4981,-1.4981,-1.4981,-1.4988,-1.4995,-1.4995,-1.5001,-1.5008,-1.5008,-1.5008,-1.5008,-1.5008,-1.5008,-1.5082,-1.5317,-1.5384,-1.5464,-1.5745,-1.5758,-1.5758,-1.5778,-1.5784,-1.5784,-1.5784,-1.5771,-1.5764,-1.5764,-1.6828,-1.7535,-1.7236,-1.7826,-1.8224,-1.8004,-1.7557,-1.7261,-1.7302,-1.7302,-1.7302,-1.7302,-1.835,-1.8957,-1.8997,-2.0001,-2.0566,-2.0605,-2.0605,-2.0605,-2.0605,-2.0605,-2.0605,-2.0605,-2.0605,-2.0605,-1.4088,0.0,0.0,0.0,0.0,0.0,0.0,0.0,0.0,-1.4088,-1.4088,-1.4088,-1.4088,-1.4088,-1.4088,-1.4088,-1.4088,-1.4088,-1.4088,-1.4088,-1.4088,-1.4088,-1.4088,-1.4088,-1.4088,-1.4088,-1.4088,-1.4088,-1.4088,-1.4088,-1.4088,-1.4088,-1.4088,-1.4088,-1.4088,-1.4088,-1.4088,-1.4088,-1.4088,-1.4088,-1.4088,-1.4088,-1.4088,-1.4088,-1.4088,-1.4088,-1.4088,-1.4088,-1.4088,-1.4088,-1.4135,-1.4208,-1.4208,-1.4255,-1.4329,-1.4329,-1.4329,-1.4329,-1.4329,-1.4329,-1.4329,-1.4329,-1.4476,-1.4643,-1.4643,-1.4796,-1.5008,-1.5008,-1.5008,-1.5008,-1.5008,-1.5008,-1.5028,-1.5109,-1.5129,-1.5149,-1.519,-1.5204,-1.5331,-1.5698,-1.5784,-1.5784,-1.5784,-1.5658,-1.5518,-1.5518,-1.5652,-1.601,-1.6825,-1.6148,-1.6223,-1.7811,-1.6889,-1.6478,-1.7212,-1.7302,-1.7302,-1.7302,-1.7585,-1.8149,-1.8957,-1.9283,-1.9805,-2.0566,-2.0605,-2.0605,-2.0605,-2.0605,-2.0605,-2.0605,-2.0605,-2.0605,0.0,0.0,0.0,0.0,0.0,0.0,-1.4088,-1.4088,-1.4088,0.0,-1.4088,-1.4088,-1.4088,-1.4088,-1.4088,-1.4088,-1.4088,-1.4088,-1.4088,-1.4088,-1.4088,-1.4088,-1.4088,-1.4088,-1.4088,-1.4088,-1.4088,-1.4088,-1.4088,-1.4088,-1.4088,-1.4088,-1.4088,-1.4088,-1.4088,-1.4088,-1.4088,-1.4088,-1.4088,-1.4088,-1.4088,-1.4088,-1.4088,-1.4088,-1.4088,-1.4088,-1.4088,-1.4088,-1.4088,-1.4088,-1.4088,-1.4088,-1.4088,-1.4088,-1.4088,-1.4088,-1.4088,-1.4088,-1.4088,-1.4088,-1.4088,-1.4088,-1.4202,-1.4342,-1.4342,-1.4462,-1.464,-1.464,-1.464,-1.464,-1.464,-1.464,-1.4673,-1.475,-1.4776,-1.481,-1.4981,-1.5008,-1.5109,-1.5404,-1.5471,-1.5471,-1.5471,-1.5331,-1.5217,-1.5217,-1.5115,-1.5222,-1.5769,-1.5046,-1.4974,-1.6228,-1.558,-1.5304,-1.5918,-1.5959,-1.5959,-1.5959,-1.6813,-1.7585,-1.827,-1.9195,-1.9962,-2.0605,-2.0605,-2.0605,-2.0605,-2.0605,-2.0605,-2.0605,-2.0605,-2.0605,0.0,0.0,0.0,0.0,-1.4088,0.0,-1.4088,-1.4088,-1.4088,0.0,-1.4088,-1.4088,-1.4088,-1.4088,-1.4088,-1.4088,-1.4088,-1.4088,-1.4088,-1.4088,-1.4088,-1.4088,-1.4088,-1.4088,-1.4088,-1.4088,-1.4088,-1.4088,-1.4088,-1.4088,-1.4088,-1.4088,-1.4088,-1.4088,-1.4088,-1.4088,-1.4088,-1.4088,-1.4088,-1.4088,-1.4088,-1.4088,-1.4088,-1.4088,-1.4088,-1.4088,-1.4088,-1.4088,-1.4088,-1.4088,-1.4088,-1.4088,-1.4088,-1.4088,-1.4088,-1.4088,-1.4088,-1.4088,-1.4088,-1.4088,-1.4088,-1.4088,-1.4088,-1.4088,-1.4088,-1.4088,-1.4088,-1.4088,-1.4088,-1.4088,-1.4088,-1.4088,-1.4155,-1.4409,-1.4476,-1.4543,-1.4854,-1.4908,-1.4908,-1.4908,-1.4961,-1.5008,-1.5008,-1.4981,-1.4961,-1.4961,-1.4934,-1.477,-1.4502,-1.4476,-1.4369,-1.4115,-1.4088,-1.4088,-1.4088,-1.4088,-1.4088,-1.4088,-1.5876,-1.7058,-1.7293,-1.9186,-2.0362,-2.0605,-2.0605,-2.0605,-2.0605,-2.0605,-2.0605,-2.0605,-2.0605,-2.0605,0.0,0.0,-1.4088,-1.4088,-1.4088,0.0,-1.4088,-1.4088,-1.4088,0.0,-1.4088,-1.4088,-1.4088,-1.4088,-1.4088,-1.4088,-1.4088,-1.4088,-1.4088,-1.4088,-1.4088,-1.4088,-1.4088,-1.4088,-1.4088,-1.4088,-1.4088,-1.4088,-1.4088,-1.4088,-1.4088,-1.4088,-1.4088,-1.4088,-1.4088,-1.4088,-1.4088,-1.4088,-1.4088,-1.4088,-1.4088,-1.4088,-1.4088,-1.4088,-1.4088,-1.4088,-1.4088,-1.4088,-1.4088,-1.4088,-1.4088,-1.4088,-1.4088,-1.4088,-1.4088,-1.4088,-1.4088,-1.4088,-1.4088,-1.4088,-1.4088,-1.4088,-1.4088,-1.4088,-1.4088,-1.4088,-1.4088,-1.4088,-1.4088,-1.4088,-1.4088,-1.4088,-1.4102,-1.4162,-1.4168,-1.4188,-1.4242,-1.4262,-1.4262,-1.4262,-1.468,-1.5008,-1.5008,-1.4763,-1.4603,-1.4603,-1.4409,-1.4235,-1.4175,-1.4168,-1.4148,-1.4095,-1.4088,-1.4088,-1.4088,-1.4088,-1.4088,-1.4088,-1.4496,-1.5511,-1.7212,-1.7698,-1.8789,-2.0566,-2.0605,-2.0605,-2.0605,-2.0605,-2.0605,-2.0605,-2.0605,-2.0605,-1.4088,-1.4088,-1.4088,-1.4088,-1.4088,0.0,0.0,-1.4088,-1.4088,-1.4088,-1.4088,-1.4088,-1.4088,-1.4088,-1.3906,-1.3294,-1.3688,-1.3695,-1.2522,-1.3343,-1.4088,-1.4088,-1.4088,-1.4088,-1.4088,-1.4088,-1.4088,-1.4088,-1.4088,-1.4088,-1.4088,-1.4088,-1.4088,-1.4088,-1.4088,-1.4088,-1.4088,-1.4088,-1.4088,-1.4088,-1.4088,-1.4088,-1.4088,-1.4088,-1.4088,-1.4088,-1.4088,-1.4088,-1.4088,-1.4088,-1.4088,-1.4088,-1.4088,-1.4088,-1.4088,-1.4088,-1.4088,-1.4088,-1.4088,-1.4088,-1.4088,-1.4088,-1.4088,-1.4088,-1.4088,-1.4088,-1.4088,-1.4088,-1.4088,-1.4088,-1.4088,-1.4088,-1.4088,-1.4088,-1.4088,-1.4088,-1.4088,-1.4088,-1.4088,-1.4088,-1.4322,-1.4566,-1.4566,-1.4402,-1.4302,-1.4302,-1.4182,-1.4088,-1.4088,-1.4088,-1.4088,-1.4088,-1.4088,-1.4088,-1.4088,-1.4088,-1.4088,-1.4088,-1.4615,-1.5628,-1.7212,-1.7868,-1.8908,-2.0566,-2.0605,-2.0605,-2.0605,-2.0605,-2.0605,-2.0605,-2.0605,-2.0605,-1.4088,-1.4088,-1.4088,-1.4088,-1.4088,-1.4088,0.0,0.0,0.0,-1.4088,-1.4088,-1.4088,0.0,0.0,0.0,-1.2439,0.0,0.0,0.0,-1.2225,0.0,-1.3434,-1.3603,-1.3737,-1.3737,-1.3737,-1.3737,-1.3737,-1.3737,-1.3864,-1.4088,-1.4088,-1.4088,-1.4088,-1.4088,-1.4088,-1.4088,-1.4088,-1.4088,-1.4088,-1.4088,-1.4088,-1.4088,-1.4088,-1.4088,-1.4088,-1.4088,-1.4088,-1.4088,-1.4088,-1.4088,-1.4088,-1.4088,-1.4088,-1.4088,-1.4088,-1.4088,-1.4088,-1.4088,-1.4088,-1.4088,-1.4088,-1.4088,-1.4088,-1.4088,-1.4088,-1.4088,-1.4088,-1.4088,-1.4088,-1.4088,-1.4088,-1.4088,-1.4088,-1.4088,-1.4088,-1.4088,-1.4088,-1.4088,-1.4088,-1.4088,-1.4088,-1.4088,-1.4088,-1.4088,-1.4088,-1.4088,-1.4088,-1.4088,-1.4088,-1.4088,-1.4088,-1.4088,-1.4088,-1.4088,-1.4088,-1.4088,-1.4088,-1.4894,-1.5951,-1.7253,-1.859,-1.9717,-2.0566,-2.0605,-2.0605,-2.0605,-2.0605,-2.0605,-2.0605,-2.0605,-2.0605,-1.4088,-1.4088,-1.4088,-1.4088,-1.4088,-1.4088,-1.4088,0.0,-1.4088,-1.4088,0.0,-1.4088,-1.4088,0.0,0.0,0.0,0.0,0.0,-1.0464,-1.074,-1.0999,-1.0999,-1.1901,-1.2498,-1.2498,-1.2498,-1.2498,-1.2498,-1.2498,-1.2984,-1.4039,-1.4088,-1.4088,-1.4088,-1.4088,-1.4088,-1.4088,-1.4088,-1.4088,-1.4088,-1.4088,-1.4088,-1.4088,-1.4088,-1.4088,-1.4088,-1.4088,-1.4088,-1.4088,-1.4088,-1.4088,-1.4088,-1.4088,-1.4088,-1.4088,-1.4088,-1.4088,-1.4088,-1.4088,-1.4088,-1.4088,-1.4088,-1.4088,-1.4088,-1.4088,-1.4088,-1.4088,-1.4088,-1.4088,-1.4088,-1.4088,-1.4088,-1.4088,-1.4088,-1.4088,-1.4088,-1.4088,-1.4088,-1.4088,-1.4088,-1.4088,-1.4088,-1.4088,-1.4088,-1.4088,-1.4088,-1.4088,-1.4088,-1.4088,-1.4088,-1.4088,-1.4088,-1.4088,-1.4088,-1.4088,-1.4088,-1.4088,-1.4088,-1.4208,-1.5186,-1.722,-1.9313,-2.0479,-2.0605,-2.0605,-2.0605,-2.0605,-2.0605,-2.0605,-2.0605,-2.0605,-2.0605,-1.4088,-1.4088,-1.4088,-1.4088,-1.4088,-1.4088,-1.4088,-1.4088,-1.3906,-1.3203,0.0,0.0,0.0,0.0,0.0,0.0,-1.0421,-1.0101,0.0,0.0,-1.0611,-1.0611,0.0,-1.1552,-1.2242,-1.2285,-1.2589,-1.3294,-1.2717,-1.2808,-1.4039,-1.4088,-1.4088,-1.4088,-1.4088,-1.4088,-1.4088,-1.4088,-1.4088,-1.4088,-1.4088,-1.4088,-1.4088,-1.4088,-1.4088,-1.4088,-1.4088,-1.4088,-1.4088,-1.4088,-1.4088,-1.4088,-1.4088,-1.4088,-1.4088,-1.4088,-1.4088,-1.4088,-1.4088,-1.4088,-1.4088,-1.4088,-1.4088,-1.4088,-1.4088,-1.4088,-1.4088,-1.4088,-1.4088,-1.4088,-1.4088,-1.4088,-1.4088,-1.4088,-1.4088,-1.4088,-1.4088,-1.4088,-1.4088,-1.4088,-1.4088,-1.4088,-1.4088,-1.4088,-1.4088,-1.4088,-1.4088,-1.4088,-1.4088,-1.4088,-1.4088,-1.4088,-1.4088,-1.4088,-1.4088,-1.4088,-1.4088,-1.4088,-1.5269,-1.6363,-1.7261,-1.9432,-2.0605,-2.0605,-2.0605,-2.0605,-2.0605,-2.0605,-2.0605,-2.0605,-2.0605,-2.0605,-1.4088,-1.4088,-1.3997,-1.3688,-1.3864,-1.3997,-1.3688,-1.3864,-1.3779,-1.2547,-1.2285,0.0,0.0,0.0,0.0,0.0,0.0,-0.9035,0.0,-0.8543,0.0,-0.9657,-0.9918,-1.0351,-1.0816,-1.1166,-1.1863,-1.3039,-1.2035,-1.2169,-1.3997,-1.3779,-1.3779,-1.4088,-1.4088,-1.4088,-1.4088,-1.4088,-1.4088,-1.4088,-1.4088,-1.4088,-1.4088,-1.4088,-1.4088,-1.4088,-1.4088,-1.4088,-1.4088,-1.4088,-1.4088,-1.4088,-1.4088,-1.4088,-1.4088,-1.4088,-1.4088,-1.4088,-1.4088,-1.4088,-1.4088,-1.4088,-1.4088,-1.4088,-1.4088,-1.4088,-1.4088,-1.4088,-1.4088,-1.4088,-1.4088,-1.4088,-1.4088,-1.4088,-1.4088,-1.4088,-1.4088,-1.4088,-1.4088,-1.4088,-1.4088,-1.4088,-1.4088,-1.4088,-1.4088,-1.4088,-1.4088,-1.4088,-1.4088,-1.4088,-1.4088,-1.4088,-1.4088,-1.4088,-1.4088,-1.4088,-1.4088,-1.4088,-1.5835,-1.6846,-1.6846,-1.8988,-2.0157,-2.0157,-2.044,-2.0605,-2.0605,-2.0605,-2.0605,-2.0605,-2.0605,-2.0605,-1.4088,-1.4088,-1.3822,-1.2632,-1.3245,-1.3779,-1.2632,-1.3252,-1.3779,-1.2547,-1.2285,-1.1938,-1.0826,0.0,0.0,0.0,0.0,0.0,0.0,0.0,-0.7228,-0.7228,-0.8233,-0.8496,-0.7356,-0.8321,-0.9492,-1.0611,-0.9666,-1.0491,-1.3913,-1.2984,-1.2899,-1.4046,-1.4088,-1.4088,-1.4088,-1.4088,-1.4088,-1.4088,-1.4088,-1.4088,-1.4088,-1.4088,-1.4088,-1.4088,-1.4088,-1.4088,-1.4088,-1.4088,-1.4088,-1.4088,-1.4088,-1.4088,-1.4088,-1.4088,-1.4088,-1.4088,-1.4088,-1.4088,-1.4088,-1.4088,-1.4088,-1.4088,-1.4088,-1.4088,-1.4088,-1.4088,-1.4088,-1.4088,-1.4088,-1.4088,-1.4088,-1.4088,-1.4088,-1.4088,-1.4088,-1.4088,-1.4088,-1.4088,-1.4088,-1.4088,-1.4088,-1.4088,-1.4088,-1.4088,-1.4088,-1.4088,-1.4088,-1.4088,-1.4088,-1.4088,-1.4088,-1.4088,-1.4088,-1.4088,-1.4088,-1.4088,-1.5137,-1.5737,-1.5737,-1.79,-1.9036,-1.9036,-2.0079,-2.0605,-2.0605,-2.0605,-2.0605,-2.0605,-2.0605,-2.0605,-1.4088,-1.4088,-1.3997,-1.3597,-1.3779,-1.3779,-1.2589,-1.2632,-1.2382,-1.0438,-1.0053,-0.9705,-0.8488,0.0,0.0,0.0,0.0,0.0,0.0,0.0,-0.7095,-0.7095,-0.8145,-0.8759,-0.8321,-0.9362,-1.0481,-1.1638,-1.1381,-1.1643,-1.2851,-1.3294,-1.3294,-1.2942,-1.3688,-1.4088,-1.4088,-1.4088,-1.4088,-1.4088,-1.4088,-1.4088,-1.4088,-1.4088,-1.4088,-1.4088,-1.4088,-1.4088,-1.4088,-1.4088,-1.4088,-1.4088,-1.4088,-1.4088,-1.4088,-1.4088,-1.4088,-1.4088,-1.4088,-1.4088,-1.4088,-1.4088,-1.4088,-1.4088,-1.4088,-1.4088,-1.4088,-1.4088,-1.4088,-1.4088,-1.4088,-1.4088,-1.4088,-1.4088,-1.4088,-1.4088,-1.4088,-1.4088,-1.4088,-1.4088,-1.4088,-1.4088,-1.4088,-1.4088,-1.4088,-1.4088,-1.4088,-1.4088,-1.4088,-1.4088,-1.4088,-1.4088,-1.4088,-1.4088,-1.4088,-1.4088,-1.4088,-1.4088,-1.5095,-1.5696,-1.5696,-1.7811,-1.8997,-1.8997,-2.004,-2.0605,-2.0605,-2.0605,-2.0605,-2.0605,-2.0605,-2.0605,-1.4088,-1.4088,-1.3997,-1.3561,-1.3779,-1.3688,-1.2072,-1.2029,-1.1772,-0.9879,-0.9192,-0.8803,-0.84,-0.7661,0.0,0.0,0.0,0.0,0.0,-0.7095,-0.7095,-0.7095,-0.7797,-0.8277,-0.8277,-0.8925,-1.0,-1.1595,-1.1338,-1.1643,-1.2857,-1.3288,-1.3294,-1.2942,-1.3294,-1.3688,-1.4088,-1.3688,-1.3688,-1.4088,-1.4088,-1.4088,-1.4088,-1.4088,-1.4088,-1.4088,-1.4088,-1.4088,-1.4088,-1.4088,-1.4088,-1.4088,-1.4088,-1.4088,-1.4088,-1.4088,-1.4088,-1.4088,-1.4088,-1.4088,-1.4088,-1.4088,-1.4088,-1.4088,-1.4088,-1.4088,-1.4088,-1.4088,-1.4088,-1.4088,-1.4088,-1.4088,-1.4088,-1.4088,-1.4088,-1.4088,-1.4088,-1.4088,-1.4088,-1.4088,-1.4088,-1.4088,-1.4088,-1.4088,-1.4088,-1.4088,-1.4088,-1.4088,-1.4088,-1.4088,-1.4088,-1.4088,-1.4088,-1.4088,-1.4088,-1.4088,-1.4088,-1.4088,-1.4734,-1.5137,-1.5137,-1.6887,-1.7819,-1.7819,-1.8868,-1.9638,-2.004,-2.004,-2.0245,-2.0605,-2.0605,-2.0605]}]]